.

MPMG - Transparência

Contracheque - Verbas indenizatórias e outras remunerações temporárias - Tabela III (Resolução nº 200/2019) - Pós Resolução CNMP 200/2019

Período: 2022 - Agosto

Ordem Matrícula Nome Cargo Lotação Verbas Indenizatórias *1 Outras Remunerações Temporárias *2 Data de Referência
Auxílio Alimentação Auxílio Creche Auxílio Saúde Auxílio Transporte Estagiário Indenizações Indenizações e Diligênias Adicionais de Periculosidade e Insalubridade Gratificações Outras Remunerações
1 498900 ABDON MARCIO BARBOSA DA SILVA OFICIAL DO MP ABRE CAMPO - COMARCA; ABRE CAMPO-PJ-01PJ 1.333,00 0,00 578,00 0,00 0,00 0,00 0,00 0,00 0,00 31/08/2022
2 293600 ABELARDO GUIMARAES CASTRO PROMOT.ENTRANC.ESPECIAL BELO HORIZONTE - COMARCA; BH-18PJ VIOLENCIA DOMESTICA-GAB 044PJ 1.333,00 0,00 3.368,91 0,00 16.844,55 0,00 0,00 0,00 514,69 31/08/2022
3 99200 ADALBERTO DE PAULA CHRISTO LEITE PROMOT.ENTRANC.ESPECIAL SÃO JOÃO DEL REI - COMARCA; SAO JOAO DEL REI-PJ-02PJ 1.333,00 0,00 3.368,91 0,00 5.614,85 0,00 0,00 0,00 514,69 31/08/2022
4 177800 ADALBERTO MENEZES FARIA SAMORA OFICIAL DO MP BELO HORIZONTE - COMARCA; DIRET DE PLANOS PROJETOS E PROGRAMAS INST 1.333,00 0,00 578,00 0,00 0,00 0,00 0,00 0,00 0,00 31/08/2022
5 306400 ADALBERTO MOREIRA GONCALVES ANALISTA DO MP BELO HORIZONTE - COMARCA; BH-24PJ JUIZO REG BARREIRO-SECRETARIA 1.333,00 0,00 578,00 0,00 0,00 0,00 0,00 0,00 0,00 31/08/2022
6 100400 ADELAIDE CRISTINA DE CARVALHO MACHADO PROCURADOR DE JUSTICA BELO HORIZONTE - COMARCA; GABINETE DE PROCURADOR DE JUSTIÇA - SALA 708 1.333,00 0,00 1.288,73 0,00 17.731,11 0,00 0,00 0,00 541,78 31/08/2022
7 96500 ADELIA LAGE DE OLIVEIRA PROCURADOR DE JUSTICA BELO HORIZONTE - COMARCA; GABINETE DE PROCURADOR DE JUSTIÇA - SALA 403 1.333,00 0,00 1.405,88 0,00 11.820,74 0,00 0,00 0,00 541,78 31/08/2022
8 49200 ADEMAR PEREIRA PROMOTOR 2A ENTRANCIA MACHADO - COMARCA; MACHADO-PJ-01PJ 1.333,00 0,00 3.200,47 0,00 21.336,44 0,00 0,00 0,00 488,96 31/08/2022
9 179300 ADENISE AUXILIADORA SOUZA SAD OFICIAL DO MP BARBACENA - COMARCA; BARBACENA-PJ-06PJ 1.333,00 0,00 578,00 0,00 0,00 0,00 0,00 0,00 0,00 31/08/2022
10 272200 ADILSON BATISTA ORNELAS OFICIAL DO MP LAVRAS - COMARCA; LAVRAS-PJ-SECRETARIA 1.333,00 0,00 578,00 0,00 0,00 0,00 0,00 0,00 0,00 31/08/2022
11 143000 ADILSON DE OLIVEIRA NASCIMENTO PROCURADOR DE JUSTICA BELO HORIZONTE - COMARCA; GABINETE DE PROCURADOR DE JUSTIÇA - SALA 614 1.333,00 0,00 3.546,22 0,00 17.731,11 0,00 0,00 0,00 541,78 31/08/2022
12 380100 ADILSON GONCALVES DE MELO JUNIOR ANALISTA DO MP ARAXÁ - COMARCA; ARAXA-PJ-05PJ 1.333,00 0,00 578,00 0,00 0,00 0,00 0,00 0,00 0,00 31/08/2022
13 148800 ADILSON JANUARIO OFICIAL DO MP BELO HORIZONTE - COMARCA; BH-22PJ PES COM DEF E IDOSOS-SECRETARIA 1.333,00 0,00 578,00 0,00 0,00 0,00 0,00 0,00 0,00 31/08/2022
14 322601 ADMILSON SILVEIRA ANALISTA DO MP SAO JOAO DO PARAISO COMARCA; SAO JOAO DO PARAISO-PJ-UNPJ 1.333,00 885,30 578,00 0,00 0,00 0,00 0,00 0,00 0,00 31/08/2022
15 333700 ADRIANA ABRITTA TEIXEIRA OFICIAL DO MP BELO HORIZONTE - COMARCA; DIRET DE PESSOAL DO MINISTERIO PUBLICO - DPMP 1.333,00 0,00 578,00 0,00 0,00 0,00 0,00 0,00 0,00 31/08/2022
16 1359300 ADRIANA ANTUNES DOS REIS ESTAGIARIO CONTAGEM; CONTAGEM-PJ-07PJ 0,00 0,00 0,00 264,00 0,00 0,00 0,00 0,00 0,00 31/08/2022
17 468500 ADRIANA APARECIDA FIRMINO ANALISTA DO MP CARATINGA - COMARCA; CARATINGA-PJ-04PJ 1.333,00 0,00 578,00 0,00 5.812,40 0,00 0,00 0,00 532,80 31/08/2022
18 326100 ADRIANA AUGUSTA AMARAL BELO OFICIAL DO MP BARBACENA - COMARCA; BARBACENA-PJ-08PJ 1.333,00 0,00 578,00 0,00 0,00 0,00 0,00 0,00 0,00 31/08/2022
19 363000 ADRIANA CARVALHO PEREIRA E SILVA COSTA PROMOTOR 2A ENTRANCIA ALÉM PARAÍBA - COMARCA; ALEM PARAIBA-PJ-02PJ 1.333,00 0,00 2.741,48 0,00 5.334,11 0,00 0,00 0,00 488,96 31/08/2022
20 1400800 ADRIANA CINTIA SANTOS DOS REIS ESTAGIARIO SANTA LUZIA; SANTA LUZIA-PJ-05PJ 0,00 0,00 0,00 228,00 0,00 0,00 0,00 0,00 0,00 31/08/2022
21 605700 ADRIANA COSTA LIRA OFICIAL DO MP BELO HORIZONTE - COMARCA; CAO-EDUCACAO 1.333,00 0,00 578,00 0,00 0,00 0,00 0,00 0,00 0,00 31/08/2022
22 541100 ADRIANA CRISTINA DE OLIVEIRA OFICIAL DO MP GUAPÉ - COMARCA; GUAPE-PJ-UNPJ 1.333,00 531,18 578,00 0,00 0,00 0,00 0,00 0,00 0,00 31/08/2022
23 254800 ADRIANA DAS GRACAS FERNANDES ANALISTA DO MP UBERABA - COMARCA; UBERABA-PJ-07PJ 1.333,00 0,00 578,00 0,00 0,00 0,00 0,00 0,00 0,00 31/08/2022
24 217400 ADRIANA DE CARVALHO CATAO BRAGA ASSESSOR ADMINISTRATIVO III BELO HORIZONTE - COMARCA; DIV FISCAL ADM CONT TERCEIRIZACAO 1.333,00 0,00 578,00 0,00 0,00 0,00 0,00 0,00 0,00 31/08/2022
25 434600 ADRIANA FERREIRA DA SILVA ANALISTA DO MP BELO HORIZONTE - COMARCA; BH-14PJ DEFESA CONSUMIDOR-GAB 112PJ 1.333,00 0,00 578,00 0,00 1.365,55 0,00 0,00 0,00 125,18 31/08/2022
26 499800 ADRIANA FERREIRA TIAGO OFICIAL DO MP SALINAS - COMARCA; SALINAS-PJ-02PJ 1.333,00 0,00 578,00 0,00 0,00 0,00 0,00 0,00 0,00 31/08/2022
27 543400 ADRIANA GUIMARAES NUNES DE PAULA ANALISTA DO MP PATROCÍNIO - COMARCA; PATROCINIO-PJ-01PJ 1.333,00 0,00 578,00 0,00 0,00 0,00 0,00 0,00 0,00 31/08/2022
28 471500 ADRIANA HORTA DE CARVALHO RODRIGUES DE SOUSA ANALISTA DO MP BELO HORIZONTE - COMARCA; GRUPO ESP PROM JUST DEF PROB ADM PAT PUB 1.333,00 0,00 578,00 0,00 0,00 0,00 0,00 0,00 0,00 31/08/2022
29 314300 ADRIANA JULIA DE SOUZA PROMOT.ENTRANC.ESPECIAL BELO HORIZONTE - COMARCA; BH-26 CRIME CONT CRIAN ADOL-GAB 169PJ 1.333,00 0,00 3.068,35 0,00 22.459,40 0,00 0,00 0,00 514,69 31/08/2022
30 1471700 ADRIANA MARTINS DE ALBUQUERQUE ESTAGIARIO BELO HORIZONTE; GABINETE DE PROCURADOR DE JUSTIÇA - SALA 506 0,00 0,00 0,00 252,00 0,00 0,00 0,00 0,00 0,00 31/08/2022
31 86400 ADRIANA MOREIRA CALDEIRA BRANT OFICIAL DO MP BELO HORIZONTE - COMARCA; BH-21PJ TUTELA FUNDACOES-SECRETARIA 1.333,00 0,00 578,00 0,00 0,00 0,00 0,00 0,00 0,00 31/08/2022
32 480700 ADRIANA MOREIRA DE AVELLAR CEZILIO OFICIAL DO MP BELO HORIZONTE - COMARCA; BH-12PJ JUIZO CRIMINAL-SECRETARIA 1.333,00 0,00 578,00 0,00 0,00 0,00 0,00 0,00 0,00 31/08/2022
33 326000 ADRIANA PEREIRA CARNEIRO RESENDE OFICIAL DO MP BELO HORIZONTE - COMARCA; BH-25PJ DEFESA DA EDUCACAO-SECRETARIA 1.333,00 0,00 578,00 0,00 0,00 0,00 0,00 0,00 0,00 31/08/2022
34 502200 ADRIANA PETRUCCI DAVINA OFICIAL DO MP PATROCÍNIO - COMARCA; PATROCINIO-PJ-01PJ 1.333,00 885,30 578,00 0,00 0,00 0,00 0,00 0,00 0,00 31/08/2022
35 685200 ADRIANA PRATES DOS SANTOS PROMOTOR SUBSTITUTO CARMO DO PARANAÍBA - COMARCA; CARMO DO PARANAIBA-PJ-02PJ 1.333,00 0,00 1.842,08 0,00 15.202,21 0,00 0,00 0,00 464,51 31/08/2022
36 201900 ADRIANA REIS PIMENTA OFICIAL DO MP TEÓFILO OTONI - COMARCA; TEOFILO OTONI-PJ-03PJ 1.333,00 0,00 578,00 0,00 0,00 0,00 0,00 0,00 0,00 31/08/2022
37 278700 ADRIANA RODRIGUES PINTO COELHO AMARAL ANALISTA DO MP BELO HORIZONTE - COMARCA; CGMP-ASSESSORIA JURIDICA 1.333,00 0,00 578,00 0,00 0,00 0,00 0,00 0,00 0,00 31/08/2022
38 468000 ADRIANA SANTOS DE SANTANA MOREIRA ANALISTA DO MP GOVERNADOR VALADARES - COMARCA; GAECO REGIONAL DE GOVERNADOR VALADARES 1.333,00 0,00 578,00 0,00 0,00 0,00 0,00 0,00 0,00 31/08/2022
39 290900 ADRIANA TORRES BECK PROMOT.ENTRANC.ESPECIAL BELO HORIZONTE - COMARCA; BH-23PJ INFRACIONAL-GAB COOPJ 1.333,00 0,00 3.368,91 0,00 11.229,70 0,00 0,00 0,00 514,69 31/08/2022
40 194700 ADRIANA TSUKIDE OFICIAL DO MP UBERABA - COMARCA; COORD REG BACIAS PARANAIBA BAIXO RIO GRANDE 1.333,00 0,00 578,00 0,00 5.609,76 0,00 0,00 0,00 514,23 31/08/2022
41 291500 ADRIANA VITAL DO VALLE PROMOT.ENTRANC.ESPECIAL SÃO JOÃO DEL REI - COMARCA; SAO JOAO DEL REI-PJ-06PJ 1.333,00 0,00 2.693,95 0,00 16.844,55 0,00 0,00 0,00 514,69 31/08/2022
42 212900 ADRIANO ARANTES BOZOLA PROMOT.ENTRANC.ESPECIAL UBERLÂNDIA - COMARCA; UBERLANDIA-PJ-21PJ 1.333,00 0,00 3.368,91 0,00 20.213,46 0,00 0,00 0,00 514,69 31/08/2022
43 174200 ADRIANO BOTELHO ESTRELA PROMOT.ENTRANC.ESPECIAL BELO HORIZONTE - COMARCA; BH-12PJ JUIZO CRIMINAL-GAB 095PJ 1.333,00 0,00 2.319,71 0,00 11.229,70 0,00 0,00 0,00 514,69 31/08/2022
44 465500 ADRIANO CASSIANO MATOS ANALISTA DO MP ARAXÁ - COMARCA; ARAXA-PJ-02PJ 1.333,00 0,00 578,00 0,00 0,00 0,00 0,00 0,00 0,00 31/08/2022
45 500500 ADRIANO DE ALMEIDA SILVA OFICIAL DO MP UBERABA - COMARCA; UBERABA-PJ-12PJ 1.333,00 885,30 578,00 0,00 0,00 0,00 0,00 0,00 0,00 31/08/2022
46 187200 ADRIANO DE FREITAS MARON OFICIAL DO MP PONTE NOVA - COMARCA; PONTE NOVA-PJ-03PJ 1.333,00 0,00 578,00 0,00 0,00 0,00 0,00 0,00 0,00 31/08/2022
47 344000 ADRIANO DUTRA GOMES DE FARIA PROMOT.ENTRANC.ESPECIAL VESPASIANO - COMARCA; VESPASIANO-PJ-04PJ 1.333,00 0,00 3.368,91 0,00 16.844,55 0,00 0,00 0,00 514,69 31/08/2022
48 477900 ADRIANO FERREIRA DE ALMEIDA OFICIAL DO MP TAIOBEIRAS - COMARCA; TAIOBEIRAS-PJ-UNPJ 1.333,00 0,00 578,00 0,00 0,00 506,94 0,00 0,00 0,00 31/08/2022
49 1301100 ADRIANO GUILHERME SILVA ESTAGIARIO POMPEU; POMPEU-PJ-UNPJ 0,00 0,00 0,00 228,00 0,00 0,00 0,00 0,00 0,00 31/08/2022
50 269101 ADRIANO PEREIRA SILVA ANALISTA DO MP UBERABA - COMARCA; UBERABA-PJ-02PJ 1.333,00 0,00 578,00 0,00 0,00 0,00 0,00 0,00 0,00 31/08/2022
51 414200 ADRIANO RODRIGUES FERNANDES ANALISTA DO MP CARANDAÍ - COMARCA; CARANDAI-PJ-UNPJ 1.333,00 0,00 578,00 0,00 0,00 0,00 0,00 0,00 0,00 31/08/2022
52 715300 ADRIANO SCHER DORNELAS 2O. SARGENTO BELO HORIZONTE - COMARCA; NUCLEO DE COMBATE AOS CRIMES AMBIENTAIS 1.333,00 0,00 0,00 0,00 0,00 0,00 0,00 0,00 0,00 31/08/2022
53 536700 ADRIELLE COSTA MARIA MOURAO FIGUEIREDO OFICIAL DO MP SERRO - COMARCA; SERRO-PJ-SECRETARIA 1.333,00 885,30 578,00 0,00 0,00 0,00 0,00 0,00 0,00 31/08/2022
54 1500100 ADRIELLY BIANQUY ALVES DA SILVA ESTAGIARIO LAJINHA; LAJINHA-PJ-UNPJ 0,00 0,00 0,00 24,00 0,00 0,00 0,00 0,00 0,00 31/08/2022
55 514300 ADRIENE DAMASCENO BRAGA ANALISTA DO MP ALFENAS - COMARCA; ALFENAS-PJ-03PJ 1.333,00 0,00 578,00 0,00 0,00 0,00 0,00 0,00 0,00 31/08/2022
56 254600 ADRIENE DOMINGUES COSTA ANALISTA DO MP BELO HORIZONTE - COMARCA; SUPER DE GESTAO DE PESSOAS-LOTACAO TEMPORARIA
57 252001 ADRIENE GOMES BARRETO ANALISTA DO MP BELO HORIZONTE - COMARCA; BH-19PJ SAUDE-SECRETARIA 047PJ 1.333,00 0,00 578,00 0,00 0,00 0,00 0,00 0,00 0,00 31/08/2022
58 1349800 ADRISE LOPES DE MATOS ESTAGIARIO VISCONDE DO RIO BRANCO; VISCONDE DO RIO BRANCO-PJ-02PJ 0,00 0,00 0,00 252,00 0,00 0,00 0,00 0,00 0,00 31/08/2022
59 84100 ADROALDO JUNQUEIRA AYRES NETO PROMOT.ENTRANC.ESPECIAL UBERABA - COMARCA; UBERABA-PJ-12PJ 1.333,00 0,00 3.368,91 0,00 16.844,55 0,00 0,00 0,00 514,69 31/08/2022
60 714800 ADSON GUSTAVO DE OLIVEIRA ASSESSOR PROCURADOR JUSTICA BELO HORIZONTE - COMARCA; GABINETE DE PROCURADOR DE JUSTIÇA - SALA 803 1.333,00 0,00 578,00 0,00 0,00 0,00 0,00 0,00 0,00 31/08/2022
61 724600 AECIO BRAS SILVA JUNIOR ASSESSOR PROMOTOR JUSTICA BAMBUÍ - COMARCA; BAMBUI-PJ-UNPJ 1.333,00 0,00 578,00 0,00 0,00 0,00 0,00 0,00 0,00 31/08/2022
62 162700 AECIO RABELO PROMOTOR 2A ENTRANCIA LAVRAS - COMARCA; LAVRAS-PJ-04PJ 1.333,00 0,00 2.928,92 0,00 16.002,33 0,00 0,00 0,00 488,96 31/08/2022
63 97600 AFONSO HENRIQUE DE MIRANDA TEIXEIRA PROCURADOR DE JUSTICA BELO HORIZONTE - COMARCA; CAO-CONFLITOS AGRARIOS 1.333,00 0,00 2.366,57 0,00 21.277,33 0,00 0,00 0,00 541,78 31/08/2022
64 1207200 AFRA YASMIM DA SILVA ESTAGIARIO BELO HORIZONTE; DIRET DE FORMACAO, APERFEIC. E POS-GRADUACAO
65 610000 AGENOR ANDRADE LEAO PROMOT.ENTRANC.ESPECIAL TEÓFILO OTONI - COMARCA; TEOFILO OTONI-PJ-05PJ 1.333,00 0,00 2.538,78 0,00 16.844,55 0,00 0,00 0,00 514,69 31/08/2022
66 302500 AGENOR JOSE DA SILVA JUNIOR ANALISTA DO MP JUIZ DE FORA - COMARCA; JUIZ DE FORA-PJ-07PJ 1.333,00 0,00 578,00 0,00 0,00 0,00 0,00 0,00 0,00 31/08/2022
67 344100 AGNALDO LUCAS COTRIM PROMOT.ENTRANC.ESPECIAL POUSO ALEGRE - COMARCA; POUSO ALEGRE-PJ-02PJ 1.333,00 0,00 2.826,11 0,00 16.844,55 0,00 0,00 0,00 514,69 31/08/2022
68 67400 AIDA FERNANDES LISBOA MARINHO PROCURADOR DE JUSTICA BELO HORIZONTE - COMARCA; GABINETE DE PROCURADOR DE JUSTIÇA - SALA 604 1.333,00 0,00 3.146,61 0,00 17.731,11 0,00 0,00 0,00 541,78 31/08/2022
69 357500 AILSON WAGNER DE ALENCAR SILVA OFICIAL DO MP BELO HORIZONTE - COMARCA; BH-12PJ JUIZO CRIMINAL-SECRETARIA 1.333,00 0,00 578,00 0,00 0,00 0,00 0,00 0,00 0,00 31/08/2022
70 366400 AILTON ALEXSSANDRO ALVES OFICIAL DO MP PARÁ DE MINAS - COMARCA; PARA DE MINAS-PJ-05PJ 1.333,00 0,00 578,00 0,00 0,00 0,00 0,00 0,00 0,00 31/08/2022
71 318900 AILTON DE CASTRO RIBEIRO JUNIOR OFICIAL DO MP ITAJUBA - COMARCA; ITAJUBA-PJ-01PJ 1.333,00 0,00 578,00 0,00 0,00 0,00 0,00 0,00 0,00 31/08/2022
72 533100 AIMARA DE BRITTO DIAS LEITE CABALEIRO PROMOTOR SUBSTITUTO SANTA LUZIA - COMARCA; SANTA LUZIA-PJ-02PJ 1.333,00 0,00 3.040,44 0,00 0,00 0,00 0,00 0,00 0,00 31/08/2022
73 439100 AIRTON BATISTA COSTA NETO NEPOMUCENO PROMOTOR 2A ENTRANCIA ITUIUTABA - COMARCA; ITUIUTABA-PJ-04PJ 1.333,00 0,00 3.200,47 0,00 16.002,33 0,00 0,00 0,00 488,96 31/08/2022
74 341600 ALAM BAENA BERTOLLA DOS SANTOS PROMOTOR 2A ENTRANCIA ARAGUARI - COMARCA; ARAGUARI-PJ-05PJ 1.333,00 0,00 3.200,47 0,00 21.336,44 0,00 0,00 0,00 488,96 31/08/2022
75 175700 ALAN CARRIJO RAMOS PROMOTOR 1A ENTRANCIA PRATÁPOLIS - COMARCA; PRATAPOLIS-PJ-UNPJ 1.333,00 0,00 3.040,44 0,00 15.202,20 0,00 0,00 0,00 464,51 31/08/2022
76 464400 ALAN MONTEIRO GASPAR ANALISTA DO MP SETE LAGOAS - COMARCA; SETE LAGOAS-PJ-08PJ 1.333,00 0,00 578,00 0,00 0,00 0,00 0,00 0,00 0,00 31/08/2022
77 492000 ALANA DE CASTRO FREITAS OFICIAL DO MP LAVRAS - COMARCA; LAVRAS-PJ-03PJ 1.333,00 0,00 578,00 0,00 0,00 0,00 0,00 0,00 0,00 31/08/2022
78 306700 ALANA MARCIA DE OLIVEIRA OFICIAL DO MP BELO HORIZONTE - COMARCA; DIRETORIA DE ADMINISTRACAO FINANCEIRA 1.333,00 0,00 578,00 0,00 0,00 0,00 0,00 0,00 0,00 31/08/2022
79 324500 ALANMAR COUTINHO COSTA OFICIAL DO MP LEOPOLDINA - COMARCA; LEOPOLDINA-PJ-02PJ 1.333,00 0,00 578,00 0,00 0,00 0,00 0,00 0,00 0,00 31/08/2022
80 170800 ALBERTO BOGLIOLO SIRIHAL PROMOT.ENTRANC.ESPECIAL BELO HORIZONTE - COMARCA; BH-05PJ JUIZO SUCESSÕES-GAB CARGO 045PJ 1.333,00 0,00 3.138,20 0,00 16.844,55 0,00 0,00 0,00 514,69 31/08/2022
81 1160400 ALBERTO DOS ANJOS GODEFROID ESTAGIARIO OURO PRETO; OURO PRETO-PJ-01PJ 0,00 0,00 0,00 180,00 0,00 0,00 0,00 0,00 0,00 31/08/2022
82 407300 ALBERTO LUIZ SOARES DE OLIVEIRA ANALISTA DO MP BELO HORIZONTE - COMARCA; DIRETORIA DE PROJETOS DE EDIFICACOES 1.333,00 0,00 578,00 0,00 0,00 0,00 0,00 0,00 0,00 31/08/2022
83 118200 ALBERTO PEREIRA DA COSTA OFICIAL DO MP DORES DO INDAIÁ - COMARCA; DORES DO INDAIA-PJ-UNPJ 1.333,00 0,00 578,00 0,00 0,00 0,00 0,00 0,00 0,00 31/08/2022
84 72000 ALBINO VITORIO BERNARDO PROCURADOR DE JUSTICA BELO HORIZONTE - COMARCA; GABINETE DE PROCURADOR DE JUSTIÇA - SALA 710 1.333,00 0,00 1.405,88 0,00 23.641,48 0,00 0,00 0,00 541,78 31/08/2022
85 660700 ALCIDEZIO JOSE DE OLIVEIRA BISPO JUNIOR PROMOT.ENTRANC.ESPECIAL CARATINGA - COMARCA; CARATINGA-PJ-01PJ 1.333,00 0,00 3.368,91 0,00 16.844,55 0,00 0,00 0,00 514,69 31/08/2022
86 282400 ALCILENE MARISE DE ARAUJO ANALISTA DO MP BELO HORIZONTE - COMARCA; BH-23PJ INF-FISC MED SOC FEC 1.333,00 0,00 578,00 0,00 5.145,66 0,00 0,00 0,00 471,69 31/08/2022
87 112600 ALCIONE DA MOTA JARDIM OFICIAL DO MP BELO HORIZONTE - COMARCA; CAO-CRIANCAS E ADOLESCENTES-SECRETARIA 1.333,00 0,00 578,00 0,00 0,00 0,00 0,00 0,00 0,00 31/08/2022
88 396400 ALCIONE DE FREITAS E SILVA ANALISTA DO MP BELO HORIZONTE - COMARCA; ASSESS JUR DO CONS SUPERIOR DO MINISTERIO PUB 1.333,00 0,00 578,00 0,00 0,00 0,00 0,00 0,00 0,00 31/08/2022
89 657400 ALCIONE MARIA FERREIRA ASSESSOR PROCURADOR JUSTICA BELO HORIZONTE - COMARCA; GABINETE DE PROCURADOR DE JUSTIÇA - SALA 610 1.333,00 885,30 578,00 0,00 0,00 0,00 0,00 0,00 0,00 31/08/2022
90 161600 ALCIONE NERY SOUZA ASSESSOR ADMINISTRATIVO III BELO HORIZONTE - COMARCA; BH-18PJ DIREITOS HUMANOS-SECRETARIA 1.333,00 0,00 578,00 0,00 0,00 0,00 0,00 0,00 0,00 31/08/2022
91 92000 ALCIR ARANTES PROMOT.ENTRANC.ESPECIAL UBERABA - COMARCA; UBERABA-PJ-03PJ 1.333,00 0,00 3.368,91 0,00 16.844,55 0,00 0,00 0,00 514,69 31/08/2022
92 376000 ALDA GOMES LANA OFICIAL DO MP BELO HORIZONTE - COMARCA; BH-18PJ VIOLENCIA DOMESTICA-SECRETARIA 1.333,00 0,00 578,00 0,00 0,00 0,00 0,00 0,00 0,00 31/08/2022
93 148000 ALDA MARTINS SIMOES OFICIAL DO MP BELO HORIZONTE - COMARCA; BH-23PJ CIVEL- FISC ENT AB POL 1.333,00 0,00 578,00 0,00 0,00 0,00 0,00 0,00 0,00 31/08/2022
94 457700 ALDERICO DE CARVALHO JUNIOR PROMOTOR 2A ENTRANCIA BELO HORIZONTE - COMARCA; PROC JUST ATUACAO TRIBUNAIS SUPERIORES-GAB002 1.333,00 0,00 3.200,47 0,00 16.002,33 0,00 0,00 0,00 488,96 31/08/2022
95 318400 ALDO CREPALDI JUNIOR OFICIAL DO MP BELO HORIZONTE - COMARCA; DIVISAO DE MATERIAIS 1.333,00 0,00 578,00 0,00 0,00 0,00 0,00 0,00 0,00 31/08/2022
96 1434100 ALECSANDER CARDOSO ESTAGIARIO ANDRADAS; ANDRADAS-PJ-02PJ 0,00 0,00 0,00 264,00 0,00 0,00 0,00 0,00 0,00 31/08/2022
97 604500 ALENIZE APARECIDA RODRIGUES HENRIQUE OFICIAL DO MP RIO NOVO - COMARCA; RIO NOVO-PJ-UNPJ 1.333,00 0,00 578,00 0,00 0,00 0,00 0,00 0,00 0,00 31/08/2022
98 197900 ALESSA DE SOUSA E SILVA OFICIAL DO MP OLIVEIRA - COMARCA; OLIVEIRA-PJ-02PJ 1.333,00 0,00 578,00 0,00 0,00 176,16 0,00 0,00 0,00 31/08/2022
99 428500 ALESSANDRA ALVES DINIZ OFICIAL DO MP BELO HORIZONTE - COMARCA; CENTRAL DE APOIO TECNICO-SECRETARIA 1.333,00 0,00 578,00 0,00 1.557,09 0,00 0,00 0,00 142,73 31/08/2022
100 1464000 ALESSANDRA BORGES GONCALVES ESTAGIARIO ITUIUTABA; ITUIUTABA-PJ-06PJ 0,00 0,00 0,00 240,00 0,00 0,00 0,00 0,00 0,00 31/08/2022
101 286801 ALESSANDRA BOTELHO JUNQUEIRA DE MENEZES ANALISTA DO MP PASSOS - COMARCA; PASSOS-PJ-05PJ 1.333,00 885,30 578,00 0,00 0,00 0,00 0,00 0,00 0,00 31/08/2022
102 307000 ALESSANDRA CRISTINA SANTOS MENDES ANALISTA DO MP BELO HORIZONTE - COMARCA; BH-18PJ VIOLENCIA DOMESTICA-SECRETARIA 1.333,00 0,00 578,00 0,00 0,00 0,00 0,00 0,00 0,00 31/08/2022
103 264400 ALESSANDRA DE SOUZA SANTOS ANALISTA DO MP BELO HORIZONTE - COMARCA; SUPERINTENDENCIA DOS ORGAOS COLEGIADOS 1.333,00 0,00 578,00 0,00 0,00 0,00 0,00 0,00 0,00 31/08/2022
104 441500 ALESSANDRA DRUMMOND DE FIGUEIREDO ROSSI ANALISTA DO MP BELO HORIZONTE - COMARCA; DIRETORIA DE PROJETOS DE EDIFICACOES 1.333,00 0,00 578,00 0,00 0,00 0,00 0,00 0,00 0,00 31/08/2022
105 717700 ALESSANDRA HORTA DIAS DE OLIVEIRA PROMOTOR SUBSTITUTO JACINTO - COMARCA; JACINTO-PJ-UNPJ 1.333,00 0,00 2.822,97 0,00 0,00 0,00 0,00 0,00 0,00 31/08/2022
106 1309800 ALESSANDRA KELLY DA SILVA ROCHA ESTAGIARIO PEDRO LEOPOLDO; PEDRO LEOPOLDO-PJ-02PJ 0,00 0,00 0,00 252,00 0,00 0,00 0,00 0,00 0,00 31/08/2022
107 524000 ALESSANDRA LUCIOLI DE BARROS GUERRA ANALISTA DO MP BELO HORIZONTE - COMARCA; BH-19PJ SAUDE--SECRETARIA 1.333,00 0,00 578,00 0,00 0,00 0,00 0,00 0,00 0,00 31/08/2022
108 479900 ALESSANDRA MARA ANDRADE DE FARIA OFICIAL DO MP UBERABA - COMARCA; UBERABA-PJ-09PJ 1.333,00 0,00 578,00 0,00 0,00 0,00 0,00 0,00 0,00 31/08/2022
109 226700 ALESSANDRA MARA VASCONCELOS REZENDE OFICIAL DO MP CONSELHEIRO LAFAIETE - COMARCA; CONSELHEIRO LAFAIETE-PJ-07PJ 1.333,00 0,00 578,00 0,00 0,00 0,00 0,00 0,00 0,00 31/08/2022
110 112100 ALESSANDRA MARCIA FERREIRA OFICIAL DO MP BELO HORIZONTE - COMARCA; BELO HORIZONTE- SECRETARIA DAS PROMOTORIAS 1.333,00 0,00 578,00 0,00 0,00 0,00 0,00 0,00 0,00 31/08/2022
111 196500 ALESSANDRA MARIA RIBEIRO LUCIANO OFICIAL DO MP RIO PARANAÍBA - COMARCA; RIO PARANAIBA-PJ-UNPJ 1.333,00 0,00 578,00 0,00 0,00 0,00 0,00 0,00 0,00 31/08/2022
112 1257300 ALESSANDRA MIRANDA REZENDE ESTAGIARIO BELO HORIZONTE; BH-12PJ JUIZO CRIMINAL 0,00 0,00 0,00 96,00 0,00 0,00 0,00 0,00 0,00 31/08/2022
113 290500 ALESSANDRA PINTO CASSIANO PROMOTOR 2A ENTRANCIA BOA ESPERANÇA - COMARCA; BOA ESPERANCA-PJ-02PJ 1.333,00 0,00 1.452,75 0,00 5.334,11 0,00 0,00 0,00 488,96 31/08/2022
114 651700 ALESSANDRA PROFIRIO SOUZA OFICIAL DO MP NOVA ERA - COMARCA; NOVA ERA-PJ-UNPJ 1.333,00 0,00 578,00 0,00 0,00 0,00 0,00 0,00 0,00 31/08/2022
115 384900 ALESSANDRA RODRIGUES ANALISTA DO MP VISCONDE DO RIO BRANCO - COMARCA; VISCONDE DO RIO BRANCO-PJ-03PJ 1.333,00 885,30 578,00 0,00 0,00 0,00 0,00 0,00 0,00 31/08/2022
116 390000 ALESSANDRA SPADANO MASSARA VASCONCELOS OFICIAL DO MP BETIM - COMARCA; BETIM-PJ-10PJ 1.333,00 0,00 578,00 0,00 0,00 0,00 0,00 0,00 0,00 31/08/2022
117 1373300 ALESSANDRA VIEIRA RODRIGUES ESTAGIARIO MONTES CLAROS; MONTES CLAROS-PJ-07PJ 0,00 0,00 0,00 264,00 0,00 0,00 0,00 0,00 0,00 31/08/2022
118 426500 ALESSANDRO CAMPOS DE PAIVA ANALISTA DO MP BELO HORIZONTE - COMARCA; DIR CRIACAO E MIDIAS 1.333,00 0,00 578,00 0,00 0,00 0,00 0,00 0,00 0,00 31/08/2022
119 623400 ALESSANDRO DE OLIVEIRA REZENDE ANALISTA DO MP BELO HORIZONTE - COMARCA; DIRET DE INFORMACAO E CONHECIMENTO-DINC/CEAF 1.333,00 0,00 578,00 0,00 0,00 0,00 0,00 0,00 0,00 31/08/2022
120 1137100 ALESSANDRO GARCIA ESTAGIARIO DIVINOPOLIS; DIVINOPOLIS-PJ-06PJ 0,00 0,00 0,00 264,00 0,00 0,00 0,00 0,00 0,00 31/08/2022
121 174100 ALESSANDRO GARCIA SILVA PROMOT.ENTRANC.ESPECIAL DIVINÓPOLIS - COMARCA; DIVINOPOLIS-PJ-12PJ 1.333,00 0,00 2.624,31 0,00 13.475,64 0,00 0,00 0,00 514,69 31/08/2022
122 308201 ALESSANDRO RAMOS MACHADO PROMOTOR 2A ENTRANCIA ALFENAS - COMARCA; ALFENAS-PJ-04PJ 1.333,00 0,00 2.939,11 0,00 21.336,44 0,00 0,00 0,00 488,96 31/08/2022
123 665700 ALESSANDRO ROGERIO DIAS DE OLIVEIRA PROMOT.ENTRANC.ESPECIAL PATOS DE MINAS - COMARCA; PATOS DE MINAS-PJ-07PJ 1.333,00 0,00 1.546,48 0,00 16.844,55 0,00 0,00 0,00 514,69 31/08/2022
124 420600 ALESSANDRO SILVA OFICIAL DO MP VISCONDE DO RIO BRANCO - COMARCA; VISCONDE DO RIO BRANCO-PJ-02PJ 1.333,00 0,00 578,00 0,00 0,00 0,00 0,00 0,00 0,00 31/08/2022
125 1388100 ALESSANDRO SOUZA PEREIRA ESTAGIARIO ALMENARA; ALMENARA-PJ-02PJ 0,00 0,00 0,00 264,00 0,00 0,00 0,00 0,00 0,00 31/08/2022
126 171100 ALESSIA ALVES DE ALVARENGA SANTA BARBARA PROMOT.ENTRANC.ESPECIAL CONSELHEIRO LAFAIETE - COMARCA; CONSELHEIRO LAFAIETE-PJ-06PJ 1.333,00 0,00 3.050,82 0,00 22.459,40 0,00 0,00 0,00 514,69 31/08/2022
127 57800 ALESSIO GUIMARAES PROCURADOR DE JUSTICA BELO HORIZONTE - COMARCA; GABINETE DE PROCURADOR DE JUSTIÇA - SALA 508 1.333,00 0,00 3.546,22 0,00 17.731,11 0,00 0,00 0,00 541,78 31/08/2022
128 375301 ALETHEIA PATRICIA ASSIS MORAIS MOREIRA ANALISTA DO MP ITABIRA - COMARCA; ITABIRA-PJ-02PJ 1.333,00 885,30 578,00 0,00 0,00 0,00 0,00 0,00 0,00 31/08/2022
129 1337000 ALEX ALVES DA SILVA ESTAGIARIO ABRE CAMPO; ABRE CAMPO-PJ-01PJ 0,00 0,00 0,00 240,00 0,00 0,00 0,00 0,00 0,00 31/08/2022
130 382300 ALEX CARVALHO LIMA ANALISTA DO MP UBERLÂNDIA - COMARCA; UBERLANDIA-PJ-14PJ 1.333,00 885,30 578,00 0,00 0,00 0,00 0,00 0,00 0,00 31/08/2022
131 195201 ALEX DE CASTRO PEREIRA ANALISTA DO MP UBERABA - COMARCA; UBERABA-PJ-09PJ 1.333,00 0,00 578,00 0,00 0,00 0,00 0,00 0,00 0,00 31/08/2022
132 358900 ALEX DE PAULA LANZA ASSESSOR ADMINISTRATIVO IV BELO HORIZONTE - COMARCA; DIR CONTEUDO JORNALISTICO 1.333,00 885,30 578,00 0,00 0,00 0,00 0,00 0,00 0,00 31/08/2022
133 171400 ALEX FERNANDES SANTIAGO PROMOT.ENTRANC.ESPECIAL JUIZ DE FORA - COMARCA; JUIZ DE FORA-PJ-08PJ 1.333,00 0,00 2.483,72 0,00 16.844,55 0,00 0,00 0,00 514,69 31/08/2022
134 685300 ALEX RAFAEL BITTENCOURT PROMOTOR SUBSTITUTO LEOPOLDINA - COMARCA; LEOPOLDINA-PJ-04PJ 1.333,00 0,00 820,10 0,00 15.202,21 0,00 0,00 0,00 464,51 31/08/2022
135 178400 ALEX RODRIGO SALDANHA GUIMARAES OFICIAL DO MP BELO HORIZONTE - COMARCA; DIRETORIA DE SISTEMAS DE INFORMACAO 1.333,00 0,00 578,00 0,00 0,00 0,00 0,00 0,00 0,00 31/08/2022
136 314100 ALEX SOARES NACIF PROMOT.ENTRANC.ESPECIAL CONTAGEM - COMARCA; CONTAGEM-PJ-15PJ 1.333,00 0,00 984,12 0,00 22.459,40 0,00 0,00 0,00 514,69 31/08/2022
137 413500 ALEX VILELA OLIVEIRA ANALISTA DO MP GOVERNADOR VALADARES - COMARCA; COORD REG PJ DEF EDU DIR CRIANCA ADOL RIODOCE 1.333,00 0,00 578,00 0,00 2.254,98 0,00 0,00 0,00 206,71 31/08/2022
138 1274500 ALEXANDER MAXIMILIANO FERREIRA SILVA ESTAGIARIO BELO HORIZONTE; BH-13ª PJ JUÍXO DE TÓXICOS 0,00 0,00 0,00 252,00 0,00 0,00 0,00 0,00 0,00 31/08/2022
139 1356900 ALEXANDRA ANTUNES ESTAGIARIO UNAI; UNAI-PJ-04PJ 0,00 0,00 0,00 252,00 0,00 0,00 0,00 0,00 0,00 31/08/2022
140 264300 ALEXANDRA FATIMA SARAIVA SOARES ANALISTA DO MP BELO HORIZONTE - COMARCA; CENTRAL DE APOIO TECN-SETOR DE MEIO AMBIENTE 1.333,00 0,00 578,00 0,00 0,00 0,00 0,00 0,00 0,00 31/08/2022
141 488000 ALEXANDRA LARA PAIS DE CARVALHO ANALISTA DO MP SERRO - COMARCA; SERRO-PJ-UNPJ 1.333,00 0,00 578,00 0,00 0,00 0,00 0,00 0,00 0,00 31/08/2022
142 256300 ALEXANDRA SANTOS GOMES OFICIAL DO MP BELO HORIZONTE - COMARCA; DIRETORIA GESTAO COMPRAS LICITACOES 1.333,00 0,00 578,00 0,00 0,00 0,00 0,00 0,00 0,00 31/08/2022
143 236300 ALEXANDRE ALVES DE OLIVEIRA PROMOT.ENTRANC.ESPECIAL BELO HORIZONTE - COMARCA; BH-12PJ JUIZO CRIMINAL-GAB 101PJ 1.333,00 0,00 1.077,84 0,00 16.844,55 0,00 0,00 0,00 514,69 31/08/2022
144 403300 ALEXANDRE AUGUSTO RODRIGUES ANALISTA DO MP ÁGUAS FORMOSAS - COMARCA; AGUAS FORMOSAS-PJ-UNPJ 1.333,00 1.770,60 578,00 0,00 0,00 0,00 0,00 0,00 0,00 31/08/2022
145 640900 ALEXANDRE BARBOSA MASCARENHAS ANALISTA DO MP BETIM - COMARCA; BETIM-PJ-02PJ 1.333,00 0,00 578,00 0,00 0,00 0,00 0,00 0,00 0,00 31/08/2022
146 311700 ALEXANDRE BARCELOS RESENDE OFICIAL DO MP BELO HORIZONTE - COMARCA; BH-19PJ SAUDE-SECRETARIA 047PJ 1.333,00 885,30 578,00 0,00 0,00 0,00 0,00 0,00 937,89 31/08/2022
147 293700 ALEXANDRE BRASILEIRO DE QUEIROZ PROMOT.ENTRANC.ESPECIAL BELO HORIZONTE - COMARCA; BH-12PJ JUIZO CRIMINAL-GAB 092PJ 1.333,00 0,00 3.368,91 0,00 17.967,52 0,00 0,00 0,00 514,69 31/08/2022
148 285600 ALEXANDRE CAMPOS DE OLIVEIRA OFICIAL DO MP UBERABA - COMARCA; COORD REG BACIAS PARANAIBA BAIXO RIO GRANDE 1.333,00 0,00 578,00 0,00 0,00 0,00 0,00 0,00 0,00 31/08/2022
149 509200 ALEXANDRE CAPUANO DE REZENDE ANALISTA DO MP BELO HORIZONTE - COMARCA; BH-07PJ 03 TRIBUNAL DO JURI-GAB 061PJ 1.333,00 0,00 578,00 0,00 0,00 0,00 0,00 0,00 0,00 31/08/2022
150 229400 ALEXANDRE CARLOS BOTREL SUPERINTENDENTE BELO HORIZONTE - COMARCA; SUPERINTENDENCIA DOS ORGAOS COLEGIADOS 1.333,00 0,00 578,00 0,00 0,00 0,00 0,00 0,00 0,00 31/08/2022
151 411900 ALEXANDRE CARVALHO SANTOS RIBEIRO ANALISTA DO MP OLIVEIRA - COMARCA; OLIVEIRA-PJ-02PJ 1.333,00 885,30 578,00 0,00 0,00 0,00 0,00 0,00 0,00 31/08/2022
152 1245200 ALEXANDRE CHAVES SAMPAIO ESTAGIARIO BELO HORIZONTE; BH-12PJ JUIZO CRIMINAL-GAB 095PJ 0,00 0,00 0,00 180,00 0,00 0,00 0,00 0,00 0,00 31/08/2022
153 641600 ALEXANDRE DA SILVA ASSUNCAO OFICIAL DO MP BELO HORIZONTE - COMARCA; SERVICO MEDICO-DEPTO PERIC MEDICA SAUDE OCUP 1.333,00 0,00 578,00 0,00 0,00 0,00 0,00 0,00 0,00 31/08/2022
154 201200 ALEXANDRE DE ALENCAR CORDEIRO OFICIAL DO MP ÁGUAS FORMOSAS - COMARCA; AGUAS FORMOSAS-PJ-UNPJ 1.333,00 0,00 578,00 0,00 0,00 0,00 0,00 0,00 0,00 31/08/2022
155 288200 ALEXANDRE DE VASCONCELOS COSTA KER ANALISTA DO MP BELO HORIZONTE - COMARCA; BH-03PJ EMPRESARIAL-SECRETARIA 1.333,00 0,00 578,00 0,00 0,00 0,00 0,00 0,00 0,00 31/08/2022
156 445000 ALEXANDRE DIOGENES OLIVEIRA ANALISTA DO MP SALINAS - COMARCA; SALINAS-PJ-02PJ 1.333,00 885,30 578,00 0,00 0,00 0,00 0,00 0,00 0,00 31/08/2022
157 665800 ALEXANDRE FIGUEIREDO MORATO PROMOT.ENTRANC.ESPECIAL MANHUAÇU - COMARCA; MANHUACU-PJ-03PJ 1.333,00 0,00 773,24 0,00 11.791,19 0,00 0,00 0,00 673,78 31/08/2022
158 1444200 ALEXANDRE FURTADO DE MACEDO CASTRO ESTAGIARIO BELO HORIZONTE; BH-02PJ FAMILIA-GAB 025PJ 0,00 0,00 0,00 240,00 0,00 0,00 0,00 0,00 0,00 31/08/2022
159 1475100 ALEXANDRE LABOSSIERE DE ALMEIDA MUZZI ESTAGIARIO BELO HORIZONTE; DIVISAO DE MANUTENCAO PREDIAL 0,00 0,00 0,00 252,00 0,00 0,00 0,00 0,00 0,00 31/08/2022
160 463400 ALEXANDRE LEAL WINKELSTROTER ANALISTA DO MP TEÓFILO OTONI - COMARCA; TEOFILO OTONI-PJ-04PJ 1.333,00 0,00 578,00 0,00 0,00 0,00 0,00 0,00 0,00 31/08/2022
161 96600 ALEXANDRE LIBERO BARONI PROMOT.ENTRANC.ESPECIAL SETE LAGOAS - COMARCA; SETE LAGOAS-PJ-04PJ 1.333,00 0,00 3.046,09 0,00 22.459,40 0,00 0,00 0,00 514,69 31/08/2022
162 615700 ALEXANDRE LUIZ DE CASTRO MACIEL ANALISTA DO MP BELO HORIZONTE - COMARCA; BH-08PJ JUIZADO ESPECIAL-SECRETARIA 1.333,00 0,00 578,00 0,00 0,00 0,00 0,00 0,00 0,00 31/08/2022
163 356900 ALEXANDRE MOISES MENDONCA E ARAUJO OFICIAL DO MP UBERABA - COMARCA; UBERABA-PJ-13PJ 1.333,00 0,00 578,00 0,00 0,00 0,00 0,00 0,00 0,00 31/08/2022
164 232100 ALEXANDRE MOTTA BENEVIDES PROMOT.ENTRANC.ESPECIAL BELO HORIZONTE - COMARCA; BH-12PJ JUIZO CRIMINAL-GAB 094PJ 1.333,00 0,00 2.782,59 0,00 12.352,67 0,00 0,00 0,00 514,69 31/08/2022
165 633300 ALEXANDRE NONATO MARTINS OFICIAL DO MP IGARAPÉ - COMARCA; IGARAPE-PJ-02PJ 1.333,00 0,00 578,00 0,00 0,00 0,00 0,00 0,00 0,00 31/08/2022
166 469900 ALEXANDRE PEREIRA GUEDES ANALISTA DO MP CATAGUASES - COMARCA; CATAGUASES-PJ-03PJ 1.333,00 0,00 578,00 0,00 0,00 0,00 0,00 0,00 0,00 31/08/2022
167 208700 ALEXANDRE RESENDE FRAGA ANALISTA DO MP BELO HORIZONTE - COMARCA; BH-19PJ SAUDE-SECRETARIA 130PJ 1.333,00 0,00 578,00 0,00 0,00 0,00 0,00 0,00 0,00 31/08/2022
168 156900 ALEXANDRE REZENDE GRILLO PROMOTOR 2A ENTRANCIA SÃO GONÇALO DO SAPUCAÍ - COMARCA; SAO GONCALO DO SAPUCAI-PJ-02PJ 1.333,00 0,00 2.999,22 0,00 21.336,44 0,00 0,00 0,00 488,96 31/08/2022
169 216401 ALEXANDRE RIBEIRO DE LIMA MAIORINO ANALISTA DO MP UBERABA - COMARCA; UBERABA-PJ-03PJ 1.333,00 0,00 578,00 0,00 0,00 0,00 0,00 0,00 0,00 31/08/2022
170 475100 ALEXANDRE TEOTONIO COSTA ANALISTA DO MP ARAGUARI - COMARCA; ARAGUARI-PJ-01PJ 1.333,00 0,00 578,00 0,00 0,00 0,00 0,00 0,00 0,00 31/08/2022
171 339000 ALEXANDRE VITOR CARDOSO OFICIAL DO MP BELO HORIZONTE - COMARCA; BH-12PJ JUIZO CRIMINAL-SECRETARIA 1.333,00 0,00 578,00 0,00 0,00 0,00 0,00 0,00 0,00 31/08/2022
172 694000 ALEXANDRO ANTONIO PORTO E SOUZA INVESTIGADOR DE POLICIA 2 BELO HORIZONTE - COMARCA; GAECO - SETOR POLICIAL CIVIL 1.333,00 0,00 0,00 0,00 0,00 0,00 0,00 0,00 0,00 31/08/2022
173 1428500 ALEXIA ESTEFANIE ALVES LEANDRO ESTAGIARIO BELO HORIZONTE; BH-19PJ SAUDE-GAB 130PJ 0,00 0,00 0,00 108,00 0,00 0,00 0,00 0,00 146,15 31/08/2022
174 1311700 ALEXIA VASCONCELOS MOREIRA ESTAGIARIO CONSELHEIRO PENA; CONSELHEIRO PENA-PJ-01PJ 0,00 0,00 0,00 228,00 0,00 0,00 0,00 0,00 0,00 31/08/2022
175 623100 ALEXSANDER BATISTA AGUIAR COORDENADOR II BELO HORIZONTE - COMARCA; DIRETORIA DE SUPORTE E MANUTENCAO 1.333,00 885,30 578,00 0,00 0,00 0,00 0,00 0,00 0,00 31/08/2022
176 1460300 ALEXSANDER SAMUEL DE SOUZA GUIMARAES ESTAGIARIO BELO HORIZONTE; DIVISAO DE MANUTENCAO PREDIAL 0,00 0,00 0,00 240,00 0,00 0,00 0,00 0,00 0,00 31/08/2022
177 717800 ALEXSANDER SIQUEIRA SILVA PROMOTOR SUBSTITUTO JEQUITINHONHA - COMARCA; JEQUITINHONHA-PJ-UNPJ 1.333,00 0,00 858,08 0,00 0,00 0,00 0,00 0,00 0,00 31/08/2022
178 1403500 ALEXSANDER SOARES DINIZ JUNIOR ESTAGIARIO BARBACENA; BARBACENA-PJ-01PJ 0,00 0,00 0,00 60,00 723,00 0,00 0,00 0,00 0,00 31/08/2022
179 1481100 ALEXSANDRA GONCALVES DA SILVA ESTAGIARIO BELO HORIZONTE; CAO-FUNDACOES 0,00 0,00 0,00 252,00 0,00 0,00 0,00 0,00 0,00 31/08/2022
180 513300 ALFSON MIRANDA BRAGA ANALISTA DO MP BELO HORIZONTE - COMARCA; BH-12PJ JUIZO CRIMINAL-GAB 087PJ 1.333,00 0,00 578,00 0,00 0,00 0,00 0,00 0,00 0,00 31/08/2022
181 157000 ALI MAHMOUD FAYEZ AYOUB PROMOTOR 2A ENTRANCIA GUAXUPÉ - COMARCA; GUAXUPE-PJ-02PJ 1.333,00 0,00 3.200,47 0,00 21.336,44 0,00 0,00 0,00 488,96 31/08/2022
182 1449300 ALICE ANALIA DIAS FARIA ESTAGIARIO BELO HORIZONTE; BH-23PJ DEF DIR CRIAN ADOL 0,00 0,00 0,00 252,00 0,00 0,00 0,00 0,00 0,00 31/08/2022
183 1178100 ALICE ARAUJO CAMPOS ESTAGIARIO PARACATU; PARACATU-PJ-04PJ 0,00 0,00 0,00 264,00 0,00 0,00 0,00 0,00 0,00 31/08/2022
184 1369100 ALICE DE FREITAS REZENDE TORRES ESTAGIARIO BELO HORIZONTE; GABINETE DE PROCURADOR DE JUSTIÇA - SALA 814
185 485300 ALICE DE MELLO VILELA PROMOT.ENTRANC.ESPECIAL CONTAGEM - COMARCA; CONTAGEM-PJ-06PJ 1.333,00 0,00 937,25 0,00 16.844,55 0,00 0,00 0,00 514,69 31/08/2022
186 1286400 ALICE FARIA TAYACOL ESTAGIARIO ITUIUTABA; ITUIUTABA-PJ-05PJ 0,00 0,00 0,00 252,00 0,00 0,00 0,00 0,00 0,00 31/08/2022
187 1321200 ALICE GOMES AMORIM ESTAGIARIO MONTES CLAROS; MONTES CLAROS-PJ-05PJ 0,00 0,00 0,00 264,00 0,00 0,00 0,00 0,00 0,00 31/08/2022
188 1270700 ALICE LEAO GUERRA ESTAGIARIO JUIZ DE FORA; JUIZ DE FORA-PJ-03PJ 0,00 0,00 0,00 216,00 0,00 0,00 0,00 0,00 0,00 31/08/2022
189 618400 ALICE MAGALHAES MACEDO DE CARVALHO ANALISTA DO MP IPATINGA - COMARCA; IPATINGA-PJ-10PJ 1.333,00 885,30 578,00 0,00 0,00 0,00 0,00 0,00 0,00 31/08/2022
190 707000 ALICE MARIA RIBEIRO DINIZ ASSESSOR PROMOTOR JUSTICA BELO HORIZONTE - COMARCA; PROC JUST ATUACAO TRIBUNAIS SUPERIORES-GAB004 1.333,00 0,00 578,00 0,00 0,00 0,00 0,00 0,00 0,00 31/08/2022
191 471000 ALICE TITONELI MOREIRA ANALISTA DO MP MIRADOURO - COMARCA; MIRADOURO-PJ-UNPJ 1.333,00 885,30 578,00 0,00 0,00 0,00 0,00 0,00 0,00 31/08/2022
192 1347000 ALICIA CAMPOS ARAUJO ESTAGIARIO BELO HORIZONTE; BH-07PJ 03 TRIBUNAL DO JURI-GAB 064PJ 0,00 0,00 0,00 240,00 0,00 0,00 0,00 0,00 0,00 31/08/2022
193 1387100 ALICIA PAULA RODRIGUES DE LIMA ESTAGIARIO TIROS; TIROS-PJ-UNPJ 0,00 0,00 0,00 264,00 0,00 0,00 0,00 0,00 0,00 31/08/2022
194 1303700 ALICIA SOUZA COSTA ESTAGIARIO GOVERNADOR VALADARES; GOVERNADOR VALADARES-PJ-15PJ 0,00 0,00 0,00 264,00 0,00 0,00 0,00 0,00 0,00 31/08/2022
195 725800 ALINE ALBIERI FRANCISCO ASSESSOR PROMOTOR JUSTICA BELO HORIZONTE - COMARCA; CAO-ORDEM ECONOMICA E TRIBUTARIA-ASSESS TECN 1.333,00 0,00 578,00 0,00 0,00 0,00 0,00 0,00 0,00 31/08/2022
196 622400 ALINE BALBINO PORTUGAL LOPES ANALISTA DO MP TRÊS PONTAS - COMARCA; TRES PONTAS-PJ-03PJ 1.333,00 885,30 578,00 0,00 0,00 0,00 0,00 0,00 0,00 31/08/2022
197 373000 ALINE BOTELHO RESENDE OFICIAL DO MP JUIZ DE FORA - COMARCA; JUIZ DE FORA-PJ-22PJ 1.333,00 0,00 578,00 0,00 0,00 0,00 0,00 0,00 0,00 31/08/2022
198 1276000 ALINE BRAGA MESSIAS ESTAGIARIO BELO HORIZONTE; BH-02PJ FAMILIA-GAB 023PJ 0,00 0,00 0,00 96,00 626,53 0,00 0,00 0,00 0,00 31/08/2022
199 1436200 ALINE CARVALHO VIEIRA ESTAGIARIO UBERLANDIA; UBERLANDIA-PJ-23PJ 0,00 0,00 0,00 252,00 0,00 0,00 0,00 0,00 0,00 31/08/2022
200 699800 ALINE CRISTINA DE OLIVEIRA AMARAL BARBOSA ASSESSOR PROCURADOR JUSTICA BELO HORIZONTE - COMARCA; GABINETE DE PROCURADOR DE JUSTIÇA - SALA 904 1.333,00 0,00 578,00 0,00 5.971,91 0,00 0,00 0,00 0,00 31/08/2022
201 407700 ALINE CRISTINA RODRIGUES PEREIRA COORDENADOR II BELO HORIZONTE - COMARCA; DIRETORIA DE PROJETOS DE EDIFICACOES 1.333,00 0,00 578,00 0,00 0,00 0,00 0,00 0,00 0,00 31/08/2022
202 193100 ALINE CRISTINA SENA OLIVEIRA OFICIAL DO MP UBERLÂNDIA - COMARCA; UBERLANDIA-PJ-03PJ 1.333,00 885,30 578,00 0,00 0,00 0,00 0,00 0,00 0,00 31/08/2022
203 554200 ALINE CRISTINA SILVA SOUZA OFICIAL DO MP TIROS - COMARCA; TIROS-PJ-UNPJ 1.333,00 0,00 578,00 0,00 0,00 0,00 0,00 0,00 0,00 31/08/2022
204 505500 ALINE DA CUNHA MARREIROS OLIVEIRA ANALISTA DO MP EUGENÓPOLIS - COMARCA; EUGENOPOLIS-PJ-UNPJ 1.333,00 1.770,60 578,00 0,00 0,00 0,00 0,00 0,00 0,00 31/08/2022
205 433500 ALINE DE MELO QUEIROZ OFICIAL DO MP BELO HORIZONTE - COMARCA; ASSESSORIA JURIDICA DO PROCON-MG 1.333,00 885,30 578,00 0,00 0,00 0,00 0,00 0,00 0,00 31/08/2022
206 691100 ALINE DE MELO SOUZA ASSESSOR PROCURADOR JUSTICA BELO HORIZONTE - COMARCA; GABINETE DE PROCURADOR DE JUSTIÇA - SALA 401 1.333,00 0,00 578,00 0,00 0,00 0,00 0,00 0,00 0,00 31/08/2022
207 542700 ALINE DE SOUSA ALBINO ANALISTA DO MP CONTAGEM - COMARCA; CONTAGEM-PJ-09PJ 1.333,00 0,00 578,00 0,00 0,00 0,00 0,00 0,00 0,00 31/08/2022
208 330000 ALINE DIORIO MAYRINK OFICIAL DO MP BELO HORIZONTE - COMARCA; NUCLEO DE ACORDOS DE NAO PERSECUCAO PENAL BH 1.333,00 0,00 578,00 0,00 0,00 0,00 0,00 0,00 0,00 31/08/2022
209 499000 ALINE FERREIRA LOPES ANALISTA DO MP TEÓFILO OTONI - COMARCA; TEOFILO OTONI-PJ-09PJ 1.333,00 0,00 578,00 0,00 0,00 0,00 0,00 0,00 0,00 31/08/2022
210 405300 ALINE LAIA CARDOZO SUPERINTENDENTE BELO HORIZONTE - COMARCA; SUPERINTENDENCIA LOGISTICA SERVICOS 1.333,00 0,00 578,00 0,00 5.995,90 0,00 0,00 0,00 549,62 31/08/2022
211 278200 ALINE MARCIA FARIA BARBOSA FERNANDES OFICIAL DO MP BARBACENA - COMARCA; BARBACENA-PJ-SECRETARIA 1.333,00 0,00 578,00 0,00 0,00 0,00 0,00 0,00 0,00 31/08/2022
212 1490300 ALINE MENDES CARDOZO ESTAGIARIO CURVELO; CURVELO-PJ-03PJ 0,00 0,00 0,00 180,00 0,00 0,00 0,00 0,00 0,00 31/08/2022
213 1334100 ALINE MORGANE DE SOUZA ESTAGIARIO VARZEA DA PALMA; VARZEA DA PALMA-PJ-02PJ 0,00 0,00 0,00 204,00 0,00 0,00 0,00 0,00 0,00 31/08/2022
214 389000 ALINE NERI NOBRE ANALISTA DO MP MONTES CLAROS - COMARCA; COORD REG PJ DEF EDUC DIR CRIANCA ADOL NORTE 1.333,00 0,00 578,00 0,00 0,00 0,00 0,00 0,00 0,00 31/08/2022
215 294600 ALINE PATRICIA SILVA VIEIRA OFICIAL DO MP UBERLÂNDIA - COMARCA; UBERLANDIA-PJ-03PJ 1.333,00 0,00 578,00 0,00 0,00 0,00 1.580,00 0,00 0,00 31/08/2022
216 420000 ALINE RODRIGUES CAMOROPIN ANALISTA DO MP SABARÁ - COMARCA; SABARA-PJ-02PJ 1.333,00 0,00 578,00 0,00 0,00 0,00 0,00 0,00 0,00 31/08/2022
217 715800 ALINE SANTOS PEDROSA MAIA BARBOSA ASSESSOR PROCURADOR JUSTICA BELO HORIZONTE - COMARCA; GABINETE DE PROCURADOR DE JUSTIÇA - SALA 1010 1.333,00 0,00 578,00 0,00 0,00 0,00 0,00 0,00 0,00 31/08/2022
218 699600 ALINE SEPULVEDA ROSA PIRES ASSESSOR PROCURADOR JUSTICA BELO HORIZONTE - COMARCA; GABINETE DE PROCURADOR DE JUSTIÇA - SALA 905 1.333,00 0,00 578,00 0,00 0,00 0,00 0,00 0,00 0,00 31/08/2022
219 408300 ALINE SILVA ARAUJO DE PAULA ANALISTA DO MP SÃO SEBASTIÃO DO PARAÍSO - COMARCA; SAO SEBASTIAO DO PARAISO-PJ-02PJ 1.333,00 0,00 578,00 0,00 0,00 0,00 0,00 0,00 0,00 31/08/2022
220 665900 ALINE SILVA BARROS PROMOTOR 2A ENTRANCIA VARZEA DA PALMA - COMARCA; VARZEA DA PALMA-PJ-01PJ 1.333,00 0,00 773,24 0,00 16.002,33 0,00 0,00 0,00 488,96 31/08/2022
221 1182600 ALINE SILVA MONTOVANI ESTAGIARIO VARGINHA; VARGINHA-PJ-07PJ 0,00 0,00 0,00 264,00 0,00 0,00 0,00 0,00 0,00 31/08/2022
222 1323500 ALINE SIMAO DE PAULA ESTAGIARIO BELO HORIZONTE; PROC. JUSTICA DIR. DIFUSOS E COLETIVOS
223 425400 ALINE TRINDADE DE FREITAS CAMPOS OFICIAL DO MP BELO HORIZONTE - COMARCA; BH-14PJ DEFESA CONSUMIDOR-SECRETARIA 1.333,00 0,00 578,00 0,00 0,00 0,00 0,00 0,00 0,00 31/08/2022
224 1334800 ALINE VICTORIA SILVA MENDES ESTAGIARIO CONSELHEIRO LAFAIETE; CONSELHEIRO LAFAIETE-PJ-08PJ 0,00 0,00 0,00 264,00 0,00 0,00 0,00 0,00 0,00 31/08/2022
225 1367500 ALINY CRISTINA RODRIGUES ESTAGIARIO BELO HORIZONTE; BH-23PJ CIVEL-SETOR JURIDICO 0,00 0,00 0,00 252,00 0,00 0,00 0,00 0,00 0,00 31/08/2022
226 1255800 ALISANGELA DIAS DE SOUZA ESTAGIARIO 0,00 0,00 0,00 264,00 0,00 0,00 0,00 0,00 0,00 31/08/2022
227 517200 ALISSOM PEREIRA DA SILVA ANALISTA DO MP BORDA DA MATA - COMARCA; BORDA DA MATA-PJ-UNPJ 1.333,00 885,30 578,00 0,00 0,00 0,00 0,00 0,00 0,00 31/08/2022
228 1335600 ALISSON BRENNER ALVES DE OLIVEIRA ESTAGIARIO SALINAS; SALINAS-PJ-01PJ 0,00 0,00 0,00 252,00 0,00 0,00 0,00 0,00 0,00 31/08/2022
229 442400 ALISSON LABRE ANALISTA DO MP VARGINHA - COMARCA; VARGINHA-PJ-03PJ 1.333,00 0,00 578,00 0,00 0,00 0,00 0,00 0,00 0,00 31/08/2022
230 643800 ALLAN PAUL FONSECA DE CASTRO OFICIAL DO MP CONTAGEM - COMARCA; CONTAGEM-PJ-SECRETARIA 1.333,00 885,30 578,00 0,00 0,00 0,00 0,00 0,00 0,00 31/08/2022
231 612900 ALLAN VINICIUS VIEIRA ARAUJO COORDENADOR II BELO HORIZONTE - COMARCA; DIRETORIA DE GESTAO DOCUMENTAL 1.333,00 0,00 578,00 0,00 0,00 0,00 0,00 0,00 0,00 31/08/2022
232 1275700 ALLAN WILIAN PRATES PINTO FIDELES ESTAGIARIO CURVELO; CURVELO-PJ-04PJ 0,00 0,00 0,00 264,00 0,00 0,00 0,00 0,00 0,00 31/08/2022
233 1406800 ALLANA LUISA PIRES DA CUNHA ESTAGIARIO TRES MARIAS; TRES MARIAS-PJ-UNPJ 0,00 0,00 0,00 264,00 0,00 0,00 0,00 0,00 0,00 31/08/2022
234 349000 ALLEC RODRIGUES VIEIRA OFICIAL DO MP CAPINÓPOLIS - COMARCA; CAO-CIVEL 1.333,00 0,00 578,00 0,00 0,00 0,00 0,00 0,00 0,00 31/08/2022
235 532400 ALLENDER BARRETO LIMA DA SILVA PROMOTOR 1A ENTRANCIA BELO HORIZONTE - COMARCA; COORD COMB RACISMO E TODA FORM DISCRIM 1.333,00 0,00 820,10 0,00 0,00 0,00 0,00 0,00 0,00 31/08/2022
236 297300 ALLYSON SALIBA MONTEIRO LAIZO ANALISTA DO MP CONSELHEIRO LAFAIETE - COMARCA; CONSELHEIRO LAFAIETE-PJ-03PJ 1.333,00 885,30 578,00 0,00 0,00 0,00 0,00 0,00 0,00 31/08/2022
237 68900 ALMIR ALVES MOREIRA PROCURADOR DE JUSTICA BELO HORIZONTE - COMARCA; GABINETE DE PROCURADOR DE JUSTIÇA - SALA 1012 1.333,00 0,00 2.694,61 0,00 17.731,11 0,00 0,00 0,00 541,78 31/08/2022
238 226601 ALMIR GERALDO GUIMARAES PROMOTOR 2A ENTRANCIA MATEUS LEME - COMARCA; MATEUS LEME-PJ-02PJ 1.333,00 0,00 3.200,47 0,00 16.002,33 0,00 0,00 0,00 488,96 31/08/2022
239 303700 ALMIR LOPES LOURES ANALISTA DO MP BELO HORIZONTE - COMARCA; CENTRAL DE APOIO TECN-SETOR DE MEIO AMBIENTE 1.333,00 0,00 578,00 0,00 0,00 0,00 0,00 0,00 0,00 31/08/2022
240 440700 ALOISIO CUNHA SOARES JUNIOR PROMOTOR 2A ENTRANCIA PATROCÍNIO - COMARCA; PATROCINIO-PJ-04PJ 1.333,00 0,00 2.225,98 0,00 16.002,32 0,00 0,00 0,00 488,96 31/08/2022
241 90600 ALOISIO RABELO DE REZENDE PROMOT.ENTRANC.ESPECIAL VARGINHA - COMARCA; VARGINHA-PJ-01PJ 1.333,00 0,00 2.928,92 0,00 16.844,55 0,00 0,00 0,00 514,69 31/08/2022
242 696600 ALOIZIO MARTINS JALES JUNIOR ASSESSOR PROMOTOR JUSTICA CAMPESTRE - COMARCA; CAMPESTRE-PJ-SECRETARIA 1.333,00 0,00 578,00 0,00 0,00 0,00 0,00 0,00 0,00 31/08/2022
243 515900 ALTAIR NEVES JUNIOR OFICIAL DO MP BELO HORIZONTE - COMARCA; BH-01PJ FAZENDA PUBLICA-SECRETARIA 1.333,00 0,00 578,00 0,00 0,00 0,00 0,00 0,00 0,00 31/08/2022
244 290800 ALUISIA BERALDO RIBEIRO PROMOT.ENTRANC.ESPECIAL UBERLÂNDIA - COMARCA; UBERLANDIA-PJ-14PJ 1.333,00 0,00 1.546,47 0,00 16.844,55 0,00 0,00 0,00 514,69 31/08/2022
245 233300 ALVARINDO BATISTA ANALISTA DO MP BELO HORIZONTE - COMARCA; NUCLEO APOIO TECNICO ESP COMUNICACAO 1.333,00 885,30 578,00 0,00 0,00 0,00 0,00 0,00 0,00 31/08/2022
246 1402600 ALVARO ARCANJO SILVA PEREIRA ESTAGIARIO FERROS; FERROS-PJ-UNPJ 0,00 0,00 0,00 240,00 0,00 0,00 0,00 0,00 0,00 31/08/2022
247 1440700 ALVARO AUGUSTO RODRIGUES E SILVA ESTAGIARIO UBERLANDIA; GAECO REGIONAL DE UBERLANDIA 0,00 0,00 0,00 252,00 0,00 0,00 0,00 0,00 0,00 31/08/2022
248 1171700 ALVIM JUNIO DE LIMA ESTAGIARIO BARBACENA; BARBACENA-PJ-02PJ 0,00 0,00 0,00 168,00 0,00 0,00 0,00 0,00 0,00 31/08/2022
249 1216900 ALYNE MARIA EMERICK RABELO ESTAGIARIO MANHUMIRIM; MANHUMIRIM-PJ-01PJ 0,00 0,00 0,00 264,00 0,00 0,00 0,00 0,00 0,00 31/08/2022
250 344400 ALYSSON CARDOZO CEMBRANEL PROMOT.ENTRANC.ESPECIAL BELO HORIZONTE - COMARCA; BH-13ª PJ JUÍXO DE TÓXICOS 1.333,00 0,00 1.710,49 0,00 16.844,55 0,00 0,00 0,00 514,69 31/08/2022
251 274100 ALYSSON CARVALHO VIDAL DE LACERDA OFICIAL DO MP MANHUAÇU - COMARCA; MANHUACU-PJ-01PJ 1.333,00 0,00 578,00 0,00 0,00 0,00 0,00 0,00 0,00 31/08/2022
252 1410600 AMANDA APARECIDA DE SOUZA SOARES ESTAGIARIO LAJINHA; LAJINHA-PJ-UNPJ 0,00 0,00 0,00 264,00 0,00 0,00 0,00 0,00 0,00 31/08/2022
253 621000 AMANDA BASTOS ALVES ANALISTA DO MP BELO HORIZONTE - COMARCA; BH-07PJ 02 TRIBUNAL DO JURI-GAB 066PJ 1.333,00 0,00 578,00 0,00 0,00 0,00 0,00 0,00 0,00 31/08/2022
254 1253500 AMANDA CAROLINE DIAS GONCALVES ESTAGIARIO PATROCINIO; PATROCINIO-PJ-05PJ 0,00 0,00 0,00 252,00 0,00 0,00 0,00 0,00 0,00 31/08/2022
255 1220800 AMANDA CAROLINY GONCALVES FONSECA ESTAGIARIO RIBEIRAO DAS NEVES; RIBEIRAO DAS NEVES-PJ-07PJ 0,00 0,00 0,00 252,00 0,00 0,00 0,00 0,00 0,00 31/08/2022
256 1444400 AMANDA CARVALHO BORGES PEREIRA VALLE ESTAGIARIO ARAXA; ARAXA-PJ-01PJ 0,00 0,00 0,00 204,00 0,00 0,00 0,00 0,00 0,00 31/08/2022
257 1284600 AMANDA CHRISTINA OLIVEIRA DA SILVA ESTAGIARIO BELO HORIZONTE; PROC JUST ATUACAO TRIBUNAIS SUPERIORES-GAB006 0,00 0,00 0,00 240,00 0,00 0,00 0,00 0,00 0,00 31/08/2022
258 521700 AMANDA CRISTINA AGUIAR MACHADO OFICIAL DO MP CONGONHAS - COMARCA; CONGONHAS-PJ-01PJ 1.333,00 0,00 578,00 0,00 1.285,37 0,00 0,00 0,00 117,83 31/08/2022
259 1297200 AMANDA CRISTINA GONCALVES ESTAGIARIO BELO HORIZONTE; COORD DE INCLUSAO E MOBILIZACAO SOCIAIS 0,00 0,00 0,00 24,00 144,80 0,00 0,00 0,00 0,00 31/08/2022
260 1322900 AMANDA DA SILVA BRAGA ESTAGIARIO BELO HORIZONTE; BH-18PJ VIOLENCIA DOMESTICA-GAB 177PJ 0,00 0,00 0,00 252,00 0,00 0,00 0,00 0,00 0,00 31/08/2022
261 713900 AMANDA DE ARAUJO CARVALHO ASSESSOR PROMOTOR JUSTICA ARAÇUAÍ - COMARCA; ARACUAI-PJ-01PJ 1.333,00 0,00 578,00 0,00 0,00 0,00 0,00 0,00 0,00 31/08/2022
262 613400 AMANDA DE ASSIS IUNES SANTOS ANALISTA DO MP CONGONHAS - COMARCA; CONGONHAS-PJ-01PJ 1.333,00 0,00 578,00 0,00 0,00 0,00 0,00 0,00 0,00 31/08/2022
263 695900 AMANDA DE OLIVEIRA ASSESSOR PROCURADOR JUSTICA BELO HORIZONTE - COMARCA; PROC JUST ATUACAO TRIBUNAIS SUPERIORES-GAB004 1.333,00 0,00 578,00 0,00 0,00 0,00 0,00 0,00 0,00 31/08/2022
264 1468700 AMANDA DE OLIVEIRA PEIXOTO LOPES ESTAGIARIO DORES DO INDAIA; DORES DO INDAIA-PJ-UNPJ 0,00 0,00 0,00 252,00 0,00 0,00 0,00 0,00 0,00 31/08/2022
265 520800 AMANDA DE SOUZA MACHADO ANALISTA DO MP BAEPENDI - COMARCA; BAEPENDI-PJ-UNPJ 1.333,00 0,00 578,00 0,00 0,00 0,00 0,00 0,00 0,00 31/08/2022
266 663900 AMANDA DENISE GONCALVES DA SILVA ASSESSOR ADMINISTRATIVO I BELO HORIZONTE - COMARCA; SUPER DE GESTAO DE PESSOAS-LOTACAO TEMPORARIA 1.333,00 0,00 578,00 0,00 0,00 0,00 0,00 0,00 0,00 31/08/2022
267 1479900 AMANDA DILASCIO RIBEIRO FICHE ESTAGIARIO SAO JOAO DEL REI; SAO JOAO DEL REI-PJ-01PJ 0,00 0,00 0,00 252,00 0,00 0,00 0,00 0,00 0,00 31/08/2022
268 1183300 AMANDA GABRIELA GONCALVES DE MIRANDA ESTAGIARIO BETIM; BETIM-PJ-04PJ 0,00 0,00 0,00 96,00 0,00 0,00 0,00 0,00 0,00 31/08/2022
269 1378200 AMANDA KAROLINE DIAS SANTOS ESTAGIARIO CONTAGEM; CONTAGEM-PJ-21PJ 0,00 0,00 0,00 252,00 0,00 0,00 0,00 0,00 0,00 31/08/2022
270 677000 AMANDA LETICIA MESSIAS PEGO ASSESSOR PROMOTOR JUSTICA CORAÇÃO DE JESUS - COMARCA; CORACAO DE JESUS-PJ-UNPJ 1.333,00 0,00 578,00 0,00 1.885,86 0,00 0,00 0,00 172,87 31/08/2022
271 666000 AMANDA MERLINI DUTRA OSIPE PROMOTOR SUBSTITUTO CATAGUASES - COMARCA; CATAGUASES-PJ-01PJ 1.333,00 0,00 2.061,97 0,00 0,00 0,00 0,00 0,00 0,00 31/08/2022
272 1157400 AMANDA MIQUELINO RIBEIRO ESTAGIARIO UBERABA; UBERABA-PJ-13PJ 0,00 0,00 0,00 108,00 1.253,07 0,00 0,00 0,00 0,00 31/08/2022
273 1367200 AMANDA MOREIRA MOTA DA SILVA ESTAGIARIO UBERLANDIA; UBERLANDIA-PJ-24PJ 0,00 0,00 0,00 252,00 0,00 0,00 0,00 0,00 0,00 31/08/2022
274 1439300 AMANDA NUNES SOUSA ESTAGIARIO LAVRAS; LAVRAS-PJ-02PJ 0,00 0,00 0,00 240,00 0,00 0,00 0,00 0,00 0,00 31/08/2022
275 1495000 AMANDA SOUZA SILVA ESTAGIARIO GOVERNADOR VALADARES; GOVERNADOR VALADARES-PJ-14PJ 0,00 0,00 0,00 132,00 0,00 0,00 0,00 0,00 0,00 31/08/2022
276 1289800 AMANDA STARLING DE AZEVEDO BAHIA ESTAGIARIO BELO HORIZONTE; BH-02PJ FAMILIA-GAB 033PJ 0,00 0,00 0,00 24,00 362,08 0,00 0,00 0,00 0,00 31/08/2022
277 1468200 AMANDA VIEIRA FREIRE ESTAGIARIO BELO HORIZONTE; BH-13PJ JUIZO DE TOXICOS-GAB 079PJ 0,00 0,00 0,00 252,00 0,00 0,00 0,00 0,00 0,00 31/08/2022
278 543100 AMANDA VIEIRA FREITAS BRESSANE ANALISTA DO MP VARGINHA - COMARCA; COORD REG DEF ORDEM ECON TRIB VARGINHA 1.333,00 0,00 578,00 0,00 0,00 0,00 0,00 0,00 0,00 31/08/2022
279 1385400 AMANDA VITORIA SANTOS DIAS ESTAGIARIO JANAUBA; JANAUBA-PJ-03PJ 0,00 0,00 0,00 264,00 0,00 0,00 0,00 0,00 0,00 31/08/2022
280 656701 AMARILDO ODILON REZENDE DE AGUIAR INVESTIGADOR DE POLICIA 2 BELO HORIZONTE - COMARCA; CAO-ORDEM ECONOMICA E TRIBUTARIA 1.333,00 0,00 0,00 0,00 0,00 0,00 0,00 0,00 0,00 31/08/2022
281 434400 AMARILIS ASSIS SIMAO CURCIO ANALISTA DO MP BELO HORIZONTE - COMARCA; DIRETORIA GESTAO COMPRAS LICITACOES 1.333,00 0,00 578,00 0,00 0,00 0,00 0,00 0,00 0,00 31/08/2022
282 652000 AMAURI SILVA ALVES ASSESSOR ADMINISTRATIVO III BELO HORIZONTE - COMARCA; BH-23PJ INFRACIONAL-SEC EXP 1.333,00 0,00 578,00 0,00 0,00 0,00 0,00 0,00 949,44 31/08/2022
283 58000 AMELIA GUARIZE DE CASTRO OFICIAL DO MP JUIZ DE FORA - COMARCA; JUIZ DE FORA-PJ-SECRETARIA 1.333,00 0,00 578,00 0,00 0,00 0,00 0,00 0,00 0,00 31/08/2022
284 324301 AMERICA SUELI FERREIRA DA SILVA ANALISTA DO MP UBERLÂNDIA - COMARCA; UBERLANDIA-PJ-02PJ 1.333,00 0,00 578,00 0,00 0,00 0,00 0,00 0,00 0,00 31/08/2022
285 273300 AMUJACY DE BRITO ASSIZ OFICIAL DO MP BELO HORIZONTE - COMARCA; BH-12PJ JUIZO CRIMINAL-SECRETARIA 1.333,00 0,00 578,00 0,00 0,00 0,00 0,00 0,00 0,00 31/08/2022
286 482200 ANA ALICE LOPES ACHTSCHIN ANALISTA DO MP BELO HORIZONTE - COMARCA; PROC JUST ATUACAO TRIBUNAIS SUPERIORES-GAB002 1.333,00 0,00 578,00 0,00 0,00 0,00 0,00 0,00 0,00 31/08/2022
287 490400 ANA AMELIA PAULINO GARCIA OFICIAL DO MP CONTAGEM - COMARCA; CONTAGEM-PJ-SECRETARIA 1.333,00 885,30 578,00 0,00 0,00 0,00 0,00 0,00 0,00 31/08/2022
288 690400 ANA ANGELICA MOREIRA DA CUNHA ASSESSOR PROMOTOR JUSTICA TIMÓTEO - COMARCA; TIMOTEO-PJ-02PJ 1.333,00 0,00 578,00 0,00 0,00 0,00 0,00 0,00 0,00 31/08/2022
289 671300 ANA BARBARA CANEDO OLIVEIRA PROMOTOR 2A ENTRANCIA ALMENARA - COMARCA; ALMENARA-PJ-02PJ 1.333,00 0,00 820,10 0,00 16.002,33 0,00 0,00 0,00 488,96 31/08/2022
290 1471000 ANA BEATRIZ BARBOSA RODRIGUES ESTAGIARIO POUSO ALEGRE; POUSO ALEGRE-PJ-04PJ 0,00 0,00 0,00 156,00 0,00 0,00 0,00 0,00 0,00 31/08/2022
291 1440100 ANA BEATRIZ DE SOUZA ARCANJO BASTOS ESTAGIARIO NOVA ERA; NOVA ERA-PJ-UNPJ 0,00 0,00 0,00 252,00 0,00 0,00 0,00 0,00 0,00 31/08/2022
292 1280900 ANA BEATRIZ DIAS DE AZEVEDO ESTAGIARIO POUSO ALEGRE; POUSO ALEGRE-PJ-06PJ 0,00 0,00 0,00 144,00 0,00 0,00 0,00 0,00 0,00 31/08/2022
293 714900 ANA BEATRIZ LOBATO ALVES DE CARVALHO ASSESSOR PROCURADOR JUSTICA BELO HORIZONTE - COMARCA; GABINETE DE PROCURADOR DE JUSTIÇA - SALA 303 1.333,00 0,00 578,00 0,00 0,00 0,00 0,00 0,00 0,00 31/08/2022
294 1477500 ANA CARLA GOMES ALVES ESTAGIARIO PASSOS; PASSOS-PJ-04PJ 0,00 0,00 0,00 228,00 0,00 0,00 0,00 0,00 0,00 31/08/2022
295 1211700 ANA CARLA LIMA REIS ESTAGIARIO TEIXEIRAS; TEIXEIRAS-PJ-UNPJ 0,00 0,00 0,00 264,00 0,00 0,00 0,00 0,00 0,00 31/08/2022
296 715000 ANA CARLA RODRIGUES DE SOUZA ASSESSOR PROMOTOR JUSTICA TRÊS CORACOES - COMARCA; TRES CORACOES-PJ-01PJ 1.333,00 0,00 578,00 0,00 0,00 0,00 0,00 0,00 0,00 31/08/2022
297 723200 ANA CAROLINA AMABILE ALVES INVESTIGADOR DE POLICIA 2 1.333,00 0,00 0,00 0,00 0,00 0,00 0,00 0,00 0,00 31/08/2022
298 279100 ANA CAROLINA ARAUJO PEREIRA ANALISTA DO MP BELO HORIZONTE - COMARCA; DIRETORIA DE PROJETOS DE EDIFICACOES 1.333,00 0,00 578,00 0,00 5.349,39 0,00 0,00 0,00 490,36 31/08/2022
299 1460200 ANA CAROLINA BARBOSA FERNANDES ESTAGIARIO ITUIUTABA; ITUIUTABA-PJ-04PJ 0,00 0,00 0,00 252,00 0,00 0,00 0,00 0,00 0,00 31/08/2022
300 653300 ANA CAROLINA CYRNE DINIZ ASSESSOR ADMINISTRATIVO III BELO HORIZONTE - COMARCA; CENTRAL DE APOIO TECNICO-SETOR CONTABIL 1.333,00 0,00 578,00 0,00 0,00 0,00 0,00 0,00 0,00 31/08/2022
301 1165800 ANA CAROLINA DA COSTA ESTAGIARIO SAO JOAO EVANGELISTA; SAO JOAO EVANGELISTA-PJ-UNPJ 0,00 0,00 0,00 252,00 0,00 0,00 0,00 0,00 0,00 31/08/2022
302 359400 ANA CAROLINA DE ABREU FARIA ASSESSOR ADMINISTRATIVO IV BELO HORIZONTE - COMARCA; SUPERINTENDÊNCIA DE ENGENHARIA E ARQUITETURA 1.333,00 885,30 578,00 0,00 0,00 0,00 0,00 0,00 0,00 31/08/2022
303 408500 ANA CAROLINA DE CASTRO CARVALHO ANALISTA DO MP BARBACENA - COMARCA; BARBACENA - SECRETARIA DAS PJS CRIMINAIS 1.333,00 885,30 578,00 0,00 0,00 0,00 0,00 0,00 0,00 31/08/2022
304 1487500 ANA CAROLINA DE MELO MARTINS ESTAGIARIO CABO VERDE; CABO VERDE-PJ-UNPJ 0,00 0,00 0,00 180,00 0,00 0,00 0,00 0,00 0,00 31/08/2022
305 688000 ANA CAROLINA DE OLIVEIRA PINTO ASSESSOR PROCURADOR JUSTICA BELO HORIZONTE - COMARCA; GABINETE DE PROCURADOR DE JUSTIÇA - SALA 1005 1.333,00 0,00 578,00 0,00 0,00 0,00 0,00 0,00 0,00 31/08/2022
306 1446300 ANA CAROLINA DE PAULA SANTOS ESTAGIARIO UBERLANDIA; UBERLANDIA-PJ-02PJ 0,00 0,00 0,00 228,00 0,00 0,00 0,00 0,00 0,00 31/08/2022
307 1252200 ANA CAROLINA DE SOUZA SOBRAL ESTAGIARIO BELO HORIZONTE; BH-08PJ JUIZADO ESPECIAL-GAB 051PJ 0,00 0,00 0,00 252,00 0,00 0,00 0,00 0,00 0,00 31/08/2022
308 598900 ANA CAROLINA DUARTE DA SILVA INVESTIGADOR DE POLICIA 2 BELO HORIZONTE - COMARCA; PROC JUST ESP ACOES COMP ORIG CRIMINAL-SEC 1.333,00 0,00 0,00 0,00 0,00 0,00 0,00 0,00 7,49 31/08/2022
309 1379400 ANA CAROLINA ETCHEBERE LIMA ESTAGIARIO SACRAMENTO; SACRAMENTO-PJ-01PJ 0,00 0,00 0,00 204,00 0,00 0,00 0,00 0,00 0,00 31/08/2022
310 420200 ANA CAROLINA FERNANDES SILVA ANALISTA DO MP BELO HORIZONTE - COMARCA; GABINETE DE PROCURADOR DE JUSTIÇA - SALA 704 1.333,00 0,00 578,00 0,00 5.462,20 0,00 0,00 0,00 500,70 31/08/2022
311 522100 ANA CAROLINA FERNANDINO VIDAL PEREIRA SANTOS OFICIAL DO MP BELO HORIZONTE - COMARCA; SECRETARIA DO PROCON-MG 1.333,00 0,00 578,00 0,00 0,00 0,00 0,00 0,00 0,00 31/08/2022
312 716000 ANA CAROLINA FIGUEIREDO SILVA ASSESSOR PROCURADOR JUSTICA BELO HORIZONTE - COMARCA; PROC JUST ATUACAO TRIBUNAIS SUPERIORES-GAB001 1.333,00 0,00 578,00 0,00 0,00 0,00 0,00 0,00 0,00 31/08/2022
313 244700 ANA CAROLINA GARCIA COSTA PROMOT.ENTRANC.ESPECIAL BELO HORIZONTE - COMARCA; BH-23PJ INFRACIONAL-GAB 147PJ 1.333,00 0,00 3.147,66 0,00 16.844,55 0,00 0,00 0,00 514,69 31/08/2022
314 1313100 ANA CAROLINA GOMES SANTOS ESTAGIARIO MONTES CLAROS; COORD REG PJ DEF EDUC DIR CRIANCA ADOL NORTE 0,00 0,00 0,00 252,00 0,00 0,00 0,00 0,00 0,00 31/08/2022
315 502400 ANA CAROLINA GONCALVES FERNANDES ANALISTA DO MP IPATINGA - COMARCA; IPATINGA-PJ-01PJ 1.333,00 1.770,60 578,00 0,00 0,00 0,00 0,00 0,00 0,00 31/08/2022
316 529900 ANA CAROLINA GONCALVES PECANHA CHEQUER ANALISTA DO MP MANHUAÇU - COMARCA; MANHUACU-PJ-04PJ 1.333,00 1.770,60 578,00 0,00 0,00 0,00 0,00 0,00 0,00 31/08/2022
317 1475500 ANA CAROLINA MARQUES DE SOUZA ESTAGIARIO BELO HORIZONTE; PROMOT ESTADUAL DE DEF PATRI CULT E TUR DE MG 0,00 0,00 0,00 60,00 0,00 0,00 0,00 0,00 0,00 31/08/2022
318 1391500 ANA CAROLINA MARQUES RAMOS ESTAGIARIO BRUMADINHO; BRUMADINHO-PJ-02PJ 0,00 0,00 0,00 252,00 0,00 0,00 0,00 0,00 0,00 31/08/2022
319 1202400 ANA CAROLINA MARTINS DE ANDRADE ESTAGIARIO UBA; UBA-PJ-02PJ 0,00 0,00 0,00 264,00 0,00 0,00 0,00 0,00 0,00 31/08/2022
320 711300 ANA CAROLINA MOREIRA GOMES ASSESSOR PROMOTOR JUSTICA BELO HORIZONTE - COMARCA; COORD ESTADUAL DAS PJS DE HAB. E URBANISMO 1.333,00 0,00 578,00 0,00 0,00 0,00 0,00 0,00 0,00 31/08/2022
321 431900 ANA CAROLINA MOTTA GUATIMOSIM ANALISTA DO MP BELO HORIZONTE - COMARCA; ASSESSORIA JURIDICO-ADMINISTRATIVA 1.333,00 885,30 578,00 0,00 0,00 0,00 0,00 0,00 0,00 31/08/2022
322 1491200 ANA CAROLINA OLIVEIRA DINIZ ESTAGIARIO CONTAGEM; CONTAGEM-PJ-20PJ 0,00 0,00 0,00 120,00 0,00 0,00 0,00 0,00 0,00 31/08/2022
323 1464400 ANA CAROLINA PEREIRA BARBOSA DE ARAUJO ESTAGIARIO MUTUM; MUTUM-PJ-UNPJ 0,00 0,00 0,00 252,00 0,00 0,00 0,00 0,00 0,00 31/08/2022
324 1461800 ANA CAROLINA PORTO SEGURO CAMPOS COELHO ESTAGIARIO BELO HORIZONTE; BH-26 CRIME CONT CRIAN ADOL-GAB 169PJ 0,00 0,00 0,00 216,00 0,00 0,00 0,00 0,00 0,00 31/08/2022
325 1249200 ANA CAROLINA TEIXEIRA PERUSSIO PAIVA ESTAGIARIO JUIZ DE FORA; COORD REG PJ DEF EDU DIR CRIAN ADOL ZONA MATA 0,00 0,00 0,00 264,00 0,00 0,00 0,00 0,00 0,00 31/08/2022
326 490600 ANA CAROLINA XAVIER GODOY ANALISTA DO MP BELO HORIZONTE - COMARCA; BH-18PJ DIREITOS HUMANOS-SECRETARIA 1.333,00 1.770,60 578,00 0,00 0,00 0,00 0,00 0,00 0,00 31/08/2022
327 313700 ANA CAROLINA ZAMBOM PINTO COELHO PROMOT.ENTRANC.ESPECIAL BELO HORIZONTE - COMARCA; COORD ESTADUAL DE DEFESA DA EDUCACAO 1.333,00 0,00 1.405,88 0,00 16.844,55 0,00 0,00 0,00 514,69 31/08/2022
328 1220900 ANA CAROLINE CARVALHO MARTINS ESTAGIARIO IPATINGA; IPATINGA-PJ-01PJ 0,00 0,00 0,00 204,00 0,00 0,00 0,00 0,00 0,00 31/08/2022
329 1501100 ANA CAROLINE DE OLIVEIRA ESTAGIARIO 0,00 0,00 0,00 24,00 0,00 0,00 0,00 0,00 0,00 31/08/2022
330 600300 ANA CAROLINE PEREIRA DINIZ ANALISTA DO MP BELO HORIZONTE - COMARCA; PROC JUST ESP ACOES COMP ORIG CRIMINAL-SEC 1.333,00 885,30 578,00 0,00 0,00 0,00 0,00 0,00 0,00 31/08/2022
331 615800 ANA CAROLINE PEREIRA OLIVEIRA OFICIAL DO MP ALFENAS - COMARCA; ALFENAS-PJ-06PJ 1.333,00 0,00 578,00 0,00 0,00 0,00 0,00 0,00 0,00 31/08/2022
332 1357300 ANA CAROLINE RIBEIRO PRATES ESTAGIARIO 0,00 0,00 0,00 204,00 0,00 0,00 0,00 0,00 0,00 31/08/2022
333 1209600 ANA CAROLINE RODRIGUES DOS SANTOS ESTAGIARIO 0,00 0,00 0,00 252,00 0,00 0,00 0,00 0,00 0,00 31/08/2022
334 1389400 ANA CAROLINE SOARES GOMES ESTAGIARIO SAO DOMINGOS DO PRATA; SAO DOMINGOS DO PRATA-PJ-UNPJ 0,00 0,00 0,00 228,00 0,00 0,00 0,00 0,00 0,00 31/08/2022
335 717900 ANA CATHARINA MACHADO NORMANTON PROMOTOR SUBSTITUTO UBERABA - COMARCA; UBERABA-PJ-04PJ 1.333,00 0,00 3.040,44 0,00 0,00 0,00 0,00 0,00 0,00 31/08/2022
336 229202 ANA CECILIA JUNQUEIRA GOUVEA PROMOT.ENTRANC.ESPECIAL RIBEIRÃO DAS NEVES - COMARCA; RIBEIRAO DAS NEVES-PJ-08PJ 1.333,00 0,00 2.390,00 0,00 5.614,85 0,00 0,00 0,00 514,69 31/08/2022
337 324800 ANA CECILIA MENDES DA SILVA OFICIAL DO MP OURO FINO - COMARCA; OURO FINO-PJ-01PJ 1.333,00 0,00 578,00 0,00 0,00 0,00 0,00 0,00 0,00 31/08/2022
338 1154400 ANA CLARA DE SOUZA II ESTAGIARIO ARAXA; ARAXA-PJ-03PJ 0,00 0,00 0,00 36,00 579,17 0,00 0,00 0,00 0,00 31/08/2022
339 1327400 ANA CLARA DOS SANTOS PEREIRA ESTAGIARIO SETE LAGOAS; SETE LAGOAS-PJ-11PJ 0,00 0,00 0,00 228,00 0,00 0,00 0,00 0,00 0,00 31/08/2022
340 1480700 ANA CLARA DRUMMOND ARTHUSO ESTAGIARIO BELO HORIZONTE; GABINETE DE PROCURADOR DE JUSTIÇA - SALA 609 0,00 0,00 0,00 204,00 0,00 0,00 0,00 0,00 0,00 31/08/2022
341 1465500 ANA CLARA GONCALVES FANTECELE VIEIRA ESTAGIARIO BELO HORIZONTE; GABINETE DE PROCURADOR DE JUSTIÇA - SALA 914 0,00 0,00 0,00 240,00 0,00 0,00 0,00 0,00 73,33 31/08/2022
342 1480400 ANA CLARA GRECO VILLANI MARQUES ESTAGIARIO BELO HORIZONTE; BH-23PJ INFRACIONAL-GAB 144PJ 0,00 0,00 0,00 252,00 0,00 0,00 0,00 0,00 0,00 31/08/2022
343 1384200 ANA CLARA GUIMARAES ROSA ESTAGIARIO CONTAGEM; CONTAGEM-PJ-06PJ 0,00 0,00 0,00 96,00 0,00 0,00 0,00 0,00 0,00 31/08/2022
344 704100 ANA CLARA MARTINS ALBUQUERQUE ASSESSOR ADMINISTRATIVO I BELO HORIZONTE - COMARCA; CAO-CRIANCAS E ADOLESCENTES-ASS TECNICA 1.333,00 0,00 578,00 0,00 0,00 0,00 0,00 0,00 0,00 31/08/2022
345 1322000 ANA CLARA RESGALA BARTHOLDY ESTAGIARIO BELO HORIZONTE; PROC. JUSTICA DIR. DIFUSOS E COLETIVOS 0,00 0,00 0,00 84,00 0,00 0,00 0,00 0,00 0,00 31/08/2022
346 698700 ANA CLARA SANTOS ALMEIDA ASSESSOR PROMOTOR JUSTICA SABINÓPOLIS - COMARCA; SABINOPOLIS-PJ-UNPJ 1.333,00 0,00 578,00 0,00 0,00 0,00 0,00 0,00 0,00 31/08/2022
347 441300 ANA CLAUDIA ALKIMIM MIRANDA BOMTEMPO ANALISTA DO MP MONTES CLAROS - COMARCA; MONTES CLAROS-PJ-11PJ 1.333,00 0,00 578,00 0,00 0,00 0,00 0,00 0,00 0,00 31/08/2022
348 1490100 ANA CLAUDIA ALVES MACHADO ESTAGIARIO BELO HORIZONTE; BH-18PJ VIOLENCIA DOMESTICA 0,00 0,00 0,00 168,00 0,00 0,00 0,00 0,00 0,00 31/08/2022
349 1156600 ANA CLAUDIA ALVIM SANTOS BERTOLI ESTAGIARIO JANAUBA; JANAUBA-PJ-01PJ 0,00 0,00 0,00 108,00 0,00 0,00 0,00 0,00 0,00 31/08/2022
350 642500 ANA CLAUDIA DA COSTA NAVES OFICIAL DO MP MONTE CARMELO - COMARCA; MONTE CARMELO-PJ-02PJ 1.333,00 885,30 578,00 0,00 0,00 137,79 0,00 0,00 0,00 31/08/2022
351 1448000 ANA CLAUDIA DE FREITAS RESENDE ESTAGIARIO BELO HORIZONTE; COORD REG SAUDE MACRORREGIAO SANITARIA CENTRO 0,00 0,00 0,00 252,00 0,00 0,00 0,00 0,00 0,00 31/08/2022
352 716800 ANA CLAUDIA DOURADO MENDES ASSESSOR PROMOTOR JUSTICA ARAÇUAÍ - COMARCA; ARACUAI-PJ-02PJ 1.333,00 0,00 578,00 0,00 0,00 0,00 0,00 0,00 0,00 31/08/2022
353 1392700 ANA CLAUDIA GOIANAZES MOREIRA ESTAGIARIO BELO HORIZONTE; GABINETE DE PROCURADOR DE JUSTIÇA - SALA 705
354 341500 ANA CLAUDIA LOPES PROMOT.ENTRANC.ESPECIAL BELO HORIZONTE - COMARCA; BH-07PJ 01 TRIBUNAL DO JURI-GAB 077PJ 1.333,00 0,00 1.077,84 0,00 16.844,55 0,00 0,00 0,00 514,69 31/08/2022
355 604900 ANA CLAUDIA OLIVEIRA DE MIRANDA OFICIAL DO MP PONTE NOVA - COMARCA; PONTE NOVA-PJ-04PJ 1.333,00 0,00 578,00 0,00 0,00 0,00 0,00 0,00 0,00 31/08/2022
356 1381200 ANA CLAUDIA SARAIVA MARTINS FERREIRA ESTAGIARIO BELO HORIZONTE; BH-18PJ DIREITOS HUMANOS-GAB 128PJ 0,00 0,00 0,00 192,00 0,00 0,00 0,00 0,00 0,00 31/08/2022
357 1257400 ANA CLAUDIA SMOLNY PINTO ESTAGIARIO LAMBARI; LAMBARI-PJ-UNPJ 0,00 0,00 0,00 240,00 0,00 0,00 0,00 0,00 0,00 31/08/2022
358 379300 ANA CRISTINA ALVES FLAVIO ANALISTA DO MP SÃO GOTARDO - COMARCA; SAO GOTARDO-PJ-01PJ 1.333,00 885,30 578,00 0,00 0,00 0,00 0,00 0,00 0,00 31/08/2022
359 461200 ANA CRISTINA ALVES PASCHOAL ANALISTA DO MP BELO HORIZONTE - COMARCA; BH-07PJ 03 TRIBUNAL DO JURI-GAB 064PJ 1.333,00 0,00 578,00 0,00 0,00 0,00 0,00 0,00 0,00 31/08/2022
360 514100 ANA CRISTINA ARAUJO ASSUNCAO ANALISTA DO MP BELO HORIZONTE - COMARCA; ASSESS JUR DO CONS SUPERIOR DO MINISTERIO PUB 1.333,00 885,30 578,00 0,00 0,00 0,00 0,00 0,00 0,00 31/08/2022
361 113401 ANA CRISTINA BRAGA ALBUQUERQUE ASSESSOR ADM. ESPECIAL BELO HORIZONTE - COMARCA; DIRETORIA-GERAL 1.333,00 0,00 0,00 0,00 0,00 0,00 0,00 0,00 0,00 31/08/2022
362 233800 ANA CRISTINA BRAGA SOARES OFICIAL DO MP CONTAGEM - COMARCA; CONTAGEM-PJ-SECRETARIA 1.333,00 0,00 578,00 0,00 0,00 0,00 0,00 0,00 0,00 31/08/2022
363 186400 ANA CRISTINA DE AZEVEDO LOPES OFICIAL DO MP UBÁ - COMARCA; UBA-PJ-01PJ 1.333,00 0,00 578,00 0,00 0,00 0,00 0,00 0,00 0,00 31/08/2022
364 693000 ANA CRISTINA DE MELO SILVEIRA ASSESSOR PROCURADOR JUSTICA BELO HORIZONTE - COMARCA; COORD DE CONTROLE CONSTITUCIONALIDADE 1.333,00 885,30 578,00 0,00 0,00 0,00 0,00 0,00 0,00 31/08/2022
365 465100 ANA CRISTINA DE OLIVEIRA GUIMARAES ANALISTA DO MP ITAJUBA - COMARCA; ITAJUBA-PJ-05PJ 1.333,00 885,30 578,00 0,00 0,00 0,00 0,00 0,00 0,00 31/08/2022
366 500600 ANA CRISTINA LATADO SUDARIO ANALISTA DO MP UBERLÂNDIA - COMARCA; UBERLANDIA-PJ-09PJ 1.333,00 0,00 578,00 0,00 0,00 0,00 0,00 0,00 0,00 31/08/2022
367 331400 ANA CRISTINA RIBEIRO ALVES OFICIAL DO MP BAMBUÍ - COMARCA; BAMBUI-PJ-UNPJ 1.333,00 0,00 578,00 0,00 0,00 0,00 0,00 0,00 0,00 31/08/2022
368 1450600 ANA ELISA MONTEIRO COSTA ESTAGIARIO JUIZ DE FORA; JUIZ DE FORA-PJ-04PJ 0,00 0,00 0,00 264,00 0,00 0,00 0,00 0,00 0,00 31/08/2022
369 1299700 ANA ELISA PRATA DA CRUZ ESTAGIARIO CONTAGEM; CONTAGEM-PJ-05PJ 0,00 0,00 0,00 180,00 0,00 0,00 0,00 0,00 0,00 31/08/2022
370 249300 ANA ELOINA MARTINS OFICIAL DO MP BETIM - COMARCA; BETIM-PJ-02PJ 1.333,00 0,00 578,00 0,00 0,00 0,00 0,00 0,00 0,00 31/08/2022
371 611500 ANA FLAVIA AFONSO DRUMOND AMORIM PROMOTOR 2A ENTRANCIA PIRAPORA - COMARCA; PIRAPORA-PJ-02PJ 1.333,00 0,00 0,00 0,00 10.668,22 0,00 0,00 0,00 488,96 31/08/2022
372 1466700 ANA FLAVIA ALVES ARAUJO ESTAGIARIO NOVA LIMA; NOVA LIMA-PJ-SECRETARIA 0,00 0,00 0,00 252,00 0,00 0,00 0,00 0,00 0,00 31/08/2022
373 257400 ANA FLAVIA CAMBRAIA ANALISTA DO MP BELO HORIZONTE - COMARCA; BH-19PJ SAUDE-SECRETARIA 150PJ 1.333,00 0,00 578,00 0,00 0,00 0,00 0,00 0,00 0,00 31/08/2022
374 1230700 ANA FLAVIA CARDOSO VIZOTTO ESTAGIARIO BELO HORIZONTE; BH-12PJ JUIZO CRIMINAL-GAB 104PJ 0,00 0,00 0,00 240,00 0,00 0,00 0,00 0,00 0,00 31/08/2022
375 248201 ANA FLAVIA DE MORAIS SOUZA ANALISTA DO MP DIVINÓPOLIS - COMARCA; DIVINOPOLIS-PJ-01PJ 1.333,00 885,30 578,00 0,00 0,00 0,00 0,00 0,00 0,00 31/08/2022
376 621100 ANA FLAVIA DINIZ TEODORO OFICIAL DO MP SANTA LUZIA - COMARCA; SANTA LUZIA-PJ-06PJ 1.333,00 0,00 578,00 0,00 0,00 0,00 0,00 0,00 0,00 31/08/2022
377 238600 ANA FLAVIA FRANCO OFICIAL DO MP BELO HORIZONTE - COMARCA; DIRETORIA DE PESSOAL ADMINISTRATIVO - DPAD 1.333,00 0,00 578,00 0,00 0,00 0,00 0,00 0,00 0,00 31/08/2022
378 690000 ANA FLAVIA LURIAN DE PAIVA ASSESSOR PROCURADOR JUSTICA BELO HORIZONTE - COMARCA; GABINETE DE PROCURADOR DE JUSTIÇA - SALA 609 1.333,00 0,00 578,00 0,00 0,00 0,00 0,00 0,00 0,00 31/08/2022
379 1275200 ANA FLAVIA MARTINS CAMPOS ESTAGIARIO ALMENARA; ALMENARA-PJ-01PJ 0,00 0,00 0,00 264,00 0,00 0,00 0,00 0,00 0,00 31/08/2022
380 1488300 ANA FLAVIA PINTO ESTAGIARIO RESENDE COSTA; RESENDE COSTA-PJ-UNPJ 0,00 0,00 0,00 144,00 0,00 0,00 0,00 0,00 0,00 31/08/2022
381 402900 ANA FLAVIA PORTES DE CARVALHO ANALISTA DO MP BELO HORIZONTE - COMARCA; DIRET DE PLANOS PROJETOS E PROGRAMAS INST 1.333,00 0,00 578,00 0,00 0,00 0,00 0,00 0,00 0,00 31/08/2022
382 1326900 ANA FLAVIA RIBEIRO PEREIRA ESTAGIARIO CORINTO; CORINTO-PJ-UNPJ 0,00 0,00 0,00 264,00 0,00 0,00 0,00 0,00 0,00 31/08/2022
383 1336700 ANA FLAVIA SANTOS PARAISO ESTAGIARIO BRASILIA DE MINAS; BRASILIA DE MINAS-PJ-01PJ 0,00 0,00 0,00 228,00 0,00 0,00 0,00 0,00 0,00 31/08/2022
384 1297100 ANA GABRIELA BOLDRIN TRINCA ESTAGIARIO POCOS DE CALDAS; POCOS DE CALDAS-PJ-07PJ 0,00 0,00 0,00 264,00 0,00 0,00 0,00 0,00 0,00 31/08/2022
385 526300 ANA GABRIELA BRITO MELO ROCHA PROMOTOR 2A ENTRANCIA TRÊS PONTAS - COMARCA; TRES PONTAS-PJ-03PJ 1.333,00 0,00 1.874,50 0,00 5.334,11 0,00 0,00 0,00 488,96 31/08/2022
386 1425900 ANA GABRIELA MOURA SIQUEIRA ESTAGIARIO FRUTAL; FRUTAL-PJ-01PJ 0,00 0,00 0,00 264,00 0,00 0,00 0,00 0,00 0,00 31/08/2022
387 1254700 ANA HELENA SANTOS DE OLIVEIRA ESTAGIARIO ITABIRA; ITABIRA-PJ-05PJ 0,00 0,00 0,00 252,00 0,00 0,00 0,00 0,00 0,00 31/08/2022
388 1476700 ANA JULIA ALVES SOARES ESTAGIARIO GUARANESIA; GUARANESIA-PJ-UNPJ 0,00 0,00 0,00 264,00 0,00 0,00 0,00 0,00 0,00 31/08/2022
389 1488400 ANA JULIA DIXINI CARVALHO ESTAGIARIO TRES PONTAS; TRES PONTAS-PJ-03PJ 0,00 0,00 0,00 204,00 0,00 0,00 0,00 0,00 0,00 31/08/2022
390 1412300 ANA JULIA PEREIRA BELLEI GOMES ESTAGIARIO JUIZ DE FORA; JUIZ DE FORA-PJ-03PJ 0,00 0,00 0,00 264,00 0,00 0,00 0,00 0,00 0,00 31/08/2022
391 1426000 ANA JULIA PERES DE OLIVEIRA ESTAGIARIO FRUTAL; FRUTAL-PJ-02PJ 0,00 0,00 0,00 204,00 0,00 0,00 0,00 0,00 0,00 31/08/2022
392 1483100 ANA JULIA RODRIGUES CAMPOS ESTAGIARIO ITAUNA; ITAUNA-PJ-05PJ 0,00 0,00 0,00 240,00 0,00 0,00 0,00 0,00 0,00 31/08/2022
393 1262100 ANA JULIA SILVA PEREIRA ESTAGIARIO LAVRAS; LAVRAS-PJ-06PJ 0,00 0,00 0,00 240,00 0,00 0,00 0,00 0,00 0,00 31/08/2022
394 382700 ANA KARENINA SALDANHA GONTIJO ANALISTA DO MP BELO HORIZONTE - COMARCA; ASSESS TECNICO-JUR JUNTO AS PROC. DE JUST 1.333,00 0,00 578,00 0,00 0,00 0,00 0,00 0,00 0,00 31/08/2022
395 620500 ANA KARINE DE ANDRADE OLIVEIRA ANALISTA DO MP RIBEIRÃO DAS NEVES - COMARCA; RIBEIRAO NEVES-SEC PJ EXECUCAO PENAL 1.333,00 0,00 578,00 0,00 0,00 0,00 0,00 0,00 0,00 31/08/2022
396 1412600 ANA KAROLINE ARAUJO DA SILVA ESTAGIARIO BELO HORIZONTE; BH-12PJ JUIZO CRIMINAL-GAB 083PJ 0,00 0,00 0,00 252,00 0,00 0,00 0,00 0,00 0,00 31/08/2022
397 1259400 ANA KAROLINE DOS SANTOS ESTAGIARIO
398 1420700 ANA LAURA CARVALHO GENEROSO ESTAGIARIO BELO HORIZONTE; GABINETE DE PROCURADOR DE JUSTIÇA - SALA 1013 0,00 0,00 0,00 48,00 0,00 0,00 0,00 0,00 0,00 31/08/2022
399 1369000 ANA LAURA DE FARIA LIMA ESTAGIARIO PARA DE MINAS; PARA DE MINAS-PJ-03PJ 0,00 0,00 0,00 252,00 0,00 0,00 0,00 0,00 0,00 31/08/2022
400 1417200 ANA LAURA FERREIRA DA SILVA ESTAGIARIO UBERABA; UBERABA-PJ-16PJ 0,00 0,00 0,00 269,04 0,00 0,00 0,00 0,00 97,43 31/08/2022
401 1457800 ANA LAURA GONCALVES DE MENEZES ESTAGIARIO UBERLANDIA; GAECO REGIONAL DE UBERLANDIA 0,00 0,00 0,00 252,00 0,00 0,00 0,00 0,00 0,00 31/08/2022
402 1374900 ANA LAURA MENDONCA SILVA DE ARAUJO ESTAGIARIO CONTAGEM; CONTAGEM-PJ-03PJ 0,00 0,00 0,00 156,00 0,00 0,00 0,00 0,00 0,00 31/08/2022
403 57400 ANA LEIA SALOMAO E RIBEIRO PROMOT.ENTRANC.ESPECIAL JUIZ DE FORA - COMARCA; JUIZ DE FORA-PJ-17PJ 1.333,00 0,00 1.405,88 0,00 13.475,64 0,00 0,00 0,00 514,69 31/08/2022
404 1392800 ANA LETICIA CARVALHO BATISTA ESTAGIARIO UBERABA; UBERABA-PJ-05PJ 0,00 0,00 0,00 252,00 0,00 0,00 0,00 0,00 0,00 31/08/2022
405 224300 ANA LETICIA MARTINS DE SOUZA PROMOT.ENTRANC.ESPECIAL CONTAGEM - COMARCA; CONTAGEM-PJ-13PJ 1.333,00 0,00 0,00 0,00 0,00 0,00 0,00 0,00 0,00 31/08/2022
406 1476300 ANA LIVIA DE FREITAS SILVA ESTAGIARIO PARAOPEBA; PARAOPEBA-PJ-UNPJ 0,00 0,00 0,00 264,00 0,00 0,00 0,00 0,00 0,00 31/08/2022
407 1391300 ANA LIVIA DO NASCIMENTO TORQUATO ESTAGIARIO GUAXUPE; GUAXUPE-PJ-01PJ 0,00 0,00 0,00 264,00 0,00 0,00 0,00 0,00 0,00 31/08/2022
408 462200 ANA LUCIA ANDRADE TOMICH OTTONI ANALISTA DO MP TEÓFILO OTONI - COMARCA; TEOFILO OTONI-PJ-07PJ 1.333,00 885,30 578,00 0,00 0,00 0,00 0,00 0,00 0,00 31/08/2022
409 504100 ANA LUCIA CATAO DE CARVALHO OFICIAL DO MP BELO HORIZONTE - COMARCA; DIR RELACOES INSTITUCIONAIS 1.333,00 0,00 578,00 0,00 0,00 0,00 0,00 0,00 0,00 31/08/2022
410 274700 ANA LUCIA DE ALENCAR BRAGATO OFICIAL DO MP UBERABA - COMARCA; UBERABA-PJ-07PJ 1.333,00 0,00 578,00 0,00 0,00 0,00 0,00 0,00 0,00 31/08/2022
411 509400 ANA LUCIA DORNELAS MALLOSTO ANALISTA DO MP JUIZ DE FORA - COMARCA; JUIZ DE FORA-PJ-25PJ 1.333,00 0,00 578,00 0,00 0,00 0,00 0,00 0,00 0,00 31/08/2022
412 114600 ANA LUCIA JUNQUEIRA MUZZI CAVALIERI PROMOT.ENTRANC.ESPECIAL JUIZ DE FORA - COMARCA; JUIZ DE FORA-PJ-14PJ 1.333,00 0,00 3.368,91 0,00 16.844,55 0,00 0,00 0,00 514,69 31/08/2022
413 302600 ANA LUCIA LOPES SANTOS OFICIAL DO MP BELO HORIZONTE - COMARCA; DIVISÃO DE FISCALIZAÇÃO DAS RELAÇÕES DE CONSU 1.333,00 0,00 578,00 0,00 0,00 0,00 1.580,00 0,00 0,00 31/08/2022
414 1409600 ANA LUISA COSTA DA SILVA ARAUJO ESTAGIARIO GOVERNADOR VALADARES; GOVERNADOR VALADARES-PJ-13PJ 0,00 0,00 0,00 252,00 0,00 0,00 0,00 0,00 0,00 31/08/2022
415 716700 ANA LUISA DE LANA COELHO ASSESSOR PROCURADOR JUSTICA BELO HORIZONTE - COMARCA; GABINETE DE PROCURADOR DE JUSTIÇA - SALA 715 1.333,00 0,00 578,00 0,00 0,00 0,00 0,00 0,00 0,00 31/08/2022
416 702000 ANA LUISA DE OLIVEIRA RIBEIRO ASSESSOR PROCURADOR JUSTICA BELO HORIZONTE - COMARCA; ASSESS TECNICO-JUR JUNTO AS PROC. DE JUST 1.333,00 0,00 578,00 0,00 0,00 0,00 0,00 0,00 0,00 31/08/2022
417 1496800 ANA LUISA LOPES CARMO ESTAGIARIO ITABIRITO; ITABIRITO-PJ-01PJ 0,00 0,00 0,00 72,00 0,00 0,00 0,00 0,00 0,00 31/08/2022
418 493400 ANA LUISA NOGUEIRA MOREIRA ANALISTA DO MP BELO HORIZONTE - COMARCA; BH-19PJ SAUDE-SECRETARIA 130PJ 1.333,00 0,00 578,00 0,00 0,00 0,00 0,00 0,00 0,00 31/08/2022
419 389300 ANA LUISA REUTER LIMA ANALISTA DO MP BELO HORIZONTE - COMARCA; DIRETORIA DE SISTEMAS DE INFORMACAO 1.333,00 0,00 578,00 0,00 0,00 0,00 0,00 0,00 0,00 31/08/2022
420 1235500 ANA LUISA RODRIGUES SOUSA ESTAGIARIO 0,00 0,00 0,00 252,00 0,00 0,00 0,00 0,00 0,00 31/08/2022
421 1422600 ANA LUIZA ALVES FERREIRA ESTAGIARIO BELO HORIZONTE; BH-23PJ INFRACIONAL-GAB 039PJ 0,00 0,00 0,00 252,00 0,00 0,00 0,00 0,00 0,00 31/08/2022
422 1391000 ANA LUIZA ANTUNES DE OLIVEIRA ESTAGIARIO NANUQUE; NANUQUE-PJ-01PJ 0,00 0,00 0,00 264,00 0,00 0,00 0,00 0,00 0,00 31/08/2022
423 1405100 ANA LUIZA CUNHA ALVES ESTAGIARIO JUIZ DE FORA; JUIZ DE FORA-PJ-18PJ 0,00 0,00 0,00 252,00 0,00 0,00 0,00 0,00 0,00 31/08/2022
424 441100 ANA LUIZA DA COSTA E CRUZ PROMOTOR 2A ENTRANCIA PEDRO LEOPOLDO - COMARCA; PEDRO LEOPOLDO-PJ-03PJ 1.333,00 0,00 2.371,17 0,00 16.002,33 0,00 0,00 0,00 488,96 31/08/2022
425 161000 ANA LUIZA DE ABREU MOREIRA PROMOT.ENTRANC.ESPECIAL BELO HORIZONTE - COMARCA; BH-03PJ EMPRESARIAL-GAB 037PJ 1.333,00 0,00 3.368,91 0,00 16.844,55 0,00 0,00 0,00 514,69 31/08/2022
426 480600 ANA LUIZA FERNANDES FRAGA E GRECO COORDENADOR I BELO HORIZONTE - COMARCA; OUVIDORIA DO MPMG 1.333,00 0,00 578,00 0,00 0,00 0,00 0,00 0,00 0,00 31/08/2022
427 1456500 ANA LUIZA FERNANDES RAMALHO ESTAGIARIO MINAS NOVAS; MINAS NOVAS-PJ-UNPJ 0,00 0,00 0,00 252,00 0,00 0,00 0,00 0,00 0,00 31/08/2022
428 726800 ANA LUIZA GOMES PEREIRA ASSESSOR ADMINISTRATIVO I BELO HORIZONTE - COMARCA; OUVIDORIA DO MPMG 1.878,32 0,00 1.156,00 0,00 0,00 0,00 0,00 0,00 1.593,38 31/08/2022
429 685400 ANA LUIZA HENRIQUES BERGER MACHADO PROMOTOR 2A ENTRANCIA ARAÇUAÍ - COMARCA; ARACUAI-PJ-01PJ 1.333,00 0,00 773,24 0,00 16.002,33 0,00 0,00 0,00 488,96 31/08/2022
430 1479700 ANA LUIZA MACHADO RODRIGUES ESTAGIARIO CARMO DA MATA; CARMO DA MATA-PJ-UNPJ 0,00 0,00 0,00 264,00 0,00 0,00 0,00 0,00 0,00 31/08/2022
431 517800 ANA LUIZA MAGALHAES CIRINO PIOTO DE MELO OFICIAL DO MP BELO HORIZONTE - COMARCA; DIVISAO DE MATERIAIS 1.333,00 1.770,60 578,00 0,00 0,00 0,00 0,00 0,00 0,00 31/08/2022
432 1311400 ANA LUIZA MENDES VIANA ESTAGIARIO BELO HORIZONTE; BH-12PJ JUIZO CRIMINAL-GAB 086PJ 0,00 0,00 0,00 252,00 0,00 0,00 0,00 0,00 0,00 31/08/2022
433 1214300 ANA LUIZA SCHUFFNER RIBEIRO ESTAGIARIO BELO HORIZONTE; GABINETE DE PROCURADOR DE JUSTIÇA - SALA 816 0,00 0,00 0,00 252,00 0,00 0,00 0,00 0,00 0,00 31/08/2022
434 1376200 ANA LUIZA SILVA RIBEIRO ESTAGIARIO BELO HORIZONTE; DIR RELACOES INSTITUCIONAIS 0,00 0,00 0,00 252,00 0,00 0,00 0,00 0,00 0,00 31/08/2022
435 1260700 ANA LUIZA SOARES BISPO ESTAGIARIO SETE LAGOAS; SETE LAGOAS-PJ-09PJ 0,00 0,00 0,00 132,00 0,00 0,00 0,00 0,00 0,00 31/08/2022
436 1431000 ANA LUIZA SOARES CARDOSO ESTAGIARIO CONTAGEM; CONTAGEM-PJ-19PJ 0,00 0,00 0,00 216,00 0,00 0,00 0,00 0,00 0,00 31/08/2022
437 1487000 ANA LUIZA TEIXEIRA GOMES ESTAGIARIO GOVERNADOR VALADARES; GOVERNADOR VALADARES-PJ-16PJ 0,00 0,00 0,00 228,00 0,00 0,00 0,00 0,00 0,00 31/08/2022
438 481400 ANA MARCIA CANDIDA FERREIRA OFICIAL DO MP BRUMADINHO - COMARCA; BRUMADINHO-PJ-02PJ 1.333,00 0,00 578,00 0,00 0,00 0,00 0,00 0,00 0,00 31/08/2022
439 114700 ANA MARIA CAMILO DA HORA E ROCHA PROMOT.ENTRANC.ESPECIAL MONTES CLAROS - COMARCA; MONTES CLAROS-PJ-05PJ 1.333,00 0,00 3.315,24 0,00 5.614,85 0,00 0,00 0,00 514,69 31/08/2022
440 716200 ANA MARIA COUTO GONTIJO ASSESSOR PROCURADOR JUSTICA BELO HORIZONTE - COMARCA; GABINETE DE PROCURADOR DE JUSTIÇA - SALA 1014 1.333,00 0,00 578,00 0,00 0,00 0,00 0,00 0,00 0,00 31/08/2022
441 1247900 ANA MARIA FONSECA ROSA ESTAGIARIO PATOS DE MINAS; PATOS DE MINAS-PJ-02PJ 0,00 0,00 0,00 252,00 0,00 0,00 0,00 0,00 0,00 31/08/2022
442 643100 ANA MARIA LOPES MIRANDA ANALISTA DO MP BELO HORIZONTE - COMARCA; CAO-FUNDACOES 1.333,00 885,30 578,00 0,00 0,00 0,00 0,00 0,00 0,00 31/08/2022
443 1446600 ANA MARIA MENDES GOULART ESTAGIARIO BELO HORIZONTE; BH-23PJ INFRACIONAL-GAB 140PJ 0,00 0,00 0,00 240,00 0,00 0,00 0,00 0,00 0,00 31/08/2022
444 556400 ANA MARIA OLIVEIRA SOUZA OFICIAL DO MP ITAPECERICA - COMARCA; ITAPECERICA-PJ-UNPJ 1.333,00 0,00 578,00 0,00 0,00 0,00 0,00 0,00 0,00 31/08/2022
445 1333200 ANA MARIA VELOSO RODRIGUES DE ALMEIDA ESTAGIARIO BELO HORIZONTE; CAO-CIVEL 0,00 0,00 0,00 252,00 0,00 0,00 0,00 0,00 0,00 31/08/2022
446 409600 ANA OLIVIA FARIA ROSENBURG ANALISTA DO MP BELO HORIZONTE - COMARCA; DIRETORIA DO COLEGIO E DA CAMARA DE PJ 1.333,00 0,00 578,00 0,00 0,00 0,00 0,00 0,00 915,62 31/08/2022
447 461500 ANA PAULA ALVES CARVALHO ANALISTA DO MP UBERLÂNDIA - COMARCA; UBERLANDIA-PJ-25PJ 1.333,00 885,30 578,00 0,00 0,00 0,00 0,00 0,00 0,00 31/08/2022
448 523200 ANA PAULA ALVES DA SILVA OFICIAL DO MP GOVERNADOR VALADARES - COMARCA; GOVERNADOR VALADARES-PJ-10PJ 1.333,00 3.541,20 578,00 0,00 0,00 0,00 0,00 0,00 0,00 31/08/2022
449 1295700 ANA PAULA ANDRADE GALVAO ESTAGIARIO BELO HORIZONTE; GABINETE DE PROCURADOR DE JUSTIÇA - SALA 709 0,00 0,00 0,00 84,00 181,00 0,00 0,00 0,00 0,00 31/08/2022
450 381200 ANA PAULA BARROS PEREIRA RIGHI ANALISTA DO MP BELO HORIZONTE - COMARCA; PROC JUST ATUACAO TRIBUNAIS SUPERIORES-GAB003 1.333,00 885,30 578,00 0,00 0,00 0,00 0,00 0,00 0,00 31/08/2022
451 696400 ANA PAULA CARVALHO SILVA ASSESSOR PROMOTOR JUSTICA PERDÕES - COMARCA; PERDOES-PJ-UNPJ 1.333,00 885,30 578,00 0,00 0,00 0,00 0,00 0,00 0,00 31/08/2022
452 700900 ANA PAULA CRAVO SALOME ASSESSOR ADMINISTRATIVO I BELO HORIZONTE - COMARCA; PROCURADOR-GERAL DE JUSTIÇA 1.333,00 0,00 578,00 0,00 0,00 0,00 0,00 0,00 0,00 31/08/2022
453 227200 ANA PAULA DA SILVA CAMPOLINA ANALISTA DO MP BELO HORIZONTE - COMARCA; DIRETORIA DE ORCAMENTO-DIOR/SPC 1.333,00 0,00 578,00 0,00 0,00 0,00 0,00 0,00 0,00 31/08/2022
454 1438600 ANA PAULA DE SOUZA ESTAGIARIO BRASOPOLIS; BRASOPOLIS-PJ-UNPJ 0,00 0,00 0,00 264,00 0,00 0,00 0,00 0,00 0,00 31/08/2022
455 1275600 ANA PAULA DE SOUZA OLIVEIRA ESTAGIARIO MURIAE; MURIAE-PJ-07PJ 0,00 0,00 0,00 240,00 0,00 0,00 0,00 0,00 0,00 31/08/2022
456 278500 ANA PAULA DIAS CAPANEMA OFICIAL DO MP BELO HORIZONTE - COMARCA; DIRETORIA DE SEGURANCA 1.333,00 0,00 578,00 0,00 0,00 0,00 0,00 0,00 0,00 31/08/2022
457 1429200 ANA PAULA DO NASCIMENTO LAGES ESTAGIARIO BELO HORIZONTE; BH-17PJ PATRIMONIO PUBLICO-GAB 004PJ 0,00 0,00 0,00 228,00 0,00 0,00 0,00 0,00 0,00 31/08/2022
458 1364900 ANA PAULA FLORINDA MACHADO DO CARMO ESTAGIARIO UBERABA; UBERABA-PJ-15PJ 0,00 0,00 0,00 252,00 0,00 0,00 0,00 0,00 0,00 31/08/2022
459 327300 ANA PAULA GARCIA MAXIMO OFICIAL DO MP UNAÍ - COMARCA; UNAI-PJ-01PJ 1.333,00 0,00 578,00 0,00 0,00 0,00 0,00 0,00 0,00 31/08/2022
460 1229100 ANA PAULA GOMES MIRANDA ESTAGIARIO BELO HORIZONTE; BH-12PJ JUIZO CRIMINAL-GAB 092PJ 0,00 0,00 0,00 252,00 0,00 0,00 0,00 0,00 0,00 31/08/2022
461 270000 ANA PAULA GOULART CRUZ DE MAGALHAES ANALISTA DO MP BELO HORIZONTE - COMARCA; ASSESSORIA ESPECIAL DO PGJ 1.333,00 0,00 578,00 0,00 0,00 0,00 0,00 0,00 0,00 31/08/2022
462 262100 ANA PAULA KOMATSUZAKI ABIJAUDI ANALISTA DO MP BELO HORIZONTE - COMARCA; BH-17PJ PATRIMONIO PUBLICO-SECRETARIA 1.333,00 0,00 578,00 0,00 0,00 0,00 0,00 0,00 0,00 31/08/2022
463 671400 ANA PAULA LIMA DA SILVA PROMOTOR 1A ENTRANCIA RIO CASCA - COMARCA; RIO CASCA-PJ-UNPJ 1.333,00 0,00 2.013,34 0,00 14.188,72 0,00 0,00 0,00 464,51 31/08/2022
464 222600 ANA PAULA LOURENCO DE PAULA PROMOTOR 2A ENTRANCIA ITUIUTABA - COMARCA; ITUIUTABA-PJ-03PJ 1.333,00 0,00 3.200,47 0,00 16.002,33 0,00 0,00 0,00 488,96 31/08/2022
465 1418000 ANA PAULA MACHADO DE OLIVEIRA ESTAGIARIO BELO HORIZONTE; BH-23PJ INFRACIONAL-GAB 142PJ 0,00 0,00 0,00 252,00 0,00 0,00 0,00 0,00 0,00 31/08/2022
466 106200 ANA PAULA MENDES RODRIGUES PROCURADOR DE JUSTICA BELO HORIZONTE - COMARCA; PROC JUSTICA DIR DIFUSOS E COLETIVOS-GAB007 1.333,00 0,00 1.288,73 0,00 0,00 0,00 0,00 0,00 0,00 31/08/2022
467 278900 ANA PAULA MOREIRA GURGEL ANALISTA DO MP BELO HORIZONTE - COMARCA; ASSESSORIA JURIDICO-ADMINISTRATIVA 1.333,00 0,00 578,00 0,00 0,00 0,00 0,00 0,00 0,00 31/08/2022
468 1446000 ANA PAULA NAGIB LATFALLA ESTAGIARIO MANHUACU; MANHUACU-PJ-05PJ 0,00 0,00 0,00 240,00 0,00 0,00 0,00 0,00 0,00 31/08/2022
469 1333700 ANA PAULA PACHECO DA SILVA ARAUJO ESTAGIARIO BELO HORIZONTE; GABINETE DE PROCURADOR DE JUSTIÇA - SALA 713 0,00 0,00 0,00 12,00 0,00 0,00 0,00 0,00 0,00 31/08/2022
470 484400 ANA PAULA RESENDE DORNELLAS DE AZEVEDO PROMOTOR SUBSTITUTO CONTAGEM - COMARCA; CONTAGEM-PJ-19PJ 1.333,00 0,00 3.040,44 0,00 15.202,21 0,00 0,00 0,00 464,51 31/08/2022
471 425701 ANA PAULA ROCHA ANALISTA DO MP BELO HORIZONTE - COMARCA; ASSESSORIA DE COMUNICACAO INTEGRADA 1.333,00 885,30 578,00 0,00 0,00 0,00 0,00 0,00 0,00 31/08/2022
472 395601 ANA PAULA SALGE OLIVEIRA ANALISTA DO MP UBERABA - COMARCA; UBERABA-PJ-15PJ 1.333,00 0,00 578,00 0,00 0,00 0,00 0,00 0,00 0,00 31/08/2022
473 473200 ANA PAULA SCOTTON BRASIL ANALISTA DO MP JUIZ DE FORA - COMARCA; JUIZ DE FORA-PJ-09PJ 1.333,00 0,00 578,00 0,00 0,00 0,00 0,00 0,00 0,00 31/08/2022
474 633600 ANA PAULA SILVA FERNANDES OFICIAL DO MP CATAGUASES - COMARCA; CATAGUASES-PJ-04PJ 1.333,00 0,00 578,00 0,00 0,00 0,00 0,00 0,00 0,00 31/08/2022
475 1468500 ANA PAULA TEIXEIRA ESTAGIARIO 0,00 0,00 0,00 240,00 0,00 0,00 0,00 0,00 0,00 31/08/2022
476 470900 ANA PAULA VALADARES ANALISTA DO MP PITANGUI - COMARCA; PITANGUI-PJ-01PJ 1.333,00 0,00 578,00 0,00 0,00 0,00 0,00 0,00 0,00 31/08/2022
477 447000 ANA PAULA VALENTIM DE ARAUJO ANALISTA DO MP BELO HORIZONTE - COMARCA; PROC JUST ESP ACOES COMP ORIG CRIMINAL-ASSESS 1.333,00 0,00 578,00 0,00 0,00 0,00 0,00 0,00 0,00 31/08/2022
478 604200 ANA PAULA VIANA E SILVA OFICIAL DO MP BELO HORIZONTE - COMARCA; BH-17PJ PATRIMONIO PUBLICO-SECRETARIA 1.333,00 0,00 578,00 0,00 0,00 0,00 0,00 0,00 0,00 31/08/2022
479 505400 ANA PAULA VIEIRA SOUTO OFICIAL DO MP ALMENARA - COMARCA; ALMENARA-PJ-01PJ 1.333,00 0,00 578,00 0,00 0,00 0,00 0,00 0,00 0,00 31/08/2022
480 280200 ANA RACHEL BRANDAO LADEIRA ROLAND ANALISTA DO MP BELO HORIZONTE - COMARCA; SUPERINTENDENCIA GESTÃO DE PESSOAS 1.333,00 0,00 578,00 0,00 0,00 0,00 0,00 0,00 0,00 31/08/2022
481 691000 ANA RACHEL DOS REIS E SENA COSTA ASSESSOR PROMOTOR JUSTICA BELO HORIZONTE - COMARCA; GABINETE DE PROCURADOR DE JUSTIÇA - SALA 601 1.333,00 0,00 578,00 0,00 0,00 0,00 0,00 0,00 0,00 31/08/2022
482 601200 ANA REGINA RIBEIRO COORDENADOR I BELO HORIZONTE - COMARCA; DIV FISCAL ADM CONT TERCEIRIZACAO 1.333,00 0,00 578,00 0,00 0,00 0,00 0,00 0,00 0,00 31/08/2022
483 384700 ANA RODRIGUES PEREIRA MARRA ANALISTA DO MP COROMANDEL - COMARCA; COROMANDEL-PJ-01PJ 1.333,00 885,30 578,00 0,00 0,00 0,00 0,00 0,00 0,00 31/08/2022
484 232700 ANA SILVIA SEMBLANO NAKAMURA OFICIAL DO MP BELO HORIZONTE - COMARCA; CENT DE APOIO TEC-SETOR DEF,IDOSO E INFANC 1.333,00 0,00 578,00 0,00 0,00 0,00 0,00 0,00 0,00 31/08/2022
485 1417800 ANA TARSILA MAIA CORTES ESTAGIARIO BELO HORIZONTE; BH-08PJ JUIZADO ESPECIAL-GAB 070PJ 0,00 0,00 0,00 216,00 0,00 0,00 0,00 0,00 0,00 31/08/2022
486 1437900 ANA TEREZA RIBEIRO ALFENAS ESTAGIARIO UBA; UBA-PJ-01PJ 0,00 0,00 0,00 264,00 0,00 0,00 0,00 0,00 0,00 31/08/2022
487 530300 ANA TEREZA RIBEIRO SALLES GIACOMINI PROMOTOR 2A ENTRANCIA OURO PRETO - COMARCA; OURO PRETO-PJ-02PJ 1.333,00 0,00 2.811,76 0,00 5.334,11 0,00 0,00 0,00 0,00 31/08/2022
488 1434600 ANA VIRGINIA SANTOS DEMUNER ESTAGIARIO OLIVEIRA; OLIVEIRA-PJ-02PJ 0,00 0,00 0,00 252,00 0,00 0,00 0,00 0,00 0,00 31/08/2022
489 1397400 ANA VITORIA REZENDE COSTA ESTAGIARIO UBERABA; UBERABA-PJ-09PJ 0,00 0,00 0,00 228,00 0,00 0,00 0,00 0,00 0,00 31/08/2022
490 602100 ANACLETO FRANCISCO MARCIER PIMENTA OFICIAL DO MP SÃO JOÃO DEL REI - COMARCA; SAO JOAO DEL REI-PJ-03PJ 1.333,00 1.770,60 578,00 0,00 0,00 0,00 0,00 0,00 0,00 31/08/2022
491 310400 ANADEJE DO CARMO DINIZ ARAUJO OFICIAL DO MP BELO HORIZONTE - COMARCA; DIRETORIA DE PESSOAL ADMINISTRATIVO - DPAD 1.333,00 0,00 578,00 0,00 0,00 0,00 0,00 0,00 0,00 31/08/2022
492 337000 ANAILDES MARIA MENDES OFICIAL DO MP JANAÚBA - COMARCA; JANAUBA-PJ-02PJ 1.333,00 885,30 578,00 0,00 0,00 0,00 0,00 0,00 0,00 31/08/2022
493 1417400 ANALU BATISTA TORQUATO ARAUJO ESTAGIARIO BELO HORIZONTE; PROC JUST ESP ACOES COMP ORIG CRIMINAL-ASSESS 0,00 0,00 0,00 252,00 0,00 0,00 0,00 0,00 0,00 31/08/2022
494 1170500 ANANDA EVELYN AURELIO DE SOUZA ESTAGIARIO CONTAGEM; COORD REG DEF ORDEM ECON TRIB CONTAGEM 0,00 0,00 0,00 252,00 0,00 0,00 0,00 0,00 0,00 31/08/2022
495 192900 ANATALIA CERQUEIRA LIMA PERES OFICIAL DO MP UBERABA - COMARCA; COORD REG SAUDE MACROR SANIT TRIANGULO SUL 1.333,00 0,00 578,00 0,00 0,00 0,00 0,00 0,00 0,00 31/08/2022
496 377400 ANDEIRSON DA MATTA BARBOSA ANALISTA DO MP POUSO ALEGRE - COMARCA; POUSO ALEGRE-PJ-01PJ 1.333,00 885,30 578,00 0,00 0,00 0,00 0,00 0,00 0,00 31/08/2022
497 720100 ANDERSON CHINEN RUIZ PROMOTOR SUBSTITUTO CATAGUASES - COMARCA; CATAGUASES-PJ-01PJ 1.333,00 0,00 1.175,24 0,00 0,00 0,00 0,00 0,00 0,00 31/08/2022
498 317400 ANDERSON DA SILVA BICALHO OFICIAL DO MP CONTAGEM - COMARCA; CONTAGEM-PJ-SECRETARIA 1.333,00 0,00 578,00 0,00 0,00 0,00 0,00 0,00 0,00 31/08/2022
499 506900 ANDERSON DE SOUZA DAMIANI ANALISTA DO MP BELO HORIZONTE - COMARCA; DIRETORIA DE PAGAMENTO DE PESSOAL-DPAG 1.333,00 0,00 578,00 0,00 5.390,15 0,00 0,00 0,00 494,10 31/08/2022
500 410000 ANDERSON DE SOUZA NETO ASSESSOR ADMINISTRATIVO II BELO HORIZONTE - COMARCA; DIRETORIA DE ADMINISTRACAO FINANCEIRA 1.333,00 0,00 578,00 0,00 0,00 0,00 0,00 0,00 0,00 31/08/2022
501 1300000 ANDERSON EDUARDO DOS SANTOS PEDRO ESTAGIARIO TRES CORACOES; TRES CORACOES-PJ-02PJ 0,00 0,00 0,00 264,00 0,00 0,00 0,00 0,00 0,00 31/08/2022
502 181900 ANDERSON FLAVIO DE OLIVEIRA OFICIAL DO MP ITAGUARA - COMARCA; ITAGUARA-PJ-SECRETARIA 1.333,00 0,00 578,00 0,00 0,00 0,00 0,00 0,00 0,00 31/08/2022
503 333200 ANDERSON JOSE DE FREITAS OFICIAL DO MP IPATINGA - COMARCA; IPATINGA-PJ-04PJ 1.333,00 885,30 578,00 0,00 0,00 0,00 1.580,00 0,00 0,00 31/08/2022
504 699400 ANDERSON LUIZ CABRAL ASSESSOR PROMOTOR JUSTICA ALÉM PARAÍBA - COMARCA; ALEM PARAIBA-PJ-03PJ 1.333,00 0,00 578,00 0,00 0,00 0,00 0,00 0,00 0,00 31/08/2022
505 462100 ANDERSON LUIZ GUIMARAES CARDOSO ANALISTA DO MP BARBACENA - COMARCA; BARBACENA-PJ-02PJ 1.333,00 0,00 578,00 0,00 0,00 0,00 0,00 0,00 0,00 31/08/2022
506 429700 ANDERSON MELO DE SOUZA ASSESSOR ADMINISTRATIVO IV BELO HORIZONTE - COMARCA; DIRET DE ESTAGIOS E CONVENIOS ACADEMICOS 1.333,00 0,00 578,00 0,00 0,00 0,00 0,00 0,00 0,00 31/08/2022
507 545600 ANDERSON MENDES PROCOPIO FERREIRA ANALISTA DO MP BELO HORIZONTE - COMARCA; BH-12PJ JUIZO CRIMINAL-GAB 089PJ 1.333,00 0,00 578,00 0,00 0,00 0,00 0,00 0,00 0,00 31/08/2022
508 519900 ANDERSON MOREIRA DOEHLER ANALISTA DO MP TEÓFILO OTONI - COMARCA; COORD REG SAUDE MACRORREGIAO SANIT NORDESTE 1.333,00 0,00 578,00 0,00 0,00 0,00 0,00 0,00 0,00 31/08/2022
509 1379900 ANDERSON NASCIMENTO DOS SANTOS ESTAGIARIO MARIANA; MARIANA-PJ-01PJ 0,00 0,00 0,00 252,00 0,00 0,00 0,00 0,00 0,00 31/08/2022
510 103000 ANDERSON TADEU DE DEUS ASSESSOR ADMINISTRATIVO II BELO HORIZONTE - COMARCA; BH-26 CRIME CONT CRIAN ADOL-SECRETARIA 1.333,00 0,00 578,00 0,00 0,00 0,00 0,00 0,00 0,00 31/08/2022
511 652500 ANDERSON TADEU LOPES INVESTIGADOR DE POLICIA 2 CONTAGEM - COMARCA; COORD REG DEF ORDEM ECON TRIB CONTAGEM 1.333,00 0,00 0,00 0,00 0,00 0,00 0,00 0,00 0,00 31/08/2022
512 309200 ANDITYAS SOARES DE MOURA COSTA MATOS ANALISTA DO MP BELO HORIZONTE - COMARCA; GABINETE DE PROCURADOR DE JUSTIÇA - SALA 909 1.333,00 0,00 578,00 0,00 0,00 0,00 0,00 0,00 0,00 31/08/2022
513 1471100 ANDRE BAMBIRRA DE PAULA REIS ESTAGIARIO BELO HORIZONTE; GABINETE DE PROCURADOR DE JUSTIÇA - SALA 715 0,00 0,00 0,00 204,00 0,00 0,00 0,00 0,00 0,00 31/08/2022
514 519200 ANDRE BORJA LANA ANALISTA DO MP BELO HORIZONTE - COMARCA; DIR CONTEUDO JORNALISTICO 1.333,00 0,00 578,00 0,00 0,00 0,00 0,00 0,00 0,00 31/08/2022
515 486000 ANDRE CARDOSO CAVALCANTI PROMOTOR 2A ENTRANCIA ITAJUBA - COMARCA; ITAJUBA-PJ-02PJ 1.333,00 0,00 3.200,47 0,00 16.002,33 0,00 0,00 0,00 488,96 31/08/2022
516 224900 ANDRE CHIO MAXIMO PROMOT.ENTRANC.ESPECIAL VESPASIANO - COMARCA; VESPASIANO-PJ-02PJ 1.333,00 0,00 3.368,91 0,00 5.614,85 0,00 0,00 0,00 0,00 31/08/2022
517 102400 ANDRE DE OLIVEIRA ANDRADE PROMOT.ENTRANC.ESPECIAL BELO HORIZONTE - COMARCA; BH-02PJ FAMILIA-GAB 030PJ 1.333,00 0,00 3.368,91 0,00 22.459,40 0,00 0,00 0,00 514,69 31/08/2022
518 656000 ANDRE DE OLIVEIRA SOUSA INVESTIGADOR DE POLICIA 2 BELO HORIZONTE - COMARCA; GAECO - SETOR POLICIAL CIVIL 1.333,00 0,00 0,00 0,00 0,00 0,00 0,00 0,00 0,00 31/08/2022
519 79200 ANDRE ESTEVAO UBALDINO PEREIRA PROCURADOR DE JUSTICA BELO HORIZONTE - COMARCA; GABINETE DE PROCURADOR DE JUSTIÇA - SALA 502 1.333,00 0,00 3.546,22 0,00 17.731,11 0,00 0,00 0,00 541,78 31/08/2022
520 1489700 ANDRE FELIPE REIS MENDES ESTAGIARIO BELO HORIZONTE; BH-09PJ AUDITORIA MILITAR-GAB 074PJ 0,00 0,00 0,00 168,00 0,00 0,00 0,00 0,00 0,00 31/08/2022
521 637200 ANDRE FERNANDES DA CUNHA OFICIAL DO MP MORADA NOVA DE MINAS - COMARCA; MORADA NOVA DE MINAS-PJ-UNPJ 1.333,00 0,00 578,00 0,00 0,00 0,00 0,00 0,00 0,00 31/08/2022
522 162800 ANDRE FERNANDO COLUCCO PROMOTOR 2A ENTRANCIA CASSIA - COMARCA; CASSIA-PJ-02PJ 1.333,00 0,00 3.200,47 0,00 5.334,11 0,00 0,00 0,00 488,96 31/08/2022
523 651500 ANDRE GONCALVES MARANHAO OFICIAL DO MP ANDRADAS - COMARCA; ANDRADAS-PJ-02PJ 1.333,00 0,00 578,00 0,00 0,00 0,00 0,00 0,00 0,00 31/08/2022
524 439200 ANDRE LEITE DE ALMEIDA PROMOT.ENTRANC.ESPECIAL VESPASIANO - COMARCA; VESPASIANO-PJ-03PJ 1.333,00 0,00 1.452,75 0,00 0,00 0,00 0,00 0,00 0,00 31/08/2022
525 166900 ANDRE LUIS ALVES DE MELO PROMOTOR 2A ENTRANCIA ARAGUARI - COMARCA; ARAGUARI-PJ-01PJ 1.333,00 0,00 3.200,47 0,00 10.668,22 0,00 0,00 0,00 0,00 31/08/2022
526 85000 ANDRE LUIS GARCIA DE PINHO PROMOT.ENTRANC.ESPECIAL BELO HORIZONTE - COMARCA; SUPER DE GESTAO DE PESSOAS-EM DISPONIBILIDADE 0,00 0,00 2.945,65 0,00 0,00 0,00 0,00 0,00 0,00 31/08/2022
527 521900 ANDRE LUIS GOMES SILVA ANALISTA DO MP FORMIGA - COMARCA; FORMIGA-PJ-02PJ 1.333,00 1.770,60 578,00 0,00 0,00 0,00 0,00 0,00 0,00 31/08/2022
528 340800 ANDRE LUIS MACHADO ARANTES PROMOTOR 2A ENTRANCIA PARÁ DE MINAS - COMARCA; PARA DE MINAS-PJ-05PJ 1.333,00 0,00 3.368,91 0,00 16.844,55 0,00 0,00 0,00 2.199,15 31/08/2022
529 304300 ANDRE LUIZ AVELAR ANALISTA DO MP BELO HORIZONTE - COMARCA; DIRETORIA DE REDES E BANCOS DE DADOS 1.333,00 0,00 578,00 0,00 0,00 0,00 0,00 0,00 0,00 31/08/2022
530 666100 ANDRE LUIZ FERREIRA VALADARES PROMOTOR 2A ENTRANCIA VARZEA DA PALMA - COMARCA; VARZEA DA PALMA-PJ-02PJ 1.333,00 0,00 1.104,64 0,00 16.002,33 0,00 0,00 0,00 488,96 31/08/2022
531 530200 ANDRE LUIZ NOLLI MERRIGHI PROMOT.ENTRANC.ESPECIAL SETE LAGOAS - COMARCA; SETE LAGOAS-PJ-03PJ 1.333,00 0,00 3.368,91 0,00 16.844,55 0,00 0,00 0,00 514,69 31/08/2022
532 1437400 ANDRE LUIZ SILVA NOGUEIRA TORRES ESTAGIARIO PASSOS; PASSOS-PJ-04PJ 0,00 0,00 0,00 264,00 0,00 0,00 0,00 0,00 0,00 31/08/2022
533 1348400 ANDRE LUIZ SOUZA ANDRADE ESTAGIARIO DIVINOPOLIS; COORD REG PP CENTRO-OESTE MG DIVINOPOLIS 0,00 0,00 0,00 204,00 0,00 0,00 0,00 0,00 0,00 31/08/2022
534 718800 ANDRE OBERG LEMOS PROMOTOR SUBSTITUTO GRAO MOGOL - COMARCA; GRAO MOGOL-PJ-UNPJ 1.333,00 0,00 1.546,48 0,00 0,00 0,00 0,00 0,00 0,00 31/08/2022
535 397400 ANDRE PATARO MYRRHA DE PAULA E SILVA ANALISTA DO MP BELO HORIZONTE - COMARCA; ASSESSORIA JURIDICO-ADMINISTRATIVA 1.333,00 885,30 578,00 0,00 0,00 0,00 0,00 0,00 0,00 31/08/2022
536 533200 ANDRE PEREIRA MAFIA PROMOTOR 2A ENTRANCIA ALÉM PARAÍBA - COMARCA; ALEM PARAIBA-PJ-01PJ 1.333,00 0,00 820,10 0,00 10.668,22 0,00 0,00 0,00 488,96 31/08/2022
537 441200 ANDRE SALLES DIAS PINTO PROMOTOR 2A ENTRANCIA IGARAPÉ - COMARCA; IGARAPE-PJ-01PJ 1.333,00 0,00 3.200,47 0,00 16.002,33 0,00 0,00 0,00 488,96 31/08/2022
538 237800 ANDRE SILVARES VASCONCELOS PROMOTOR 2A ENTRANCIA PIUMHI - COMARCA; PIUMHI-PJ-02PJ 1.333,00 0,00 2.741,48 0,00 21.336,44 0,00 0,00 0,00 488,96 31/08/2022
539 231800 ANDRE SPERLING PRADO PROMOT.ENTRANC.ESPECIAL BELO HORIZONTE - COMARCA; BH-19PJ SAUDE-GAB 047PJ 1.333,00 0,00 2.835,20 0,00 15.721,58 0,00 0,00 0,00 514,69 31/08/2022
540 666300 ANDRE TANURE DOMINGUES FIGUEIREDO PROMOTOR 2A ENTRANCIA PONTE NOVA - COMARCA; PONTE NOVA-PJ-05PJ 1.333,00 0,00 2.876,85 0,00 16.002,33 0,00 0,00 0,00 488,96 31/08/2022
541 650100 ANDRE THOME VARGAS OFICIAL DO MP LEOPOLDINA - COMARCA; LEOPOLDINA-PJ-04PJ 1.333,00 0,00 578,00 0,00 0,00 0,00 0,00 0,00 0,00 31/08/2022
542 231600 ANDRE TUMA DELBIM FERREIRA PROMOT.ENTRANC.ESPECIAL UBERABA - COMARCA; UBERABA-PJ-10PJ 1.333,00 0,00 984,12 0,00 12.352,67 0,00 0,00 0,00 514,69 31/08/2022
543 671500 ANDRE VALDERRAMAS FRANCO PROMOTOR SUBSTITUTO MONTE CARMELO - COMARCA; MONTE CARMELO-PJ-02PJ 1.333,00 0,00 773,24 0,00 15.202,21 0,00 0,00 0,00 464,51 31/08/2022
544 548500 ANDRE VINICIUS CARVALHO MEIRA ANALISTA DO MP JUIZ DE FORA - COMARCA; JUIZ DE FORA-PJ-24PJ 1.333,00 0,00 578,00 0,00 0,00 0,00 0,00 0,00 0,00 31/08/2022
545 297200 ANDRE WILLE ROSARIO ANALISTA DO MP BELO HORIZONTE - COMARCA; ASSESSORIA ESPECIAL DO PGJ 1.333,00 0,00 578,00 0,00 0,00 0,00 0,00 0,00 0,00 31/08/2022
546 224500 ANDREA BASILIO GONCALVES GOLLOP PROMOT.ENTRANC.ESPECIAL BELO HORIZONTE - COMARCA; BH-18PJ VIOLENCIA DOMESTICA-GAB 186PJ 1.333,00 0,00 3.368,91 0,00 16.844,55 0,00 0,00 0,00 514,69 31/08/2022
547 666400 ANDREA CLEMENTE BARBOSA DE SOUZA PROMOTOR SUBSTITUTO ITAÚNA - COMARCA; ITAUNA-PJ-03PJ 1.333,00 0,00 2.785,72 0,00 0,00 0,00 0,00 0,00 0,00 31/08/2022
548 423600 ANDREA COSTA GUALBERTO ALVES ANALISTA DO MP GOVERNADOR VALADARES - COMARCA; COORD REG PJ DEF EDU DIR CRIANCA ADOL RIODOCE 1.333,00 0,00 578,00 0,00 0,00 0,00 0,00 0,00 0,00 31/08/2022
549 230600 ANDREA CRISTINA CALDAS SANTIAGO PROMOT.ENTRANC.ESPECIAL CONSELHEIRO LAFAIETE - COMARCA; CONSELHEIRO LAFAIETE-PJ-07PJ 1.333,00 0,00 1.757,36 0,00 5.614,85 0,00 0,00 0,00 514,69 31/08/2022
550 467300 ANDREA DE CASSIA PENNA ALVERNAZ ANALISTA DO MP PONTE NOVA - COMARCA; PONTE NOVA-PJ-01PJ 1.333,00 0,00 578,00 0,00 0,00 0,00 0,00 0,00 0,00 31/08/2022
551 308000 ANDREA DE CASSIA SANTOS OLIVEIRA ANALISTA DO MP BELO HORIZONTE - COMARCA; COORD DE GABINETE DO PGJ 1.333,00 0,00 578,00 0,00 0,00 0,00 0,00 0,00 0,00 31/08/2022
552 106300 ANDREA DE FIGUEIREDO SOARES PROCURADOR DE JUSTICA BELO HORIZONTE - COMARCA; GABINETE DE PROCURADOR DE JUSTIÇA - SALA 709 1.333,00 0,00 3.303,83 0,00 17.731,11 0,00 0,00 0,00 541,78 31/08/2022
553 349500 ANDREA DE OLIVEIRA LOIOLA REGIS OFICIAL DO MP IGUATAMA - COMARCA; IGUATAMA-PJ-UNPJ 1.333,00 0,00 578,00 0,00 0,00 0,00 0,00 0,00 0,00 31/08/2022
554 287900 ANDREA FERNANDES PENA MARTINS OFICIAL DO MP MONTES CLAROS - COMARCA; MONTES CLAROS-PJ-09PJ 1.333,00 0,00 578,00 0,00 0,00 0,00 0,00 0,00 0,00 31/08/2022
555 300800 ANDREA FERREIRA ANALISTA DO MP LAVRAS - COMARCA; LAVRAS-PJ-04PJ 1.333,00 0,00 578,00 0,00 0,00 0,00 0,00 0,00 0,00 31/08/2022
556 395100 ANDREA LANNA MENDES NOVAIS ANALISTA DO MP BELO HORIZONTE - COMARCA; PROMOT ESTADUAL DE DEF PATRI CULT E TUR DE MG 1.333,00 0,00 578,00 0,00 0,00 0,00 0,00 0,00 0,00 31/08/2022
557 67300 ANDREA LEAO MAGALHAES ROQUE ASSESSOR ADMINISTRATIVO IV BELO HORIZONTE - COMARCA; COORD ESTADUAL COMBATE CRIMES CIBERNETICOS 1.333,00 0,00 578,00 0,00 0,00 0,00 0,00 0,00 0,00 31/08/2022
558 335700 ANDREA LOPES PEREIRA ANALISTA DO MP GOVERNADOR VALADARES - COMARCA; COORD REG DO MA DA BACIA DO RIO DOCE 1.333,00 0,00 578,00 0,00 0,00 0,00 0,00 0,00 0,00 31/08/2022
559 224700 ANDREA MARIA NESSRALLA BAHURY PROMOT.ENTRANC.ESPECIAL BELO HORIZONTE - COMARCA; BH-12PJ JUIZO CRIMINAL-GAB 089PJ 1.333,00 0,00 3.368,91 0,00 11.229,70 0,00 0,00 0,00 0,00 31/08/2022
560 167000 ANDREA MISMOTTO CARELLI PROMOT.ENTRANC.ESPECIAL BELO HORIZONTE - COMARCA; BH-26 CRIME CONT CRIAN ADOL-GAB 048PJ 1.333,00 0,00 1.077,84 0,00 16.844,55 0,00 0,00 0,00 0,00 31/08/2022
561 1436600 ANDREA ROSA DE SOUSA ESTAGIARIO TEOFILO OTONI; TEOFILO OTONI-PJ-04PJ 0,00 0,00 0,00 252,00 0,00 0,00 0,00 0,00 0,00 31/08/2022
562 389200 ANDREA TUPINI DOS SANTOS TRISTAO DA ROCHA GESTOR ADM. SECRETARIA IV BELO HORIZONTE - COMARCA; BH-13ª PJ JUÍZO DE TÓXICOS-SECRETARIA 1.333,00 0,00 578,00 0,00 0,00 0,00 0,00 0,00 0,00 31/08/2022
563 419000 ANDREIA BARBOSA DE ALMEIDA ANALISTA DO MP BELO HORIZONTE - COMARCA; SUPER DE RECURSOS HUMANOS-COOP REMOTA 1.333,00 0,00 578,00 0,00 0,00 0,00 0,00 0,00 0,00 31/08/2022
564 281501 ANDREIA CARLA COSTA ANALISTA DO MP UBÁ - COMARCA; UBA-PJ-02PJ 1.333,00 0,00 578,00 0,00 0,00 0,00 0,00 0,00 0,00 31/08/2022
565 477100 ANDREIA DE ALMEIDA RIBEIRO MELO OFICIAL DO MP CONTAGEM - COMARCA; CONTAGEM-PJ-SECRETARIA 1.333,00 0,00 578,00 0,00 415,22 0,00 0,00 0,00 38,06 31/08/2022
566 1170600 ANDREIA DE PAULA CAMPOS NUNES ESTAGIARIO ANDRELANDIA; ANDRELANDIA-PJ-UNPJ 0,00 0,00 0,00 36,00 0,00 0,00 0,00 0,00 0,00 31/08/2022
567 619000 ANDREIA FERREIRA NORONHA COORDENADOR II BELO HORIZONTE - COMARCA; DIRETORIA DE SERVICO CRIMINAL 1.333,00 0,00 578,00 0,00 0,00 0,00 0,00 0,00 0,00 31/08/2022
568 424000 ANDREIA LUCIA COUTO ANALISTA DO MP BELO HORIZONTE - COMARCA; BH-18PJ DIREITOS HUMANOS-SECRETARIA 1.333,00 0,00 578,00 0,00 0,00 0,00 0,00 0,00 0,00 31/08/2022
569 1138400 ANDREIA MARIA FIRMO ESTAGIARIO BELO HORIZONTE; PROC. JUSTICA DIR. DIFUSOS E COLETIVOS 0,00 0,00 0,00 12,00 0,00 0,00 0,00 0,00 0,00 31/08/2022
570 370100 ANDREIA MARIA SILVA PINTO OFICIAL DO MP CORONEL FABRICIANO - COMARCA; CORONEL FABRICIANO-PJ-01PJ 1.333,00 885,30 578,00 0,00 0,00 0,00 0,00 0,00 0,00 31/08/2022
571 382100 ANDREIA NATALI PEREIRA DE OLIVEIRA OFICIAL DO MP PRADOS - COMARCA; PRADOS-PJ-UNPJ 1.333,00 0,00 578,00 0,00 0,00 0,00 0,00 0,00 0,00 31/08/2022
572 198701 ANDREIA NUNES DURAES PROMOTOR 2A ENTRANCIA BOCAIÚVA - COMARCA; BOCAIUVA-PJ-02PJ 1.333,00 0,00 0,00 0,00 21.336,44 0,00 0,00 0,00 488,96 31/08/2022
573 275200 ANDREIA RIBEIRO FREITAS OFICIAL DO MP VIÇOSA - COMARCA; VICOSA-PJ-04PJ 1.333,00 0,00 578,00 0,00 0,00 0,00 0,00 0,00 0,00 31/08/2022
574 352200 ANDREIA XAVIER PEREIRA OFICIAL DO MP CLÁUDIO - COMARCA; CLAUDIO-PJ-UNPJ 1.333,00 1.327,95 578,00 0,00 0,00 0,00 0,00 0,00 0,00 31/08/2022
575 638500 ANDRESA ALVES FEITOSA CASAGRANDE ANALISTA DO MP LAVRAS - COMARCA; COORD REG DO MA DA BACIA DO RIO GRANDE 1.333,00 0,00 578,00 0,00 0,00 0,00 0,00 0,00 0,00 31/08/2022
576 1331800 ANDRESSA ALBUQUERQUE BATISTA ESTAGIARIO JUIZ DE FORA; JUIZ DE FORA-PJ-15PJ 0,00 0,00 0,00 264,00 0,00 0,00 0,00 0,00 0,00 31/08/2022
577 1221100 ANDRESSA BARBOSA PARANHOS ESTAGIARIO PATOS DE MINAS; COORD REG SAUDE MACRORREGIAO SANIT NOROESTE 0,00 0,00 0,00 252,00 0,00 0,00 0,00 0,00 0,00 31/08/2022
578 1466400 ANDRESSA BARROS TOMAZ ESTAGIARIO ITUMIRIM; ITUMIRIM-PJ-UNPJ 0,00 0,00 0,00 264,00 0,00 0,00 0,00 0,00 0,00 31/08/2022
579 1475200 ANDRESSA DA SILVA COUTO ESTAGIARIO BELO HORIZONTE; GABINETE DE PROCURADOR DE JUSTIÇA - SALA 702 0,00 0,00 0,00 252,00 0,00 0,00 0,00 0,00 0,00 31/08/2022
580 210000 ANDRESSA DE OLIVEIRA LANCHOTTI PROMOT.ENTRANC.ESPECIAL BELO HORIZONTE - COMARCA; BH-12PJ JUIZO CRIMINAL-GAB 104PJ 1.333,00 0,00 3.368,91 0,00 22.459,40 0,00 0,00 0,00 514,69 31/08/2022
581 1372300 ANDRESSA DE OLIVEIRA RESENDE ESTAGIARIO ARAGUARI; ARAGUARI-PJ-06PJ 0,00 0,00 0,00 252,00 0,00 0,00 0,00 0,00 0,00 31/08/2022
582 1203800 ANDRESSA DORNELAS BORGES ESTAGIARIO PATOS DE MINAS; PATOS DE MINAS-PJ-SECRETARIA 0,00 0,00 0,00 12,00 0,00 0,00 0,00 0,00 0,00 31/08/2022
583 383700 ANDRESSA EDUARDO SOUZA ANALISTA DO MP OURO BRANCO - COMARCA; OURO BRANCO-PJ-SECRETARIA 1.333,00 885,30 578,00 0,00 0,00 0,00 0,00 0,00 0,00 31/08/2022
584 1393200 ANDRESSA ESTEVAO ESTAGIARIO POUSO ALEGRE; POUSO ALEGRE-PJ-04PJ 0,00 0,00 0,00 204,00 0,00 0,00 0,00 0,00 0,00 31/08/2022
585 485500 ANDRESSA ISABELLE FERREIRA BARRETO PROMOTOR 2A ENTRANCIA CONCEICAO DAS ALAGOAS - COMARCA; CONCEICAO DAS ALAGOAS-PJ-02PJ 1.333,00 0,00 3.200,47 0,00 16.002,33 0,00 0,00 0,00 488,96 31/08/2022
586 678400 ANDRESSA LUIZA SILVA LOPES ASSESSOR PROMOTOR JUSTICA CARMO DO PARANAÍBA - COMARCA; CARMO DO PARANAIBA-PJ-02PJ 1.333,00 0,00 578,00 0,00 0,00 0,00 0,00 0,00 0,00 31/08/2022
587 426200 ANDRESSA MENDES CASAL OFICIAL DO MP BELO HORIZONTE - COMARCA; DIR ESTRUTURA E PROCESSOS ORGANIZACIONAIS 1.333,00 885,30 578,00 0,00 0,00 0,00 0,00 0,00 0,00 31/08/2022
588 390100 ANDRESSA RIBEIRO PUCCI OFICIAL DO MP UBERABA - COMARCA; UBERABA-PJ-14PJ 1.333,00 0,00 578,00 0,00 0,00 0,00 0,00 0,00 0,00 31/08/2022
589 1366000 ANDRESSA RODRIGUES DOS SANTOS ESTAGIARIO GUAXUPE; GUAXUPE-PJ-02PJ 0,00 0,00 0,00 264,00 0,00 0,00 0,00 0,00 0,00 31/08/2022
590 462500 ANDREZA APARECIDA COSTA E SILVA ANALISTA DO MP CONSELHEIRO LAFAIETE - COMARCA; CONSELHEIRO LAFAIETE-PJ-02PJ 1.333,00 0,00 578,00 0,00 0,00 0,00 0,00 0,00 0,00 31/08/2022
591 1406200 ANDREZA APARECIDA RABELO BELO ESTAGIARIO ITAGUARA; ITAGUARA-PJ-UNPJ 0,00 0,00 0,00 264,00 0,00 0,00 0,00 0,00 0,00 31/08/2022
592 677700 ANDREZA DE LOURDES FERREIRA DE PAIVA ASSESSOR PROMOTOR JUSTICA ABRE CAMPO - COMARCA; ABRE CAMPO-PJ-01PJ 1.333,00 0,00 578,00 0,00 0,00 0,00 0,00 0,00 0,00 31/08/2022
593 1483200 ANDREZA FARIA MOSELI ESTAGIARIO VARGINHA; VARGINHA-PJ-04PJ 0,00 0,00 0,00 264,00 0,00 0,00 0,00 0,00 0,00 31/08/2022
594 1447600 ANDREZZA CRISTINA DIAS DE ANDRADE ESTAGIARIO SANTOS DUMONT; SANTOS DUMONT-PJ-01PJ 0,00 0,00 0,00 252,00 0,00 0,00 0,00 0,00 0,00 31/08/2022
595 537800 ANDREZZA LUZIA DE OLIVEIRA ALVES ANALISTA DO MP PATOS DE MINAS - COMARCA; COORD REG PJ DEF EDU DIR CRI ADO AL PAR NOROE 1.333,00 0,00 578,00 0,00 0,00 0,00 0,00 0,00 0,00 31/08/2022
596 491600 ANE PATRICIA RIBEIRO DUARTE ANALISTA DO MP SETE LAGOAS - COMARCA; SETE LAGOAS-PJ-11PJ 1.333,00 0,00 578,00 0,00 0,00 0,00 0,00 0,00 0,00 31/08/2022
597 361900 ANELISA CARDOSO RIBEIRO PROMOT.ENTRANC.ESPECIAL CONTAGEM - COMARCA; CONTAGEM-PJ-05PJ 1.333,00 0,00 1.921,37 0,00 22.459,40 0,00 0,00 0,00 514,69 31/08/2022
598 465800 ANELISE GAMA ASSESSOR ADMINISTRATIVO III BELO HORIZONTE - COMARCA; BH-18PJ VIOLENCIA DOMESTICA-SECRETARIA 1.333,00 0,00 578,00 0,00 0,00 0,00 0,00 0,00 0,00 31/08/2022
599 535200 ANELIZE FERNANDA ALVES VILARINHO OFICIAL DO MP CAPINÓPOLIS - COMARCA; CAPINOPOLIS-PJ-UNPJ 1.333,00 1.770,60 578,00 0,00 0,00 0,00 0,00 0,00 0,00 31/08/2022
600 197200 ANGELA COELHO SALDANHA OFICIAL DO MP PARÁ DE MINAS - COMARCA; PARA DE MINAS-PJ-03PJ 1.333,00 0,00 578,00 0,00 0,00 0,00 0,00 0,00 0,00 31/08/2022
601 307400 ANGELA CRISTINA GONCALVES MUNIZ ANALISTA DO MP UBERLÂNDIA - COMARCA; UBERLANDIA-PJ-SEC FAMILIA 1.333,00 0,00 578,00 0,00 0,00 0,00 0,00 0,00 0,00 31/08/2022
602 157100 ANGELA FABERO PROMOT.ENTRANC.ESPECIAL BELO HORIZONTE - COMARCA; BH-23PJ INFRACIONAL-GAB 145PJ 1.333,00 0,00 3.368,91 0,00 12.352,67 0,00 0,00 0,00 514,69 31/08/2022
603 191800 ANGELA MARIA DE OLIVEIRA OFICIAL DO MP GUARANÉSIA - COMARCA; GUARANESIA-PJ-SECRETARIA 1.333,00 0,00 578,00 0,00 4.980,96 0,00 0,00 0,00 456,59 31/08/2022
604 497400 ANGELA MARIA HENRIQUES ANALISTA DO MP BELO HORIZONTE - COMARCA; COORD REG BACIAS RIO VELHAS E PARAOPEBA 1.333,00 0,00 578,00 0,00 0,00 0,00 0,00 0,00 0,00 31/08/2022
605 54600 ANGELA MARIA PEREIRA GRAVINA PROMOT.ENTRANC.ESPECIAL JUIZ DE FORA - COMARCA; JUIZ DE FORA-PJ-11PJ 1.333,00 0,00 1.405,88 0,00 16.844,55 0,00 0,00 0,00 514,69 31/08/2022
606 1482400 ANGELI COSTA MARTINS ESTAGIARIO ARAGUARI; ARAGUARI-PJ-04PJ 0,00 0,00 0,00 252,00 0,00 0,00 0,00 0,00 0,00 31/08/2022
607 260700 ANGELICA CRISTINA AZEVEDO MOREIRA MOUCO OFICIAL DO MP UBÁ - COMARCA; UBA-PJ-05PJ 1.333,00 0,00 578,00 0,00 0,00 0,00 0,00 0,00 0,00 31/08/2022
608 1196700 ANGELICA DE MELO ANDRADE ESTAGIARIO CONTAGEM; CONTAGEM-PJ-04PJ 0,00 0,00 0,00 264,00 0,00 0,00 0,00 0,00 0,00 31/08/2022
609 1252800 ANGELICA DE SOUZA CORTES ESTAGIARIO GOVERNADOR VALADARES; GOVERNADOR VALADARES-PJ-12PJ 0,00 0,00 0,00 252,00 0,00 0,00 0,00 0,00 0,00 31/08/2022
610 708300 ANGELICA NUNES VIEIRA DA SILVA ASSESSOR PROMOTOR JUSTICA IBIRITÉ - COMARCA; IBIRITE-PJ-02PJ 1.333,00 0,00 578,00 0,00 0,00 0,00 0,00 0,00 0,00 31/08/2022
611 334600 ANGELICA PANISSA DE FREITAS GALLATI OFICIAL DO MP GUAXUPÉ - COMARCA; GUAXUPE-PJ-02PJ 1.333,00 885,30 578,00 0,00 0,00 0,00 0,00 0,00 0,00 31/08/2022
612 660400 ANGELICA POLLYANA QUEIROZ DE MEDEIROS PROMOTOR 2A ENTRANCIA FRUTAL - COMARCA; FRUTAL-PJ-01PJ 1.333,00 0,00 820,10 0,00 5.334,11 0,00 0,00 0,00 488,96 31/08/2022
613 521100 ANGELICA SALES MOREIRA OFICIAL DO MP BELO HORIZONTE - COMARCA; BH-02PJ FAMILIA-SECRETARIA 1.333,00 0,00 578,00 0,00 0,00 0,00 0,00 0,00 0,00 31/08/2022
614 1477400 ANGELICA SILVA LEMOS SANTOS ESTAGIARIO DIVINOPOLIS; DIVINOPOLIS-PJ-13PJ 0,00 0,00 0,00 240,00 0,00 0,00 0,00 0,00 0,00 31/08/2022
615 466500 ANGELLO MARQUES AGRELLI ANALISTA DO MP MAR DE ESPANHA - COMARCA; MAR DE ESPANHA-PJ-UNPJ 1.333,00 0,00 578,00 0,00 0,00 0,00 0,00 0,00 0,00 31/08/2022
616 222700 ANGELO ALEXANDRE MARZANO PROMOT.ENTRANC.ESPECIAL BELO HORIZONTE - COMARCA; BH-PJ AUXILIAR-GAB 141PJ 1.333,00 0,00 2.694,61 0,00 22.459,40 0,00 0,00 0,00 514,69 31/08/2022
617 167100 ANGELO ANSANELLI JUNIOR PROMOTOR 2A ENTRANCIA FORMIGA - COMARCA; FORMIGA-PJ-02PJ 1.333,00 0,00 3.200,47 0,00 21.336,44 0,00 0,00 0,00 488,96 31/08/2022
618 363300 ANGELO VERDOLIN HENRIQUES ANALISTA DO MP SETE LAGOAS - COMARCA; SETE LAGOAS-PJ-04PJ 1.333,00 0,00 578,00 0,00 0,00 0,00 0,00 0,00 0,00 31/08/2022
619 267600 ANIBAL TAMAOKI PROMOT.ENTRANC.ESPECIAL BELO HORIZONTE - COMARCA; BH-18PJ VIOLENCIA DOMESTICA-GAB 053PJ 1.333,00 0,00 984,12 0,00 16.844,55 0,00 0,00 0,00 514,69 31/08/2022
620 1430100 ANIELLE FERNANDA EDUARDO SILVA ESTAGIARIO ITABIRA; ITABIRA-PJ-01PJ 0,00 0,00 0,00 252,00 0,00 0,00 0,00 0,00 0,00 31/08/2022
621 250900 ANISIO APARECIDO SANTOS OFICIAL DO MP BETIM - COMARCA; BETIM - SECRETARIA DAS PJS CRIMINAIS 1.333,00 0,00 578,00 0,00 0,00 0,00 0,00 0,00 0,00 31/08/2022
622 1256500 ANNA CAROLINA BARBOSA METZKER ESTAGIARIO POCOS DE CALDAS; POCOS DE CALDAS-PJ-06PJ 0,00 0,00 0,00 264,00 0,00 0,00 0,00 0,00 0,00 31/08/2022
623 1478900 ANNA CAROLINA DE SENNA BARCANTE ESTAGIARIO FORMIGA; FORMIGA-PJ-04PJ 0,00 0,00 0,00 216,00 0,00 0,00 0,00 0,00 0,00 31/08/2022
624 698100 ANNA CAROLINA POLICARIO BERTOLIN ASSESSOR PROCURADOR JUSTICA BELO HORIZONTE - COMARCA; PROC. JUSTICA DIR. DIFUSOS E COLETIVOS-SEC 1.333,00 0,00 578,00 0,00 0,00 0,00 0,00 0,00 0,00 31/08/2022
625 1330700 ANNA CAROLINE GEMIMA FERREIRA PEREIRA ESTAGIARIO UBERABA; UBERABA-PJ-08PJ 0,00 0,00 0,00 252,00 0,00 0,00 0,00 0,00 0,00 31/08/2022
626 1459600 ANNA CAROLYNNA SANTOS REZENDE DE ALMEIDA - 2:14596 ESTAGIARIO PONTE NOVA; PONTE NOVA-PJ-01PJ 0,00 0,00 0,00 264,00 0,00 0,00 0,00 0,00 0,00 31/08/2022
627 253400 ANNA FLAVIA LEHMAN ANALISTA DO MP BELO HORIZONTE - COMARCA; SUPRIN DE PLANEJAMENTO E COORDENACAO 1.333,00 0,00 578,00 0,00 0,00 0,00 0,00 0,00 0,00 31/08/2022
628 1372100 ANNA LARA FERREIRA ESTAGIARIO PARA DE MINAS; PARA DE MINAS-PJ-05PJ 0,00 0,00 0,00 264,00 0,00 0,00 0,00 0,00 0,00 31/08/2022
629 1395600 ANNA LUISA FERREIRA DE OLIVEIRA ESTAGIARIO CONTAGEM; CONTAGEM-PJ-25PJ 0,00 0,00 0,00 204,00 0,00 0,00 0,00 0,00 0,00 31/08/2022
630 1190300 ANNA LUISA MARTINS NOGUEIRA ESTAGIARIO LAGOA SANTA; LAGOA SANTA - 03ª PJ 0,00 0,00 0,00 48,00 0,00 0,00 0,00 0,00 0,00 31/08/2022
631 688800 ANNA LUIZA MATTOS DUARTE ASSESSOR PROCURADOR JUSTICA BELO HORIZONTE - COMARCA; GABINETE DE PROCURADOR DE JUSTIÇA - SALA 305 1.333,00 0,00 578,00 0,00 0,00 0,00 0,00 0,00 0,00 31/08/2022
632 1269400 ANNA LUIZA VIRTUOSO ESTAGIARIO IPATINGA; IPATINGA-PJ-10PJ 0,00 0,00 0,00 240,00 0,00 0,00 0,00 0,00 0,00 31/08/2022
633 1440200 ANNA MARINA DIAS QUEIROZ PEREIRA ESTAGIARIO MONTES CLAROS; MONTES CLAROS-PJ-01PJ 0,00 0,00 0,00 252,00 0,00 0,00 0,00 0,00 0,00 31/08/2022
634 1446900 ANNA RAFAELA LESSA DA SILVA ESTAGIARIO ITUIUTABA; ITUIUTABA-PJ-03PJ 0,00 0,00 0,00 240,00 0,00 0,00 0,00 0,00 0,00 31/08/2022
635 1230900 ANNE CAROLINE DASSUMPCAO FONSECA ESTAGIARIO DIVINOPOLIS; DIVINOPOLIS-PJ-03PJ 0,00 0,00 0,00 264,00 0,00 0,00 0,00 0,00 0,00 31/08/2022
636 447600 ANNGELUCE ALCANTARA DE CAMPOS OFICIAL DO MP DIVINÓPOLIS - COMARCA; DIVINOPOLIS-PJ-SECRETARIA 1.333,00 0,00 578,00 0,00 0,00 0,00 0,00 0,00 0,00 31/08/2022
637 119600 ANSELMO BORGES PARREIRAS OFICIAL DO MP BONFIM - COMARCA; BONFIM-PJ-UNPJ 1.333,00 0,00 578,00 0,00 0,00 0,00 0,00 0,00 0,00 31/08/2022
638 630300 ANTONIA GOMES RAMALHO OFICIAL DO MP NOVO CRUZEIRO - COMARCA; NOVO CRUZEIRO-PJ-UNPJ 1.333,00 1.770,60 578,00 0,00 0,00 0,00 0,00 0,00 0,00 31/08/2022
639 73100 ANTONIO AURELIO SANTOS PROCURADOR DE JUSTICA BELO HORIZONTE - COMARCA; CAO-CONFLITOS AGRARIOS 1.333,00 0,00 2.811,76 0,00 11.820,74 0,00 0,00 0,00 541,78 31/08/2022
640 157300 ANTONIO BORGES DA SILVA PROMOTOR 2A ENTRANCIA SÃO LOURENÇO - COMARCA; SAO LOURENCO-PJ-02PJ 1.333,00 0,00 3.200,47 0,00 16.002,33 0,00 0,00 0,00 488,96 31/08/2022
641 1493700 ANTONIO CARLOS DOMINGUES JUNIOR ESTAGIARIO ESTRELA DO SUL; ESTRELA DO SUL-PJ-UNPJ 0,00 0,00 0,00 120,00 0,00 0,00 0,00 0,00 0,00 31/08/2022
642 401600 ANTONIO CARLOS GUEDES AROUCA ANALISTA DO MP BELO HORIZONTE - COMARCA; ASSESSORIA JURIDICO-ADMINISTRATIVA 1.333,00 0,00 578,00 0,00 0,00 0,00 0,00 0,00 0,00 31/08/2022
643 1298900 ANTONIO DE OLIVEIRA SOUZA JUNIOR ESTAGIARIO UBERLANDIA; UBERLANDIA-PJ-24PJ 0,00 0,00 0,00 252,00 0,00 0,00 0,00 0,00 0,00 31/08/2022
644 76600 ANTONIO DE PADOVA MARCHI JUNIOR PROCURADOR DE JUSTICA BELO HORIZONTE - COMARCA; GABINETE DE PROCURADOR DE JUSTIÇA - SALA 1006 1.333,00 0,00 3.046,09 0,00 17.731,11 0,00 0,00 0,00 541,78 31/08/2022
645 101900 ANTONIO DIAS MAIA PROCURADOR DE JUSTICA BELO HORIZONTE - COMARCA; GABINETE DE PROCURADOR DE JUSTIÇA - SALA 808 1.333,00 0,00 3.367,72 0,00 17.731,11 0,00 0,00 0,00 541,78 31/08/2022
646 84600 ANTONIO DIOGO DA ROCHA PROMOTOR 1A ENTRANCIA BOTELHOS - COMARCA; BOTELHOS-PJ-UNPJ 1.333,00 0,00 2.811,76 0,00 20.269,61 0,00 0,00 0,00 464,51 31/08/2022
647 333900 ANTONIO GONCALVES DE SOUZA FILHO OFICIAL DO MP BELO HORIZONTE - COMARCA; DIRETORIA DE CONTABILIDADE 1.333,00 0,00 578,00 0,00 0,00 0,00 0,00 0,00 0,00 31/08/2022
648 340600 ANTONIO HENRIQUE FRANCO LOPES PROMOT.ENTRANC.ESPECIAL BELO HORIZONTE - COMARCA; ASSESSORIA ESPECIAL-GABINETE DOS ASSESSORES 1.333,00 0,00 1.874,51 0,00 13.475,64 0,00 0,00 0,00 514,69 31/08/2022
649 67600 ANTONIO JOAQUIM SCHELLENBERGER FERNANDES PROCURADOR DE JUSTICA BELO HORIZONTE - COMARCA; PROC JUSTICA DIR DIFUSOS E COLETIVOS-GAB004 1.333,00 0,00 2.811,76 0,00 17.731,11 0,00 0,00 0,00 541,78 31/08/2022
650 77300 ANTONIO JOSE CHINELATO PROCURADOR DE JUSTICA BELO HORIZONTE - COMARCA; GABINETE DE PROCURADOR DE JUSTIÇA - SALA 1008 1.333,00 0,00 0,00 0,00 23.641,48 0,00 0,00 0,00 541,78 31/08/2022
651 211800 ANTONIO JOSE DE OLIVEIRA PROMOTOR 2A ENTRANCIA PASSOS - COMARCA; PASSOS-PJ-06PJ 1.333,00 0,00 3.200,47 0,00 21.336,44 0,00 0,00 0,00 488,96 31/08/2022
652 1383200 ANTONIO LOPES DAS CHAGAS ESTAGIARIO CARATINGA; CARATINGA-PJ-03PJ 0,00 0,00 0,00 252,00 0,00 0,00 0,00 0,00 0,00 31/08/2022
653 1272200 ANTONIO MANOEL SANTOS DA SILVA ESTAGIARIO BELO HORIZONTE; GABINETE DE PROCURADOR DE JUSTIÇA - SALA 414 0,00 0,00 0,00 96,00 181,25 0,00 0,00 0,00 0,00 31/08/2022
654 176100 ANTONIO MARCELO CAMPOS CAMPANELLA OFICIAL DO MP BELO HORIZONTE - COMARCA; COORD DE GABINETE DO PGJ 1.333,00 0,00 578,00 0,00 5.493,71 0,00 0,00 0,00 503,59 31/08/2022
655 1438000 ANTONIO MARCIO OLIVEIRA SOUZA ESTAGIARIO BELO HORIZONTE; GABINETE DE PROCURADOR DE JUSTIÇA - SALA 1015 0,00 0,00 0,00 96,00 0,00 0,00 0,00 0,00 0,00 31/08/2022
656 321001 ANTONIO OLINTO VIEIRA MACHADO ANALISTA DO MP BELO HORIZONTE - COMARCA; CENTRAL DE APOIO TECN-SETOR DE MEIO AMBIENTE 1.333,00 0,00 578,00 0,00 0,00 0,00 0,00 0,00 0,00 31/08/2022
657 356200 ANTONIO PAULA DA SILVA OFICIAL DO MP JUIZ DE FORA - COMARCA; JUIZ DE FORA-PJ-20PJ 1.333,00 0,00 578,00 0,00 0,00 0,00 0,00 0,00 0,00 31/08/2022
658 63400 ANTONIO PEDRO DA SILVA MELO PROMOT.ENTRANC.ESPECIAL SÃO JOÃO DEL REI - COMARCA; SAO JOAO DEL REI-PJ-01PJ 1.333,00 0,00 2.811,76 0,00 11.229,70 0,00 0,00 0,00 514,69 31/08/2022
659 119900 ANTONIO RODRIGUES DE PINHO OFICIAL DO MP GUANHÃES - COMARCA; GUANHAES-PJ-01PJ 1.333,00 0,00 578,00 0,00 0,00 0,00 0,00 0,00 0,00 31/08/2022
660 373300 ANTONIO SERGIO ANANIAS OFICIAL DO MP SÃO JOÃO NEPOMUCENO - COMARCA; SAO JOAO NEPOMUCENO-PJ-01PJ 1.333,00 0,00 578,00 0,00 0,00 0,00 0,00 0,00 0,00 31/08/2022
661 93500 ANTONIO SERGIO ROCHA DE PAULA PROCURADOR DE JUSTICA BELO HORIZONTE - COMARCA; PROC JUSTICA DIR DIFUSOS E COLETIVOS-GAB003 1.333,00 0,00 3.546,22 0,00 17.731,11 0,00 0,00 0,00 541,78 31/08/2022
662 68700 ANTONIO SERGIO TONET PROCURADOR DE JUSTICA BELO HORIZONTE - COMARCA; GABINETE DE PROCURADOR DE JUSTIÇA - SALA 913 1.333,00 0,00 3.546,22 0,00 7.092,44 0,00 0,00 0,00 541,78 31/08/2022
663 608100 ANTONIO SIDINEY VIEIRA LEMOS ANALISTA DO MP PIRAPORA - COMARCA; PIRAPORA-PJ-01PJ 1.333,00 885,30 578,00 0,00 0,00 0,00 0,00 0,00 0,00 31/08/2022
664 374700 ANTONIO SILVA NETO OFICIAL DO MP BELO HORIZONTE - COMARCA; BH-12PJ JUIZO CRIMINAL-SECRETARIA 1.333,00 885,30 578,00 0,00 0,00 0,00 0,00 0,00 0,00 31/08/2022
665 636700 ANTONIUS VITORIANO FERNANDES OFICIAL DO MP BELO HORIZONTE - COMARCA; ASSESSORIA JURIDICA DO PROCON-MG 1.333,00 0,00 578,00 0,00 0,00 0,00 0,00 0,00 0,00 31/08/2022
666 1188100 ANY KARLA DE SOUZA GOMES SANTOS ESTAGIARIO MEDINA; MEDINA-PJ-UNPJ 0,00 0,00 0,00 264,00 0,00 0,00 0,00 0,00 0,00 31/08/2022
667 413200 ANY PEREIRA SILVA ANALISTA DO MP TRÊS PONTAS - COMARCA; TRES PONTAS-PJ-01PJ 1.333,00 0,00 578,00 0,00 0,00 0,00 0,00 0,00 0,00 31/08/2022
668 151401 APARECIDA DE FATIMA MENDES DE ALMEIDA ASSESSOR ADMINISTRATIVO II JUIZ DE FORA - COMARCA; JUIZ DE FORA-PJ-SECRETARIA 1.333,00 0,00 578,00 0,00 0,00 0,00 0,00 0,00 0,00 31/08/2022
669 329300 APARECIDA MARIA MELO DE ASSIS OFICIAL DO MP BELO HORIZONTE - COMARCA; BH-18PJ DIREITOS HUMANOS-SECRETARIA 1.333,00 0,00 578,00 0,00 0,00 0,00 0,00 0,00 0,00 31/08/2022
670 475300 APARECIDA MARLENE FREIRE ROSA ANALISTA DO MP BELO HORIZONTE - COMARCA; BH-02PJ FAMILIA-SECRETARIA 1.333,00 0,00 578,00 0,00 0,00 0,00 0,00 0,00 0,00 31/08/2022
671 653000 APARECIDA ROSA DE LIMA ASSESSOR ADMINISTRATIVO III BELO HORIZONTE - COMARCA; SECRETARIA PROCESSOS DISCIPES ADMINISTRATIVOS 1.333,00 0,00 578,00 0,00 0,00 0,00 0,00 0,00 0,00 31/08/2022
672 354500 APARECIDA VIEIRA DE CARVALHO OFICIAL DO MP BELO HORIZONTE - COMARCA; DIVISÃO DE EDUCAÇÃO PARA O CONSUMO 1.333,00 0,00 578,00 0,00 0,00 0,00 0,00 0,00 0,00 31/08/2022
673 551000 ARACELES BICALHO FELIX ANALISTA DO MP MANHUAÇU - COMARCA; MANHUACU-PJ-SECRETARIA 1.333,00 885,30 578,00 0,00 0,00 0,00 0,00 0,00 0,00 31/08/2022
674 286200 ARACELI MEDRADO DOS SANTOS LIMA OFICIAL DO MP PARACATU - COMARCA; PARACATU-PJ-03PJ 1.333,00 0,00 578,00 0,00 0,00 0,00 0,00 0,00 0,00 31/08/2022
675 112200 ARAQUEM AUGUSTO DE MATOS AGENTE DO MP BELO HORIZONTE - COMARCA; BH-23PJ CIVEL-SEC EXP CIVEIS 1.333,00 0,00 578,00 0,00 0,00 0,00 0,00 0,00 0,00 31/08/2022
676 280600 ARDUINO FRATTEZI ANALISTA DO MP BELO HORIZONTE - COMARCA; CENTRAL DE APOIO TECNICO-SETOR CONTABIL 1.333,00 0,00 578,00 0,00 0,00 0,00 0,00 0,00 0,00 31/08/2022
677 67700 ARESLAN EUSTAQUIO MARTINS PROMOTOR 1A ENTRANCIA CARMO DA MATA - COMARCA; CARMO DA MATA-PJ-UNPJ 1.333,00 0,00 3.040,44 0,00 10.134,80 0,00 0,00 0,00 464,51 31/08/2022
678 1481300 ARIANE DA SILVA MENDES - 2:1481300 ESTAGIARIO ABRE CAMPO; ABRE CAMPO-PJ-02PJ 0,00 0,00 0,00 240,00 0,00 0,00 0,00 0,00 0,00 31/08/2022
679 520201 ARIANE DE FATIMA CARVALHO ALMEIDA RODRIGUES ANALISTA DO MP VESPASIANO - COMARCA; VESPASIANO-PJ-SECRETARIA 1.333,00 1.327,95 578,00 0,00 0,00 0,00 0,00 0,00 0,00 31/08/2022
680 1336800 ARIANE MAGALHAES DE PAULA GALDINO ESTAGIARIO CORONEL FABRICIANO; CORONEL FABRICIANO-PJ-02PJ 0,00 0,00 0,00 252,00 0,00 0,00 0,00 0,00 0,00 31/08/2022
681 1261600 ARIANE SOUZA MAGALHAES ESTAGIARIO IPATINGA; IPATINGA-PJ-11PJ 0,00 0,00 0,00 252,00 0,00 0,00 0,00 0,00 0,00 31/08/2022
682 537600 ARIELA FREIRE MONTIJO ANALISTA DO MP ARCOS - COMARCA; ARCOS-PJ-01PJ 1.333,00 0,00 578,00 0,00 0,00 0,00 0,00 0,00 0,00 31/08/2022
683 1219500 ARIELI MALTA DE OLIVEIRA ESTAGIARIO CATAGUASES; CATAGUASES-PJ-05PJ 0,00 0,00 0,00 264,00 0,00 0,00 0,00 0,00 0,00 31/08/2022
684 182000 ARILSON ALEXANDRE MARTINS MAGALHAES OFICIAL DO MP JOÃO MONLEVADE - COMARCA; JOAO MONLEVADE-PJ-01PJ 1.333,00 3.098,55 578,00 0,00 0,00 0,00 0,00 0,00 0,00 31/08/2022
685 511000 ARISLANE CAROLINA DA SILVA ANALISTA DO MP MONTE CARMELO - COMARCA; MONTE CARMELO-PJ-02PJ 1.333,00 1.770,60 578,00 0,00 0,00 0,00 0,00 0,00 0,00 31/08/2022
686 212000 ARLEN DE OLIVEIRA FERNANDES PROMOT.ENTRANC.ESPECIAL BELO HORIZONTE - COMARCA; BH-12PJ JUIZO CRIMINAL-GAB 098PJ 1.333,00 0,00 3.368,91 0,00 16.844,55 0,00 0,00 0,00 514,69 31/08/2022
687 170000 ARLEY BRITES DA SILVA ASSESSOR ADMINISTRATIVO II BELO HORIZONTE - COMARCA; BH-14PJ DEFESA CONSUMIDOR-SECRETARIA 1.333,00 0,00 578,00 0,00 0,00 0,00 0,00 0,00 0,00 31/08/2022
688 120400 ARLINDO CASSIO DA CRUZ OFICIAL DO MP SÃO GONÇALO DO SAPUCAÍ - COMARCA; SAO GONCALO DO SAPUCAI-PJ-01PJ 1.333,00 0,00 578,00 0,00 0,00 0,00 0,00 0,00 0,00 31/08/2022
689 243700 ARLINDO MARCIO LACERDA OFICIAL DO MP CONTAGEM - COMARCA; CONTAGEM-PJ-SECRETARIA 1.333,00 0,00 578,00 0,00 0,00 0,00 1.580,00 0,00 0,00 31/08/2022
690 111900 ARNALDO ALVES SOARES PROCURADOR DE JUSTICA BELO HORIZONTE - COMARCA; GABINETE DE PROCURADOR DE JUSTIÇA - SALA 306 1.333,00 0,00 3.546,22 0,00 17.731,11 0,00 0,00 0,00 541,78 31/08/2022
691 392100 ARNALDO DE ANDRADE OFICIAL DO MP DIVINÓPOLIS - COMARCA; DIVINOPOLIS-PJ-02PJ 1.333,00 885,30 578,00 0,00 0,00 0,00 1.580,00 0,00 0,00 31/08/2022
692 75900 ARNALDO GOMES RIBEIRO PROCURADOR DE JUSTICA BELO HORIZONTE - COMARCA; GABINETE DE PROCURADOR DE JUSTIÇA - SALA 602 1.333,00 0,00 3.163,24 0,00 11.820,74 0,00 0,00 0,00 541,78 31/08/2022
693 642400 ARTANE INARDE DE SIQUEIRA DAMASCENO ANALISTA DO MP BELO HORIZONTE - COMARCA; SECRETARIA DE ASSUNTOS INTERNACIONAIS 1.333,00 0,00 578,00 0,00 0,00 0,00 0,00 0,00 0,00 31/08/2022
694 1145900 ARTEMIS RIBEIRO DE NORONHA ESTAGIARIO SAO LOURENCO; SAO LOURENCO-PJ-02PJ 0,00 0,00 0,00 108,00 723,35 0,00 0,00 0,00 0,00 31/08/2022
695 1261800 ARTHUR DE LIMA SOSSAI ESTAGIARIO LAVRAS; COORD REG DO MA DA BACIA DO RIO GRANDE 0,00 0,00 0,00 252,00 0,00 0,00 0,00 0,00 0,00 31/08/2022
696 1276200 ARTHUR GONCALVES SERAFIM ESTAGIARIO PEDRO LEOPOLDO; PEDRO LEOPOLDO-PJ-03PJ 0,00 0,00 0,00 240,00 0,00 0,00 0,00 0,00 0,00 31/08/2022
697 1433800 ARTHUR OLIVEIRA CARABETTI DINIZ ESTAGIARIO BELO HORIZONTE; BH-09PJ AUDITORIA MILITAR-GAB 073PJ 0,00 0,00 0,00 252,00 0,00 0,00 0,00 0,00 0,00 31/08/2022
698 1433500 ARTHUR SALIM DE PAULA LEITE ESTAGIARIO BELO HORIZONTE; BH-06PJ JUIZO CIVEL-GAB 049PJ 0,00 0,00 0,00 252,00 0,00 0,00 0,00 0,00 0,00 31/08/2022
699 1340200 ARTHUR SANTOS BRAGA ESTAGIARIO BELO HORIZONTE; CAO-FUNDACOES 0,00 0,00 0,00 252,00 0,00 0,00 0,00 0,00 0,00 31/08/2022
700 1306300 ARTUR CALDEIRA VELOSO FILHO ESTAGIARIO MONTES CLAROS; MONTES CLAROS-PJ-04PJ 0,00 0,00 0,00 264,00 0,00 0,00 0,00 0,00 0,00 31/08/2022
701 712100 ARTUR FONTE BOA TEOFILO ASSESSOR ADMINISTRATIVO I BELO HORIZONTE - COMARCA; DIRET DE ESTAGIOS E CONVENIOS ACADEMICOS 1.333,00 0,00 578,00 0,00 0,00 0,00 0,00 0,00 0,00 31/08/2022
702 221400 ARTUR FORSTER GIOVANNINI PROMOTOR 2A ENTRANCIA TRÊS PONTAS - COMARCA; TRES PONTAS-PJ-01PJ 1.333,00 0,00 3.200,47 0,00 16.002,33 0,00 0,00 0,00 488,96 31/08/2022
703 1409500 ARTUR GUEDES CHAVES ESTAGIARIO MANGA; MANGA-PJ-01PJ 0,00 0,00 0,00 264,00 0,00 0,00 0,00 0,00 0,00 31/08/2022
704 1398900 ARTUR MAIA DOS SANTOS CORREA ESTAGIARIO CARMO DO CAJURU; CARMO DO CAJURU-PJ-UNPJ 0,00 0,00 0,00 228,00 0,00 0,00 0,00 0,00 0,00 31/08/2022
705 1205000 ARTUR ROCHA RIBEIRO ESTAGIARIO BELO HORIZONTE; BH-13PJ JUIZO DE TOXICOS-GAB 164PJ 0,00 0,00 0,00 252,00 0,00 0,00 0,00 0,00 0,00 31/08/2022
706 313500 ARY PEDROSA BITTENCOURT PROMOT.ENTRANC.ESPECIAL SANTA LUZIA - COMARCA; SANTA LUZIA-PJ-05PJ 1.333,00 0,00 2.225,98 0,00 16.844,55 0,00 0,00 0,00 514,69 31/08/2022
707 1252100 ARYELLE GONCALVES RODRIGUES SILVA ESTAGIARIO CLAUDIO; CLAUDIO-PJ-UNPJ 0,00 0,00 0,00 252,00 0,00 0,00 0,00 0,00 0,00 31/08/2022
708 315700 ATHAIDE FRANCISCO PERES OLIVEIRA PROMOTOR 2A ENTRANCIA UNAÍ - COMARCA; UNAI-PJ-01PJ 1.333,00 0,00 3.200,47 0,00 0,00 0,00 0,00 0,00 0,00 31/08/2022
709 1304600 AUGUSTO JOSE SAD PEREIRA GOMES ESTAGIARIO CATAGUASES; CATAGUASES-PJ-02PJ 0,00 0,00 0,00 240,00 0,00 0,00 0,00 0,00 0,00 31/08/2022
710 702900 AUGUSTO PENA FIGUEIREDO CAPITAO BELO HORIZONTE - COMARCA; NUCLEO DE OPERACOES DE SEGURANCA DE PESSOAL 1.333,00 0,00 0,00 0,00 0,00 0,00 0,00 0,00 0,00 31/08/2022
711 666600 AUGUSTO REIS BALLARDIM PROMOTOR 1A ENTRANCIA ITAMARANDIBA - COMARCA; ITAMARANDIBA-PJ-UNPJ 1.333,00 0,00 1.546,48 0,00 15.202,21 0,00 0,00 0,00 464,51 31/08/2022
712 1374600 AUGUSTO RODRIGUES DOS SANTOS ALVES ESTAGIARIO BELO HORIZONTE; GABINETE DE PROCURADOR DE JUSTIÇA - SALA 605
713 302100 AUGUSTO ROUSSEAU DE CASTRO ANALISTA DO MP CATAGUASES - COMARCA; CATAGUASES-PJ-02PJ 1.333,00 0,00 578,00 0,00 0,00 0,00 0,00 0,00 0,00 31/08/2022
714 540200 AUREA AVELAR BITTENCOURT OFICIAL DO MP BELO HORIZONTE - COMARCA; GRUPO ESP PROM JUST DEF PROB ADM PAT PUB 1.333,00 0,00 578,00 0,00 0,00 0,00 0,00 0,00 0,00 31/08/2022
715 633501 AUREA GONTIJO BIRCHAL ASSESSOR DE GABINETE I BELO HORIZONTE - COMARCA; PROCURADOR-GERAL DE JUSTIÇA 1.333,00 0,00 578,00 0,00 0,00 0,00 0,00 0,00 0,00 31/08/2022
716 1286700 AUREA MARIA MILWARD PORTUGAL FLAMINI ESTAGIARIO INHAPIM; INHAPIM-PJ-02PJ 0,00 0,00 0,00 252,00 0,00 0,00 0,00 0,00 0,00 31/08/2022
717 183200 AURELIANO MAGELA DE REZENDE OFICIAL DO MP BELO HORIZONTE - COMARCA; COORD DE GABINETE DO PGJ 1.333,00 0,00 578,00 0,00 0,00 0,00 0,00 0,00 0,00 31/08/2022
718 106500 AVAIDE MARCOS MARIANO PROMOT.ENTRANC.ESPECIAL UBERLÂNDIA - COMARCA; UBERLANDIA-PJ-13PJ 1.333,00 0,00 1.405,88 0,00 22.459,40 0,00 0,00 0,00 514,69 31/08/2022
719 629400 AYESKA DA COSTA VAL MOURA DABIEN OFICIAL DO MP BELO HORIZONTE - COMARCA; BH-09PJ AUDITORIA MILITAR-SECRETARIA 1.333,00 0,00 578,00 0,00 0,00 0,00 0,00 0,00 0,00 31/08/2022
720 1475000 AYLA FERREIRA LIMA ESTAGIARIO CASSIA; CASSIA-PJ-01PJ 0,00 0,00 0,00 264,00 0,00 0,00 0,00 0,00 0,00 31/08/2022
721 1450800 AYLANNA SOARES ARAUJO ESTAGIARIO BELO HORIZONTE; BH-25PJ DEFESA DA EDUCAÇÃO 0,00 0,00 0,00 240,00 0,00 0,00 0,00 0,00 0,00 31/08/2022
722 151800 AYLOR LUIZ MEIRELLES JUNIOR PROMOTOR 2A ENTRANCIA SÃO DOMINGOS DO PRATA - COMARCA; SAO DOMINGOS DO PRATA-PJ-UNPJ 1.333,00 0,00 2.694,61 0,00 21.336,44 0,00 0,00 0,00 488,96 31/08/2022
723 707400 AYMEE JOHANSSENN TYNEE CORREIA ALVES ASSESSOR PROMOTOR JUSTICA NOVA LIMA - COMARCA; NOVA LIMA-PJ-01PJ 1.333,00 885,30 578,00 0,00 0,00 0,00 0,00 0,00 0,00 31/08/2022
724 1231000 BARBARA ALEXANDRA DA SILVA ESTAGIARIO LIMA DUARTE; LIMA DUARTE-PJ-UNPJ 0,00 0,00 0,00 264,00 0,00 0,00 0,00 0,00 0,00 31/08/2022
725 1323400 BARBARA ARANTES NASCIMENTO SOUZA ESTAGIARIO CRUZILIA; CRUZILIA-PJ-UNPJ 0,00 0,00 0,00 264,00 0,00 0,00 0,00 0,00 0,00 31/08/2022
726 1358500 BARBARA ASSENCAO DA SILVA FARIA ESTAGIARIO BELO HORIZONTE; COORD COMB RACISMO E TODA FORM DISCRIM 0,00 0,00 0,00 252,00 0,00 0,00 0,00 0,00 0,00 31/08/2022
727 1276600 BARBARA CAROLINE SOARES LEONARDO ESTAGIARIO IPATINGA; IPATINGA-PJ-09PJ 0,00 0,00 0,00 204,00 0,00 0,00 0,00 0,00 0,00 31/08/2022
728 701600 BARBARA CHAVES OLIVEIRA ASSESSOR PROCURADOR JUSTICA BELO HORIZONTE - COMARCA; PROC. JUSTICA DIR. DIFUSOS E COLETIVOS-SEC 1.333,00 0,00 578,00 0,00 0,00 0,00 0,00 0,00 0,00 31/08/2022
729 1481800 BARBARA COTTA E SILVA ESTAGIARIO BELO HORIZONTE; GABINETE DE PROCURADOR DE JUSTIÇA - SALA 914 0,00 0,00 0,00 253,56 0,00 0,00 0,00 0,00 146,15 31/08/2022
730 691900 BARBARA COUTINHO REIS ASSESSOR PROCURADOR JUSTICA BELO HORIZONTE - COMARCA; GABINETE DE PROCURADOR DE JUSTIÇA - SALA 912 1.333,00 0,00 578,00 0,00 0,00 0,00 0,00 0,00 0,00 31/08/2022
731 692200 BARBARA CRISTINA MENDES BANDEIRA DE MELO DUTRA ASSESSOR PROCURADOR JUSTICA BELO HORIZONTE - COMARCA; GABINETE DE PROCURADOR DE JUSTIÇA - SALA 1009 1.333,00 0,00 578,00 0,00 0,00 0,00 0,00 0,00 0,00 31/08/2022
732 1415700 BARBARA CRISTINA SOUZA E SOUSA ESTAGIARIO BELO HORIZONTE; BH-23PJ INFRACIONAL-GAB 054PJ 0,00 0,00 0,00 252,00 0,00 0,00 0,00 0,00 0,00 31/08/2022
733 723400 BARBARA CRISTINA TAVARES CARNEIRO ASSESSOR PROCURADOR JUSTICA BELO HORIZONTE - COMARCA; GABINETE DE PROCURADOR DE JUSTIÇA - SALA 502 1.333,00 0,00 578,00 0,00 0,00 0,00 0,00 0,00 0,00 31/08/2022
734 1168400 BARBARA DE SOUSA LIMA MELO ESTAGIARIO BELO HORIZONTE; PROMOT ESTADUAL DE DEF PATRI CULT E TUR DE MG 0,00 0,00 0,00 60,00 0,00 0,00 0,00 0,00 0,00 31/08/2022
735 1306500 BARBARA EVELYN LIMA CHAVES ESTAGIARIO BUENOPOLIS; BUENOPOLIS-PJ-UNPJ 0,00 0,00 0,00 144,00 0,00 0,00 0,00 0,00 0,00 31/08/2022
736 727200 BARBARA FERNANDES AMARAL ASSESSOR PROMOTOR JUSTICA GOVERNADOR VALADARES - COMARCA 1.030,05 0,00 578,00 0,00 0,00 0,00 0,00 0,00 0,00 31/08/2022
737 1473700 BARBARA FERREIRA DOS SANTOS ESTAGIARIO PAINS; ALFENAS-PJ-02PJ 0,00 0,00 0,00 264,00 0,00 0,00 0,00 0,00 0,00 31/08/2022
738 314700 BARBARA FRANCINE PRETTE NUNES PROMOTOR 1A ENTRANCIA PERDIZES - COMARCA; PERDIZES-PJ-UNPJ 1.333,00 0,00 3.040,44 0,00 15.202,21 0,00 0,00 0,00 464,51 31/08/2022
739 1410100 BARBARA HELENA FROIS GUIMARAES GIL ESTAGIARIO BELO HORIZONTE; GABINETE DE PROCURADOR DE JUSTIÇA - SALA 814
740 1368200 BARBARA ISABELY LIMA OLIVEIRA ESTAGIARIO BELO HORIZONTE; BH-18PJ DIREITOS HUMANOS-GAB 183PJ 0,00 0,00 0,00 252,00 0,00 0,00 0,00 0,00 0,00 31/08/2022
741 652800 BARBARA JULIANNE MOREIRA CASTRO ASSESSOR PROCURADOR JUSTICA BELO HORIZONTE - COMARCA; ASSESS TECNICO-JUR JUNTO AS PROC. DE JUST 1.333,00 0,00 578,00 0,00 0,00 0,00 0,00 0,00 0,00 31/08/2022
742 1496500 BARBARA KELLY DE ALEXANDRE ESTAGIARIO JUIZ DE FORA; JUIZ DE FORA-PJ-06PJ 0,00 0,00 0,00 84,00 0,00 0,00 0,00 0,00 0,00 31/08/2022
743 1450300 BARBARA LARISSA DAS GRACAS SOUZA ESTAGIARIO BELO HORIZONTE; BH-24PJ JUIZO REG BARREIRO-GAB 003PJ 0,00 0,00 0,00 252,00 0,00 0,00 0,00 0,00 0,00 31/08/2022
744 1457700 BARBARA LEDRES SILVA ESTAGIARIO MEDINA; MEDINA-PJ-UNPJ 0,00 0,00 0,00 228,00 0,00 0,00 0,00 0,00 0,00 31/08/2022
745 1441700 BARBARA LETICIA TEIXEIRA DE LIMA ESTAGIARIO MATEUS LEME; MATEUS LEME-PJ-02PJ 0,00 0,00 0,00 264,00 0,00 0,00 0,00 0,00 0,00 31/08/2022
746 707700 BARBARA LOUISE PUFF DE OLIVEIRA ASSESSOR PROMOTOR JUSTICA RIBEIRÃO DAS NEVES - COMARCA; RIBEIRAO DAS NEVES-PJ-02PJ 1.333,00 0,00 578,00 0,00 0,00 0,00 0,00 0,00 0,00 31/08/2022
747 666500 BARBARA MARTINS DE SOUZA PROMOTOR 2A ENTRANCIA MANTENA - COMARCA; MANTENA-PJ-02PJ 1.333,00 0,00 3.200,47 0,00 16.002,33 0,00 0,00 0,00 488,96 31/08/2022
748 1168100 BARBARA MIRANDA MEDRADO DE SOUZA ESTAGIARIO BELO HORIZONTE; BH-18PJ DIREITOS HUMANOS-GAB 125PJ 0,00 0,00 0,00 204,00 0,00 0,00 0,00 0,00 0,00 31/08/2022
749 1270000 BARBARA MOREIRA MARTINS ESTAGIARIO GOVERNADOR VALADARES; COOR REG APOIO COM INC MOB VALE DO RIO DOCE 0,00 0,00 0,00 240,00 0,00 0,00 0,00 0,00 0,00 31/08/2022
750 1206200 BARBARA PORTES BRAGA ESTAGIARIO BELO HORIZONTE; GABINETE DE PROCURADOR DE JUSTIÇA - SALA 602 0,00 0,00 0,00 228,00 0,00 0,00 0,00 0,00 0,00 31/08/2022
751 663600 BARBARA REGINA PEREIRA DE PINHO MAGALHAES ASSESSOR PROMOTOR JUSTICA BELO HORIZONTE - COMARCA; CAO-DH CONT EXT ATIV POLIC E AP COMUNIT 1.333,00 0,00 578,00 0,00 0,00 0,00 0,00 0,00 0,00 31/08/2022
752 685500 BARBARA RODRIGUES DE PAULA PROMOTOR SUBSTITUTO GOVERNADOR VALADARES - COMARCA; GOVERNADOR VALADARES-PJ-10PJ 1.333,00 0,00 656,08 0,00 15.202,21 0,00 0,00 0,00 464,51 31/08/2022
753 1475300 BARBARA SILVEIRA TORRES DE AZEVEDO ESTAGIARIO BRASOPOLIS; BRASOPOLIS-PJ-UNPJ 0,00 0,00 0,00 264,00 0,00 0,00 0,00 0,00 0,00 31/08/2022
754 692400 BARBARA SOUZA OLIVEIRA ASSESSOR PROMOTOR JUSTICA DIVINO - COMARCA; DIVINO-PJ-UNPJ 1.333,00 0,00 578,00 0,00 0,00 0,00 0,00 0,00 0,00 31/08/2022
755 546500 BARBARA ZACARONI GOULART OFICIAL DO MP BETIM - COMARCA; BETIM-PJ-08PJ 1.333,00 0,00 578,00 0,00 0,00 0,00 0,00 0,00 0,00 31/08/2022
756 1479200 BARBARACAMILA DE SOUZA LARA ESTAGIARIO JOAO PINHEIRO; JOAO PINHEIRO-PJ-02PJ 0,00 0,00 0,00 228,00 0,00 0,00 0,00 0,00 0,00 31/08/2022
757 316500 BEATRIZ ABILVIA DA SILVA ANALISTA DO MP GOVERNADOR VALADARES - COMARCA; GOVERNADOR VALADARES-PJ-07PJ 1.333,00 0,00 578,00 0,00 0,00 0,00 0,00 0,00 0,00 31/08/2022
758 1498900 BEATRIZ APARECIDA DIAS BATISTA ESTAGIARIO MANHUMIRIM; MANHUMIRIM-PJ-02PJ 0,00 0,00 0,00 60,00 0,00 0,00 0,00 0,00 0,00 31/08/2022
759 311800 BEATRIZ APARECIDA SOARES GANEM OFICIAL DO MP ITAMBACURI - COMARCA; ITAMBACURI-PJ-02PJ 1.333,00 0,00 578,00 0,00 0,00 0,00 0,00 0,00 0,00 31/08/2022
760 266800 BEATRIZ AUGUSTA VILACA GOMES DE HUBER OFICIAL DO MP BELO HORIZONTE - COMARCA; BH-05PJ-JUÍZO SUCESSÕES-SEC 1.333,00 0,00 578,00 0,00 0,00 0,00 0,00 0,00 0,00 31/08/2022
761 235200 BEATRIZ BOTELHO BATISTA OFICIAL DO MP MATEUS LEME - COMARCA; MATEUS LEME-PJ-02PJ 1.333,00 0,00 578,00 0,00 0,00 0,00 0,00 0,00 0,00 31/08/2022
762 1480500 BEATRIZ CAMPOS VIEIRA FEIO ESTAGIARIO BELO HORIZONTE; GABINETE DE PROCURADOR DE JUSTIÇA - SALA 610 0,00 0,00 0,00 240,00 0,00 0,00 0,00 0,00 0,00 31/08/2022
763 1407200 BEATRIZ DE LIMA RODRIGUES ESTAGIARIO ALTO RIO DOCE; ALTO RIO DOCE-PJ-UNPJ 0,00 0,00 0,00 240,00 0,00 0,00 0,00 0,00 0,00 31/08/2022
764 1321300 BEATRIZ FERREIRA GUERRA ESTAGIARIO BELO HORIZONTE; BH-12PJ JUIZO CRIMINAL-GAB 093PJ 0,00 0,00 0,00 228,00 0,00 0,00 0,00 0,00 0,00 31/08/2022
765 1303100 BEATRIZ FONSECA FELICE BRASIL ESTAGIARIO UBERLANDIA; UBERLANDIA-PJ-03PJ
766 1453200 BEATRIZ GABRICH CARVALHO ESTAGIARIO BELO HORIZONTE; CAO-ORDEM ECONOMICA E TRIBUTARIA 0,00 0,00 0,00 252,00 0,00 0,00 0,00 0,00 0,00 31/08/2022
767 1464500 BEATRIZ IARA SIQUEIRA ESTAGIARIO CAMPESTRE; CAMPESTRE-PJ-UNPJ 0,00 0,00 0,00 264,00 0,00 0,00 0,00 0,00 0,00 31/08/2022
768 1429500 BEATRIZ MACIEL ALMEIDA RIBEIRO ESTAGIARIO BELO HORIZONTE; PROC. JUSTICA DE HABEAS CORPUS 0,00 0,00 0,00 252,00 0,00 0,00 0,00 0,00 0,00 31/08/2022
769 182300 BEATRIZ PAULA SOUSA RAMOS OFICIAL DO MP MARIANA - COMARCA; MARIANA-PJ-01PJ 1.333,00 0,00 578,00 0,00 0,00 0,00 0,00 0,00 0,00 31/08/2022
770 1314100 BEATRIZ PAULINO DE FREITAS ESTAGIARIO CALDAS; CALDAS-PJ-UNPJ 0,00 0,00 0,00 228,00 0,00 0,00 0,00 0,00 0,00 31/08/2022
771 1359900 BEATRIZ PEREIRA LAMBOGLIA ESTAGIARIO UBERABA; UBERABA-PJ-13PJ 0,00 0,00 0,00 252,00 0,00 0,00 0,00 0,00 0,00 31/08/2022
772 1376100 BEATRIZ PORTO DOMINGUITO ESTAGIARIO VARGINHA; VARGINHA-PJ-06PJ 0,00 0,00 0,00 240,00 0,00 0,00 0,00 0,00 0,00 31/08/2022
773 1425800 BEATRIZ SANTOS CAVERZAN ESTAGIARIO FRUTAL; FRUTAL-PJ-04PJ 0,00 0,00 0,00 204,00 0,00 0,00 0,00 0,00 0,00 31/08/2022
774 1229800 BEATRIZ SILVA RODRIGUES ALVES ESTAGIARIO UBA; UBA-PJ-05PJ 0,00 0,00 0,00 252,00 0,00 0,00 0,00 0,00 0,00 31/08/2022
775 1376500 BELARMINA APARECIDA MENDES DE SOUZA ESTAGIARIO MORADA NOVA DE MINAS; MORADA NOVA DE MINAS-PJ-UNPJ 0,00 0,00 0,00 0,00 543,00 0,00 0,00 0,00 0,00 31/08/2022
776 507000 BELCHIOR FRANKLIN AMARAL LEITE ANALISTA DO MP BELO HORIZONTE - COMARCA; CAO ORGAOS MPMG DESIG FUNC ELEITORAIS-SEC 1.333,00 885,30 578,00 0,00 0,00 0,00 0,00 0,00 0,00 31/08/2022
777 345100 BENITO ELIAS RODRIGUES ANALISTA DO MP BARBACENA - COMARCA; BARBACENA - SECRETARIA DAS PJS CRIMINAIS 1.333,00 0,00 578,00 0,00 0,00 0,00 0,00 0,00 0,00 31/08/2022
778 207300 BENITO VIEIRA DOS SANTOS ANALISTA DO MP BELO HORIZONTE - COMARCA; PROC JUST ESP ACOES COMP ORIG CRIMINAL-ASSESS 1.333,00 0,00 578,00 0,00 0,00 0,00 0,00 0,00 0,00 31/08/2022
779 84700 BERGSON CARDOSO GUIMARAES PROMOT.ENTRANC.ESPECIAL BELO HORIZONTE - COMARCA; BH-13PJ JUIZO DE TOXICOS-GAB 107PJ 1.333,00 0,00 3.277,57 0,00 11.229,70 0,00 0,00 0,00 514,69 31/08/2022
780 480200 BERNADETE NUNES DOS SANTOS ANALISTA DO MP GUANHÃES - COMARCA; GUANHAES-PJ-02PJ 1.333,00 0,00 578,00 0,00 0,00 0,00 0,00 0,00 0,00 31/08/2022
781 1474100 BERNARDO ANGELI BELO ESTAGIARIO FORMIGA; FORMIGA-PJ-03PJ 0,00 0,00 0,00 252,00 0,00 0,00 0,00 0,00 0,00 31/08/2022
782 1240100 BERNARDO DANTAS GUIMARAES ESTAGIARIO POUSO ALEGRE; COORD REG PP SUL MINAS GERAIS POUSO ALEGRE 0,00 0,00 0,00 264,00 0,00 0,00 0,00 0,00 0,00 31/08/2022
783 456700 BERNARDO DE MOURA LIMA PAIVA JEHA PROMOTOR 2A ENTRANCIA ITAÚNA - COMARCA; ITAUNA-PJ-01PJ 1.333,00 0,00 3.200,47 0,00 16.002,33 0,00 0,00 0,00 488,96 31/08/2022
784 1279900 BERNARDO RESENDE DOS SANTOS ESTAGIARIO BELO HORIZONTE; BH-13PJ JUIZO DE TOXICOS-GAB 137PJ 0,00 0,00 0,00 72,00 0,00 0,00 0,00 0,00 0,00 31/08/2022
785 162900 BETANIA CABRAL DE PINA LARCHER PROMOT.ENTRANC.ESPECIAL CONTAGEM - COMARCA; CONTAGEM-PJ-18PJ 1.333,00 0,00 3.368,91 0,00 16.844,55 0,00 0,00 0,00 514,69 31/08/2022
786 378400 BETANIA FARNESI DE SOUZA E SILVA OFICIAL DO MP CURVELO - COMARCA; CURVELO-PJ-01PJ 1.333,00 0,00 578,00 0,00 0,00 0,00 0,00 0,00 0,00 31/08/2022
787 387400 BETANIA MENDONCA DE ASSIS CARVALHO ANALISTA DO MP JUIZ DE FORA - COMARCA; JUIZ DE FORA-PJ-03PJ 1.333,00 885,30 578,00 0,00 0,00 0,00 0,00 0,00 0,00 31/08/2022
788 1453100 BIANCA CRISTINA GONZAGA OLIVEIRA ESTAGIARIO BELO HORIZONTE; DIRET DE ESTAGIOS E CONVENIOS ACADEMICOS 0,00 0,00 0,00 180,00 0,00 0,00 0,00 0,00 0,00 31/08/2022
789 714400 BIANCA DE CASTRO RAMOS ASSESSOR PROMOTOR JUSTICA BETIM - COMARCA; BETIM-PJ-13PJ 1.333,00 0,00 578,00 0,00 0,00 0,00 0,00 0,00 0,00 31/08/2022
790 712700 BIANCA DE JESUS SOUZA ASSESSOR ADMINISTRATIVO I GOVERNADOR VALADARES - COMARCA; COOR REG APOIO COM INC MOB VALE DO RIO DOCE 1.333,00 0,00 578,00 0,00 0,00 0,00 0,00 0,00 0,00 31/08/2022
791 1489900 BIANCA DE MELO PONTES ESTAGIARIO BELO HORIZONTE; CORREGEDORIA-GERAL 0,00 0,00 0,00 168,00 0,00 0,00 0,00 0,00 0,00 31/08/2022
792 1278400 BIANCA DE SOUZA VILELA ESTAGIARIO BELO HORIZONTE; BH-13PJ JUIZO DE TOXICOS-GAB 079PJ 0,00 0,00 0,00 216,00 0,00 0,00 0,00 0,00 0,00 31/08/2022
793 1293800 BIANCA GEORJUTTI VIEIRA ESTAGIARIO UBERLANDIA; UBERLANDIA-PJ-02PJ 0,00 0,00 0,00 252,00 0,00 0,00 0,00 0,00 0,00 31/08/2022
794 1278100 BIANCA LIDSEY CARVALHO PINTO ESTAGIARIO GUANHAES; GUANHAES-PJ-01PJ 0,00 0,00 0,00 264,00 0,00 0,00 0,00 0,00 0,00 31/08/2022
795 1446400 BIANCA MACHADO DOS SANTOS ESTAGIARIO ARAGUARI; ARAGUARI-PJ-01PJ 0,00 0,00 0,00 252,00 0,00 0,00 0,00 0,00 0,00 31/08/2022
796 1354000 BIANCA NEVES BATISTA COSTA ESTAGIARIO BELO HORIZONTE; PROC JUST ATUACAO TRIBUNAIS SUPERIORES-GAB007 0,00 0,00 0,00 228,00 0,00 0,00 0,00 0,00 0,00 31/08/2022
797 1455600 BIANCA NUNES DOS SANTOS ESTAGIARIO JANUARIA; JANUARIA-PJ-01PJ 0,00 0,00 0,00 264,00 0,00 0,00 0,00 0,00 0,00 31/08/2022
798 450300 BIANCA OLIVEIRA DE ALBUQUERQUE ANALISTA DO MP BELO HORIZONTE - COMARCA; BH-10PJ EXECUÇÃO PENAL-SECRETARIA 1.333,00 885,30 578,00 0,00 0,00 0,00 0,00 0,00 0,00 31/08/2022
799 1367000 BIANCA RODRIGUES BICALHO ESTAGIARIO BELO HORIZONTE; DIR CRIACAO E MIDIAS 0,00 0,00 0,00 84,00 0,00 0,00 0,00 0,00 0,00 31/08/2022
800 535400 BIANCA SALOTO ROSSI ANALISTA DO MP SANTOS DUMONT - COMARCA; SANTOS DUMONT-PJ-01PJ 1.333,00 885,30 578,00 0,00 0,00 0,00 0,00 0,00 0,00 31/08/2022
801 1473300 BIANCA SILVA BRANDAO ESTAGIARIO PASSOS; PASSOS-PJ-05PJ 0,00 0,00 0,00 264,00 0,00 0,00 0,00 0,00 0,00 31/08/2022
802 1405700 BIANCA SIQUEIRA BERALDO SILVA ESTAGIARIO SILVIANOPOLIS; SILVIANOPOLIS-PJ-UNPJ 0,00 0,00 0,00 252,00 0,00 0,00 0,00 0,00 0,00 31/08/2022
803 1447200 BIANKA SOUZA VIEIRA ESTAGIARIO SAO ROMAO; SAO ROMAO-PJ-UNPJ 0,00 0,00 0,00 264,00 0,00 0,00 0,00 0,00 0,00 31/08/2022
804 120800 BRAS MARQUES DE SOUZA ANALISTA DO MP BELO HORIZONTE - COMARCA; SUPERINTENDENCIA DE GESTAO ADMINISTRATIVA 1.333,00 0,00 578,00 0,00 1.418,49 0,00 0,00 0,00 2.727,23 31/08/2022
805 1179500 BRENDA ALCANTARA RAMALHO ESTAGIARIO BETIM; BETIM-PJ-03PJ 0,00 0,00 0,00 264,00 0,00 0,00 0,00 0,00 0,00 31/08/2022
806 1373200 BRENDA BATISTA DOS SANTOS ESTAGIARIO MONTE CARMELO; MONTE CARMELO-PJ-01PJ 0,00 0,00 0,00 252,00 0,00 0,00 0,00 0,00 0,00 31/08/2022
807 1159100 BRENDA CUSTODIO DE ABREU ESTAGIARIO CONCEICAO DAS ALAGOAS; CONCEICAO DAS ALAGOAS-PJ-01PJ 0,00 0,00 0,00 180,00 0,00 0,00 0,00 0,00 0,00 31/08/2022
808 1316700 BRENDA FAULKNER ASSIS DA SILVA ESTAGIARIO BELO HORIZONTE; BH-15PJ M AMB PAT HIST CULT-GAB 114PJ 0,00 0,00 0,00 240,00 0,00 0,00 0,00 0,00 0,00 31/08/2022
809 1484800 BRENDA IZABEL GONCALVES FRANCA ESTAGIARIO BELO HORIZONTE; BH-12PJ JUIZO CRIMINAL 0,00 0,00 0,00 240,00 0,00 0,00 0,00 0,00 0,00 31/08/2022
810 1250300 BRENDA MOREIRA SANTOS ESTAGIARIO BELO HORIZONTE; BH-02PJ FAMILIA-GAB 018PJ
811 724400 BRENDA PIMENTEL DE SOUZA VIANA ASSESSOR PROMOTOR JUSTICA MANHUMIRIM - COMARCA; MANHUMIRIM-PJ-01PJ 1.333,00 0,00 578,00 0,00 0,00 0,00 0,00 0,00 0,00 31/08/2022
812 1476200 BRENDA RODRIGUES DIAS ESTAGIARIO BETIM; BETIM-PJ-02PJ 0,00 0,00 0,00 264,00 0,00 0,00 0,00 0,00 0,00 31/08/2022
813 1266800 BRENDA TAVARES BRITO ESTAGIARIO PASSOS; PASSOS-PJ-03PJ 0,00 0,00 0,00 192,00 0,00 0,00 0,00 0,00 0,00 31/08/2022
814 1365100 BRENDA VIEIRA JORGE ESTAGIARIO BELO HORIZONTE; BH-23PJ INFRACIONAL-RECEPCAO 0,00 0,00 0,00 252,00 0,00 0,00 0,00 0,00 0,00 31/08/2022
815 1294100 BRENDA VITORIA SANTOS DE ALMEIDA ESTAGIARIO NOVA LIMA; NOVA LIMA-PJ-02PJ 0,00 0,00 0,00 144,00 0,00 0,00 0,00 0,00 0,00 31/08/2022
816 1217200 BRENER MURILO DE BRAGANCA ESTAGIARIO MANHUACU; MANHUACU-PJ-01PJ 0,00 0,00 0,00 192,00 0,00 0,00 0,00 0,00 0,00 31/08/2022
817 710500 BRENNO VINICIUS MAGESTE ROSA ASSESSOR PROMOTOR JUSTICA MANHUAÇU - COMARCA; MANHUACU-PJ-02PJ 1.333,00 0,00 578,00 0,00 0,00 0,00 0,00 0,00 0,00 31/08/2022
818 372400 BRENO COSTA DA SILVA COELHO PROMOTOR 2A ENTRANCIA VISCONDE DO RIO BRANCO - COMARCA; GAECO REGIONAL ZONA MATA-VISCONDE RIO BRANCO 1.333,00 0,00 2.225,98 0,00 5.334,11 0,00 0,00 0,00 488,96 31/08/2022
819 460900 BRENO CRISTIANO DE SOUZA REZENDE ANALISTA DO MP ITAÚNA - COMARCA; ITAUNA-PJ-02PJ 1.333,00 0,00 578,00 0,00 0,00 0,00 0,00 0,00 0,00 31/08/2022
820 96700 BRENO LINHARES LINTZ PROMOT.ENTRANC.ESPECIAL UBERLÂNDIA - COMARCA; UBERLANDIA-PJ-10PJ 1.333,00 0,00 0,00 0,00 19.090,49 0,00 0,00 0,00 514,69 31/08/2022
821 439500 BRENO MAX DE JESUS SILVEIRA PROMOTOR 2A ENTRANCIA CARANGOLA - COMARCA; CARANGOLA-PJ-02PJ 1.333,00 0,00 984,12 0,00 16.002,33 0,00 0,00 0,00 488,96 31/08/2022
822 439300 BRENO NASCIMENTO PACHECO PROMOTOR 2A ENTRANCIA PATROCÍNIO - COMARCA; PATROCINIO-PJ-01PJ 1.333,00 0,00 3.200,47 0,00 16.002,33 0,00 0,00 0,00 488,96 31/08/2022
823 239000 BRENO VENANCIO ROMANINI OFICIAL DO MP BELO HORIZONTE - COMARCA; BH-20PJ ORD ECON TRIBUTARIA-SECRETARIA 1.333,00 0,00 578,00 0,00 0,00 0,00 0,00 0,00 0,00 31/08/2022
824 1383700 BRIGIDA CRISOSTOMO DA SILVA ESTAGIARIO CARATINGA; CARATINGA-PJ-07PJ 0,00 0,00 0,00 264,00 0,00 0,00 0,00 0,00 0,00 31/08/2022
825 1469400 BRUNA ALMEIDA LOPES ESTAGIARIO JUIZ DE FORA; JUIZ DE FORA-PJ-14PJ 0,00 0,00 0,00 264,00 0,00 0,00 0,00 0,00 0,00 31/08/2022
826 1256300 BRUNA ALVES ARAUJO ESTAGIARIO CARMO DO PARANAIBA; CARMO DO PARANAIBA-PJ-02PJ 0,00 0,00 0,00 252,00 0,00 0,00 0,00 0,00 0,00 31/08/2022
827 1491400 BRUNA ALVES FERNANDES ESTAGIARIO CAPELINHA; CAPELINHA-PJ-01PJ 0,00 0,00 0,00 96,00 0,00 0,00 0,00 0,00 0,00 31/08/2022
828 1499500 BRUNA ANIBAL REIS DE OLIVEIRA ESTAGIARIO BELO HORIZONTE; BH-09PJ AUDITORIA MILITAR-GAB 075PJ 0,00 0,00 0,00 24,00 0,00 0,00 0,00 0,00 0,00 31/08/2022
829 1394600 BRUNA ANTONIETA DE OLIVEIRA VIEIRA ESTAGIARIO BELO HORIZONTE; BH-02PJ FAMILIA-GAB 028PJ 0,00 0,00 0,00 192,00 0,00 0,00 0,00 0,00 0,00 31/08/2022
830 1457500 BRUNA APARECIDA GOMES ESTAGIARIO ITAJUBA; ITAJUBA-PJ-01PJ 0,00 0,00 0,00 252,00 0,00 0,00 0,00 0,00 0,00 31/08/2022
831 1448700 BRUNA BARBOSA SOARES DE SOUZA ESTAGIARIO CAXAMBU; CAXAMBU-PJ-UNPJ 0,00 0,00 0,00 252,00 0,00 0,00 0,00 0,00 0,00 31/08/2022
832 659300 BRUNA BODONI FACCIOLI PROMOTOR 2A ENTRANCIA CARMO DO PARANAÍBA - COMARCA; CARMO DO PARANAIBA-PJ-01PJ 1.333,00 0,00 3.200,47 0,00 16.002,33 0,00 0,00 0,00 488,96 31/08/2022
833 1424500 BRUNA CATAI ALCANTARA ESTAGIARIO PATROCINIO; PATROCINIO-PJ-01PJ 0,00 0,00 0,00 252,00 0,00 0,00 0,00 0,00 0,00 31/08/2022
834 1489000 BRUNA DAYANA DA SILVA SOUZA ESTAGIARIO GOVERNADOR VALADARES; GOVERNADOR VALADARES-PJ-13PJ 0,00 0,00 0,00 144,00 0,00 0,00 0,00 0,00 0,00 31/08/2022
835 1408800 BRUNA DE CASTRO VIEIRA ESTAGIARIO CORONEL FABRICIANO; CORONEL FABRICIANO-PJ-01PJ 0,00 0,00 0,00 168,00 0,00 0,00 0,00 0,00 0,00 31/08/2022
836 722700 BRUNA DE SA FERREIRA LIMA ASSESSOR PROMOTOR JUSTICA MANGA - COMARCA; MANGA-PJ-01PJ 1.333,00 0,00 578,00 0,00 0,00 0,00 0,00 0,00 0,00 31/08/2022
837 1160000 BRUNA DEMETRIO PEREIRA ESTAGIARIO BELO HORIZONTE; BH-18PJ VIOLENCIA DOMESTICA-GAB 177PJ 0,00 0,00 0,00 120,00 0,00 0,00 0,00 0,00 0,00 31/08/2022
838 1360800 BRUNA DOS SANTOS NASCIMENTO MANDOLESI ESTAGIARIO ITAJUBA; ITAJUBA-PJ-04PJ 0,00 0,00 0,00 252,00 0,00 0,00 0,00 0,00 0,00 31/08/2022
839 1283600 BRUNA EDUARDA GUIMARAES OLIVEIRA ESTAGIARIO BELO HORIZONTE; PROC JUST ATUACAO TRIBUNAIS SUPERIORES-GAB007 0,00 0,00 0,00 0,00 433,52 0,00 0,00 0,00 0,00 31/08/2022
840 1432500 BRUNA EDUARDA SANTOS DA SILVA ESTAGIARIO SANTA LUZIA; SANTA LUZIA-PJ-07PJ 0,00 0,00 0,00 240,00 0,00 0,00 0,00 0,00 0,00 31/08/2022
841 1430400 BRUNA FERNANDES ABINEDER FERREIRA ESTAGIARIO BELO HORIZONTE; BH-09PJ AUDITORIA MILITAR-GAB 073PJ 0,00 0,00 0,00 108,00 0,00 0,00 0,00 0,00 0,00 31/08/2022
842 1231100 BRUNA GOMES MULLER ESTAGIARIO ITAJUBA; ITAJUBA-PJ-02PJ 0,00 0,00 0,00 132,00 0,00 0,00 0,00 0,00 0,00 31/08/2022
843 1487700 BRUNA GOULART TAVARES ESTAGIARIO PARAISOPOLIS; PARAISOPOLIS-PJ-UNPJ 0,00 0,00 0,00 204,00 0,00 0,00 0,00 0,00 0,00 31/08/2022
844 722100 BRUNA HENRIQUE DE SOUZA ASSESSOR PROMOTOR JUSTICA PIRAPETINGA - COMARCA; PIRAPETINGA-PJ-UNPJ 1.333,00 0,00 578,00 0,00 0,00 0,00 0,00 0,00 0,00 31/08/2022
845 642300 BRUNA IZABELITA DE FATIMA OLIVEIRA COSTA OFICIAL DO MP BELO HORIZONTE - COMARCA; BH-02PJ FAMILIA-SECRETARIA 1.333,00 0,00 578,00 0,00 0,00 0,00 0,00 0,00 0,00 31/08/2022
846 513600 BRUNA KARLA MARTINS CARVALHO ANALISTA DO MP GOVERNADOR VALADARES - COMARCA; GOVERNADOR VALADARES-PJ-14PJ 1.333,00 0,00 578,00 0,00 0,00 0,00 0,00 0,00 0,00 31/08/2022
847 1468600 BRUNA LORRAINE RODRIGUES ESTAGIARIO NOVA LIMA; NOVA LIMA-PJ-03PJ 0,00 0,00 0,00 252,00 0,00 0,00 0,00 0,00 0,00 31/08/2022
848 1439000 BRUNA LUDMILA ALVES RODRIGUES ESTAGIARIO BELO HORIZONTE; BH-15PJ M AMB PAT HIST CULT-GAB 114PJ 0,00 0,00 0,00 252,00 0,00 0,00 0,00 0,00 0,00 31/08/2022
849 1330800 BRUNA LUISA PINHEIRO PINTO ESTAGIARIO ITAUNA; ITAUNA-PJ-01PJ 0,00 0,00 0,00 240,00 0,00 0,00 0,00 0,00 0,00 31/08/2022
850 1485000 BRUNA LUIZA MACHADO DE FARIA ESTAGIARIO BELO HORIZONTE; BH-02PJ FAMILIA-GAB 014PJ 0,00 0,00 0,00 216,00 0,00 0,00 0,00 0,00 0,00 31/08/2022
851 1318500 BRUNA MAIARA DE JESUS BARBOSA ESTAGIARIO UBA; UBA-PJ-06PJ 0,00 0,00 0,00 264,00 0,00 0,00 0,00 0,00 0,00 31/08/2022
852 415100 BRUNA MARIA SOARES OLIVEIRA COSTA RAMOS ANALISTA DO MP UBÁ - COMARCA; COORD REG BACIA DO RIO PARAIBA DO SUL 1.333,00 0,00 578,00 0,00 0,00 0,00 0,00 0,00 0,00 31/08/2022
853 1328600 BRUNA MAYRA TERRA ESTAGIARIO VESPASIANO; VESPASIANO-PJ-05PJ 0,00 0,00 0,00 212,52 0,00 0,00 0,00 0,00 36,67 31/08/2022
854 692900 BRUNA MENDES COELHO ASSESSOR PROCURADOR JUSTICA BELO HORIZONTE - COMARCA; GABINETE DE PROCURADOR DE JUSTIÇA - SALA 801 1.333,00 0,00 578,00 0,00 0,00 0,00 0,00 0,00 0,00 31/08/2022
855 470000 BRUNA MORAES ANALISTA DO MP TOMBOS - COMARCA; TOMBOS-PJ-UNPJ 1.333,00 0,00 578,00 0,00 0,00 0,00 0,00 0,00 0,00 31/08/2022
856 1388300 BRUNA MORAIS DE SOUZA ESTAGIARIO ITABIRA; ITABIRA-PJ-02PJ 0,00 0,00 0,00 264,00 0,00 0,00 0,00 0,00 0,00 31/08/2022
857 1199500 BRUNA NATHANY OLIVEIRA MELO ESTAGIARIO UNAI; UNAI-PJ-01PJ 0,00 0,00 0,00 252,00 0,00 0,00 0,00 0,00 0,00 31/08/2022
858 614700 BRUNA NATTANY DE LIMA OFICIAL DO MP MANTENA - COMARCA; MANTENA-PJ-01PJ 1.333,00 885,30 578,00 0,00 0,00 0,00 0,00 0,00 0,00 31/08/2022
859 631800 BRUNA RAPOSO JORGE OFICIAL DO MP JUIZ DE FORA - COMARCA; JUIZ DE FORA-PJ-06PJ 1.333,00 0,00 578,00 0,00 0,00 0,00 0,00 0,00 0,00 31/08/2022
860 1391100 BRUNA REIS PIMENTA ESTAGIARIO BELO HORIZONTE; BH-23PJ CIVEL-GAB 162PJ 0,00 0,00 0,00 204,00 0,00 0,00 0,00 0,00 0,00 31/08/2022
861 1239400 BRUNA RODRIGUES TORRES ESTAGIARIO BETIM; BETIM-PJ-07PJ 0,00 0,00 0,00 264,00 0,00 0,00 0,00 0,00 0,00 31/08/2022
862 707800 BRUNA ROMIE WERDINE ASSESSOR PROMOTOR JUSTICA IBIRITÉ - COMARCA; IBIRITE-PJ-06PJ 1.333,00 0,00 578,00 0,00 0,00 0,00 0,00 0,00 0,00 31/08/2022
863 1337600 BRUNA SALES VIEIRA ESTAGIARIO FRUTAL; FRUTAL-PJ-02PJ 0,00 0,00 0,00 264,00 0,00 0,00 0,00 0,00 0,00 31/08/2022
864 697400 BRUNA SILVA SANTOS ASSESSOR PROMOTOR JUSTICA TIMÓTEO - COMARCA; TIMOTEO-PJ-04PJ 1.333,00 0,00 578,00 0,00 0,00 0,00 0,00 0,00 0,00 31/08/2022
865 1380100 BRUNA STEPHANIE TOLEDO FERNANDES ESTAGIARIO SETE LAGOAS; SETE LAGOAS-PJ-03PJ 0,00 0,00 0,00 264,00 0,00 0,00 0,00 0,00 0,00 31/08/2022
866 1191900 BRUNA STUHLER PINHEIRO ESTAGIARIO UBERLANDIA; UBERLANDIA-PJ-18PJ 0,00 0,00 0,00 192,00 0,00 0,00 0,00 0,00 0,00 31/08/2022
867 699300 BRUNA URSINE TIMO ASSESSOR PROCURADOR JUSTICA BELO HORIZONTE - COMARCA; PROC JUST ESP ACOES COMP ORIG CRIMINAL-ASSESS 1.333,00 0,00 578,00 0,00 0,00 0,00 0,00 0,00 0,00 31/08/2022
868 1364300 BRUNA YASMIM DE OLIVEIRA MOREIRA ESTAGIARIO BELO HORIZONTE; DIRET DE ESTAGIOS E CONVENIOS ACADEMICOS 0,00 0,00 0,00 156,00 0,00 0,00 0,00 0,00 0,00 31/08/2022
869 225100 BRUNO ALEXANDER VIEIRA SOARES PROMOT.ENTRANC.ESPECIAL BELO HORIZONTE - COMARCA; BH-17PJ PATRIMONIO PUBLICO-GAB 004PJ 1.333,00 0,00 2.390,00 0,00 16.844,55 0,00 0,00 0,00 514,69 31/08/2022
870 463800 BRUNO ALVES TEIXEIRA ANALISTA DO MP UBERLÂNDIA - COMARCA; UBERLANDIA-PJ-04PJ 1.333,00 0,00 578,00 0,00 0,00 0,00 0,00 0,00 0,00 31/08/2022
871 1463600 BRUNO ANDRADE ALVARENGA ESTAGIARIO IPATINGA; IPATINGA-PJ-07PJ 0,00 0,00 0,00 252,00 0,00 0,00 0,00 0,00 0,00 31/08/2022
872 538500 BRUNO AUGUSTO DA SILVA OFICIAL DO MP SANTA LUZIA - COMARCA; SANTA LUZIA-PJ-03PJ 1.333,00 0,00 578,00 0,00 0,00 0,00 0,00 0,00 0,00 31/08/2022
873 318200 BRUNO BARROS DE SOUZA OFICIAL DO MP UBÁ - COMARCA; UBA-PJ-04PJ 1.333,00 0,00 578,00 0,00 0,00 0,00 0,00 0,00 0,00 31/08/2022
874 718900 BRUNO CARVALHO AMARAL DIAS PROMOTOR SUBSTITUTO ALMENARA - COMARCA; ALMENARA-PJ-03PJ 1.333,00 0,00 1.869,34 0,00 0,00 0,00 0,00 0,00 0,00 31/08/2022
875 459600 BRUNO CASTELAR LUGAO MENDES GESTOR ADM. SECRETARIA IV BELO HORIZONTE - COMARCA; PROC JUST ATUACAO TRIBUNAIS SUPERIORES-GAB001 1.333,00 885,30 578,00 0,00 0,00 0,00 0,00 0,00 0,00 31/08/2022
876 361300 BRUNO CESAR MEDEIROS GIARDINI PROMOT.ENTRANC.ESPECIAL IPATINGA - COMARCA; IPATINGA-PJ-06PJ 1.333,00 0,00 3.368,91 0,00 16.844,55 0,00 0,00 0,00 514,69 31/08/2022
877 427400 BRUNO CESAR RIBEIRO DE PAIVA ANALISTA DO MP BELO HORIZONTE - COMARCA; DIRETORIA DO COLEGIO E DA CAMARA DE PJ 1.333,00 0,00 578,00 0,00 0,00 0,00 0,00 0,00 0,00 31/08/2022
878 1425600 BRUNO CEZAR SOARES ESTAGIARIO PEDRO LEOPOLDO; PEDRO LEOPOLDO-PJ-02PJ 0,00 0,00 0,00 240,00 0,00 0,00 0,00 0,00 0,00 31/08/2022
879 380900 BRUNO CIRILO ANTUNES OFICIAL DO MP VARGINHA - COMARCA; VARGINHA-PJ-05PJ 1.333,00 0,00 578,00 0,00 0,00 0,00 0,00 0,00 0,00 31/08/2022
880 666700 BRUNO DE CARVALHO VASCONCELOS PROMOTOR SUBSTITUTO CORINTO - COMARCA; CORINTO-PJ-UNPJ 1.333,00 0,00 3.040,44 0,00 13.175,25 0,00 0,00 0,00 464,51 31/08/2022
881 329000 BRUNO DE MELO REIS ANALISTA DO MP PATROCÍNIO - COMARCA; PATROCINIO-PJ-02PJ 1.333,00 1.770,60 578,00 0,00 0,00 0,00 0,00 0,00 0,00 31/08/2022
882 1197800 BRUNO DURAES DE FARIAS ESTAGIARIO MONTES CLAROS; MONTES CLAROS-PJ-07PJ 0,00 0,00 0,00 144,00 0,00 0,00 0,00 0,00 0,00 31/08/2022
883 1437500 BRUNO EDUARDO DE ANDRADE GONZAGA ESTAGIARIO BELO HORIZONTE; PROC JUST RECURSOS ESP E EXTRAORD CRIMINAIS 0,00 0,00 0,00 252,00 0,00 0,00 0,00 0,00 0,00 31/08/2022
884 1422900 BRUNO FELIPE DE JESUS ALVIM ESTAGIARIO PRADOS; PRADOS-PJ-UNPJ 0,00 0,00 0,00 264,00 0,00 0,00 0,00 0,00 0,00 31/08/2022
885 339700 BRUNO FERNANDO TORRES LANA PROMOT.ENTRANC.ESPECIAL UBÁ - COMARCA; UBA-PJ-05PJ 1.333,00 0,00 1.757,35 0,00 16.844,55 0,00 0,00 0,00 514,69 31/08/2022
886 1414600 BRUNO GABRIEL DE CASTRO ESTAGIARIO BELO HORIZONTE; GABINETE DE PROCURADOR DE JUSTIÇA - SALA 603 0,00 0,00 0,00 24,00 0,00 0,00 0,00 0,00 0,00 31/08/2022
887 697800 BRUNO GAZZOLA BEZERRA FALCAO ASSESSOR PROCURADOR JUSTICA BELO HORIZONTE - COMARCA; PROCURADOR-GERAL ADJUNTO JURIDICO- GABINETE 1.333,00 0,00 578,00 0,00 0,00 0,00 0,00 0,00 0,00 31/08/2022
888 360300 BRUNO GUERRA DE OLIVEIRA PROMOT.ENTRANC.ESPECIAL UBÁ - COMARCA; UBA-PJ-06PJ 1.333,00 0,00 1.405,88 0,00 12.352,67 0,00 0,00 0,00 514,69 31/08/2022
889 1381600 BRUNO HENRIQUE DE ANDRADE BRUNHARA ESTAGIARIO POUSO ALEGRE; POUSO ALEGRE-PJ-05PJ 0,00 0,00 0,00 264,00 0,00 0,00 0,00 0,00 0,00 31/08/2022
890 1376000 BRUNO HENRIQUE RODRIGUES DOS SANTOS ESTAGIARIO NOVO CRUZEIRO; NOVO CRUZEIRO-PJ-UNPJ 0,00 0,00 0,00 264,00 0,00 0,00 0,00 0,00 0,00 31/08/2022
891 378300 BRUNO HERDY LOPES DE OLIVEIRA ANALISTA DO MP GOVERNADOR VALADARES - COMARCA; GOVERNADOR VALADARES-PJ-03PJ 1.333,00 0,00 578,00 0,00 0,00 0,00 0,00 0,00 0,00 31/08/2022
892 529700 BRUNO JOSE BUENO DIAS OFICIAL DO MP SÃO SEBASTIÃO DO PARAÍSO - COMARCA; SAO SEBASTIAO DO PARAISO-PJ-02PJ 1.333,00 0,00 578,00 0,00 0,00 0,00 0,00 0,00 0,00 31/08/2022
893 691600 BRUNO JOSE RIBEIRO ASSESSOR PROMOTOR JUSTICA CLÁUDIO - COMARCA; CLAUDIO-PJ-UNPJ 1.333,00 0,00 578,00 0,00 0,00 0,00 0,00 0,00 0,00 31/08/2022
894 350100 BRUNO LAUD SERRANO DOS REIS OFICIAL DO MP UBÁ - COMARCA; UBA-PJ-02PJ 1.333,00 0,00 578,00 0,00 0,00 0,00 0,00 0,00 0,00 31/08/2022
895 530600 BRUNO MARQUES DE ALMEIDA ROSSI PROMOTOR 1A ENTRANCIA PRESIDENTE OLEGÁRIO - COMARCA; PRESIDENTE OLEGARIO-PJ-UNPJ 1.333,00 0,00 3.040,44 0,00 15.202,21 0,00 0,00 0,00 464,51 31/08/2022
896 373800 BRUNO MARTINO DE ALBUQUERQUE ANALISTA DO MP PONTE NOVA - COMARCA; PONTE NOVA-PJ-03PJ 1.333,00 0,00 578,00 0,00 0,00 0,00 0,00 0,00 0,00 31/08/2022
897 1496600 BRUNO MIRANDA E SILVA ESTAGIARIO BELO HORIZONTE; GABINETE DE PROCURADOR DE JUSTIÇA - SALA 504 0,00 0,00 0,00 72,00 0,00 0,00 0,00 0,00 0,00 31/08/2022
898 1163200 BRUNO MORAIS MARQUES ESTAGIARIO CARMO DO PARANAIBA; CARMO DO PARANAIBA-PJ-01PJ 0,00 0,00 0,00 96,00 924,00 0,00 0,00 0,00 0,00 31/08/2022
899 470400 BRUNO NOVAIS CABRAL ANALISTA DO MP MUTUM - COMARCA; MUTUM-PJ-UNPJ 1.333,00 0,00 578,00 0,00 0,00 0,00 0,00 0,00 0,00 31/08/2022
900 457300 BRUNO OLIVEIRA MULLER PROMOT.ENTRANC.ESPECIAL ITABIRA - COMARCA; ITABIRA-PJ-04PJ 1.333,00 0,00 2.225,98 0,00 16.844,55 0,00 0,00 0,00 514,69 31/08/2022
901 648600 BRUNO RIBEIRO E MELO ASSESSOR ADMINISTRATIVO IV BELO HORIZONTE - COMARCA; DIR RELACOES INSTITUCIONAIS 1.333,00 0,00 578,00 0,00 0,00 0,00 0,00 0,00 0,00 31/08/2022
902 369200 BRUNO ROBERTO DIAS DE OLIVEIRA OFICIAL DO MP BELO HORIZONTE - COMARCA; BH-22PJ PES COM DEF E IDOSOS-SECRETARIA 1.333,00 0,00 578,00 0,00 0,00 0,00 0,00 0,00 0,00 31/08/2022
903 547700 BRUNO ROBERTO SOUZA GONCALVES ANALISTA DO MP PARACATU - COMARCA; PARACATU-PJ-03PJ 1.333,00 885,30 578,00 0,00 0,00 0,00 0,00 0,00 0,00 31/08/2022
904 546100 BRUNO SA VIEIRA ANALISTA DO MP BARBACENA - COMARCA; BARBACENA-PJ-SECRETARIA 1.333,00 885,30 578,00 0,00 0,00 0,00 0,00 0,00 0,00 31/08/2022
905 438200 BRUNO SALES PEREIRA ANALISTA DO MP BELO HORIZONTE - COMARCA; CENTRAL DE APOIO TECNICO-SETOR CONTABIL 1.333,00 619,71 578,00 0,00 0,00 0,00 0,00 0,00 0,00 31/08/2022
906 537400 BRUNO SANT'ANA CESAR ANALISTA DO MP BELO HORIZONTE - COMARCA; BH-12PJ JUIZO CRIMINAL-GAB 105PJ 1.333,00 0,00 578,00 0,00 0,00 0,00 0,00 0,00 0,00 31/08/2022
907 343500 BRUNO SCHIAVO CRUZ PROMOT.ENTRANC.ESPECIAL IPATINGA - COMARCA; GAECO REGIONAL DE IPATINGA 1.333,00 0,00 3.368,91 0,00 13.475,64 0,00 0,00 0,00 514,69 31/08/2022
908 684000 BRUNO TORRANO AMORIM DE ALMEIDA PROMOTOR 2A ENTRANCIA SÃO FRANCISCO - COMARCA; SAO FRANCISCO-PJ-02PJ 1.333,00 0,00 3.200,47 0,00 16.002,33 0,00 0,00 0,00 488,96 31/08/2022
909 720300 BRUNO YOGUI SHIMABUKURO PROMOTOR SUBSTITUTO JUIZ DE FORA - COMARCA; JUIZ DE FORA-PJ-14PJ 1.333,00 0,00 773,24 0,00 0,00 0,00 0,00 0,00 0,00 31/08/2022
910 655800 CAEL KALINOWSKI SOUZA MATTA INVESTIGADOR DE POLICIA 2 BELO HORIZONTE - COMARCA; NUCLEO DE INFORMACOES E INTELIGENCIA 1.333,00 0,00 0,00 0,00 0,00 0,00 0,00 0,00 0,00 31/08/2022
911 1373900 CAIO ANTONIO DO AMARAL BRAGA ALVES ESTAGIARIO ESPERA FELIZ; ESPERA FELIZ-PJ-UNPJ 0,00 0,00 0,00 264,00 0,00 0,00 0,00 0,00 48,72 31/08/2022
912 719000 CAIO AUGUSTO BOGUS PROMOTOR SUBSTITUTO BETIM - COMARCA; BETIM-PJ-07PJ 1.333,00 0,00 1.375,24 0,00 0,00 0,00 0,00 0,00 0,00 31/08/2022
913 666900 CAIO CESAR ESPIRITO SANTO DO NASCIMENTO PROMOTOR 2A ENTRANCIA SALINAS - COMARCA; SALINAS-PJ-01PJ 1.333,00 0,00 1.429,32 0,00 16.002,33 0,00 0,00 0,00 488,96 31/08/2022
914 685600 CAIO CESAR FERREIRA PROMOTOR SUBSTITUTO PATOS DE MINAS - COMARCA; PATOS DE MINAS-PJ-06PJ 1.333,00 0,00 0,00 0,00 15.202,21 0,00 0,00 0,00 464,51 31/08/2022
915 719100 CAIO DEZONTINI BERNARDES PROMOTOR SUBSTITUTO CONCEIÇÃO DO MATO DENTRO - COMARCA; CONCEICAO DO MATO DENTRO-PJ-UNPJ 1.333,00 0,00 773,24 0,00 0,00 0,00 0,00 0,00 0,00 31/08/2022
916 1411800 CAIO EMANUEL FERNANDES GOUVEIA ESTAGIARIO MONTES CLAROS; MONTES CLAROS-PJ-15PJ 0,00 0,00 0,00 264,00 0,00 0,00 0,00 0,00 0,00 31/08/2022
917 405800 CAIO FERNANDO RODRIGUES DE OLIVEIRA ANALISTA DO MP BELO HORIZONTE - COMARCA; GABINETE DE PROCURADOR DE JUSTIÇA - SALA 805 1.333,00 0,00 578,00 0,00 0,00 0,00 0,00 0,00 0,00 31/08/2022
918 1428700 CAIO GIOVANNI DE FREITAS MATOS ESTAGIARIO BRASILIA DE MINAS; BRASILIA DE MINAS-PJ-02PJ 0,00 0,00 0,00 240,00 0,00 0,00 0,00 0,00 0,00 31/08/2022
919 530000 CAIO GUEDES DE OLIVEIRA ANALISTA DO MP DIAMANTINA - COMARCA; DIAMANTINA-PJ-02PJ 1.333,00 0,00 578,00 0,00 0,00 0,00 0,00 0,00 0,00 31/08/2022
920 491400 CAIO MIRANDA JUNQUEIRA ANALISTA DO MP BUENO BRANDAO - COMARCA; BUENO BRANDAO-PJ-UNPJ 1.333,00 0,00 578,00 0,00 0,00 0,00 0,00 0,00 0,00 31/08/2022
921 1298300 CAIO MONTEIRO ESTAGIARIO DIVINOPOLIS; DIVINOPOLIS-PJ-08PJ 0,00 0,00 0,00 264,00 0,00 0,00 0,00 0,00 0,00 31/08/2022
922 668300 CAIO PALLU COSTA PROMOTOR 2A ENTRANCIA MANTENA - COMARCA; MANTENA-PJ-03PJ 1.333,00 0,00 1.593,34 0,00 16.002,33 0,00 0,00 0,00 488,96 31/08/2022
923 1472100 CAIO RODRIGO RAMOS BENJAMIN ESTAGIARIO BELO HORIZONTE; DIV FISCAL ADM CONT TERCEIRIZACAO 0,00 0,00 0,00 252,00 0,00 0,00 0,00 0,00 0,00 31/08/2022
924 1472700 CAIO VIANA MEIRELES ESTAGIARIO MONTES CLAROS; MONTES CLAROS-PJ-03PJ 0,00 0,00 0,00 240,00 0,00 0,00 0,00 0,00 0,00 31/08/2022
925 171000 CAIUS VINICIUS GONZAGA GOULART PROMOT.ENTRANC.ESPECIAL BELO HORIZONTE - COMARCA; BH-12PJ JUIZO CRIMINAL-GAB 106PJ 1.333,00 0,00 3.368,91 0,00 13.475,64 0,00 0,00 0,00 514,69 31/08/2022
926 1436700 CALEBE JUNGER DE JESUS PEREIRA ESTAGIARIO TEOFILO OTONI; COORD REG SAUDE MACRORREGIAO SANIT NORDESTE 0,00 0,00 0,00 264,00 0,00 0,00 0,00 0,00 0,00 31/08/2022
927 82300 CALIXTO OLIVEIRA SOUZA PROMOT.ENTRANC.ESPECIAL DIVINÓPOLIS - COMARCA; DIVINOPOLIS-PJ-01PJ 1.333,00 0,00 2.769,43 0,00 22.459,40 0,00 0,00 0,00 514,69 31/08/2022
928 415800 CAMILA ALVES DA SILVA ANALISTA DO MP CAETÉ - COMARCA; CAETE-PJ-01PJ 1.333,00 0,00 578,00 0,00 0,00 0,00 0,00 0,00 0,00 31/08/2022
929 1399600 CAMILA AMIZADAI MOREIRA CAMPOS ESTAGIARIO SANTOS DUMONT; SANTOS DUMONT-PJ-03PJ 0,00 0,00 0,00 252,00 0,00 0,00 0,00 0,00 0,00 31/08/2022
930 684900 CAMILA APARECIDA PIRES PROMOTOR SUBSTITUTO BELO HORIZONTE - COMARCA; BH-13PJ JUIZO DE TOXICOS-GAB 006PJ 1.333,00 0,00 773,24 0,00 15.202,21 0,00 0,00 0,00 464,51 31/08/2022
931 1469500 CAMILA AZEVEDO BAHIA ESTAGIARIO JUIZ DE FORA; JUIZ DE FORA-PJ-10PJ 0,00 0,00 0,00 264,00 0,00 0,00 0,00 0,00 0,00 31/08/2022
932 1352800 CAMILA CAETANO SANTOS ESTAGIARIO LUZ; LUZ-PJ-UNPJ 0,00 0,00 0,00 180,00 0,00 0,00 0,00 0,00 0,00 31/08/2022
933 1199600 CAMILA CAROLINE DOS SANTOS FARIA DUARTE ESTAGIARIO UNAI; UNAI-PJ-03PJ 0,00 0,00 0,00 252,00 0,00 0,00 0,00 0,00 0,00 31/08/2022
934 555800 CAMILA CAROLINE ROCHA CHAVES OFICIAL DO MP SALINAS - COMARCA; SALINAS-PJ-01PJ 1.333,00 0,00 578,00 0,00 0,00 0,00 0,00 0,00 0,00 31/08/2022
935 445200 CAMILA CONDE ROCHA ANALISTA DO MP CONTAGEM - COMARCA; CONTAGEM-PJ-21PJ 1.333,00 0,00 578,00 0,00 0,00 0,00 0,00 0,00 0,00 31/08/2022
936 720200 CAMILA COSTA GARRIDO TERRES PROMOTOR SUBSTITUTO RIBEIRÃO DAS NEVES - COMARCA; RIBEIRAO DAS NEVES-PJ-04PJ 1.333,00 0,00 1.945,34 0,00 0,00 0,00 0,00 0,00 0,00 31/08/2022
937 1444600 CAMILA CRISTINA SOUZA BARBOSA ESTAGIARIO PIRAPORA; PIRAPORA-PJ-01PJ 0,00 0,00 0,00 264,00 0,00 0,00 0,00 0,00 0,00 31/08/2022
938 419900 CAMILA CUNNINGHAM PIMENTA DE PADUA ANALISTA DO MP BELO HORIZONTE - COMARCA; ASSESSORIA PSICOSSOCIAL 1.333,00 0,00 578,00 0,00 0,00 0,00 0,00 0,00 0,00 31/08/2022
939 1477000 CAMILA DCHANTAL FIGUEIREDO COELHO ESTAGIARIO GOVERNADOR VALADARES; GOVERNADOR VALADARES-PJ-02PJ 0,00 0,00 0,00 252,00 0,00 0,00 0,00 0,00 0,00 31/08/2022
940 1479500 CAMILA DE JESUS FERREIRA ESTAGIARIO VICOSA; VICOSA-PJ-01PJ 0,00 0,00 0,00 294,60 0,00 0,00 0,00 0,00 256,67 31/08/2022
941 714200 CAMILA DE SOUSA CUNHA ASSESSOR PROMOTOR JUSTICA PRADOS - COMARCA; PRADOS-PJ-UNPJ 1.333,00 0,00 578,00 0,00 0,00 0,00 0,00 0,00 0,00 31/08/2022
942 507700 CAMILA ELIZABETH RODRIGUES ANALISTA DO MP BELO HORIZONTE - COMARCA; BH-02PJ FAMILIA-SECRETARIA 1.333,00 0,00 578,00 0,00 0,00 0,00 0,00 0,00 0,00 31/08/2022
943 372700 CAMILA FONSECA LIMONGE ANALISTA DO MP BETIM - COMARCA; BETIM-PJ-01PJ 1.333,00 0,00 578,00 0,00 0,00 0,00 0,00 0,00 0,00 31/08/2022
944 621300 CAMILA GOLFETO DE SOUSA VALENTE OFICIAL DO MP CARANGOLA - COMARCA; CARANGOLA-PJ-SECRETARIA 1.333,00 1.327,95 578,00 0,00 0,00 634,74 0,00 0,00 0,00 31/08/2022
945 409800 CAMILA GONCALVES COSTA RIBEIRO ANALISTA DO MP INHAPIM - COMARCA; INHAPIM-PJ-02PJ 1.333,00 885,30 578,00 0,00 0,00 0,00 0,00 0,00 0,00 31/08/2022
946 335000 CAMILA GONTIJO DE PAIVA ANALISTA DO MP BELO HORIZONTE - COMARCA; COORD DE CONTROLE CONSTITUCIONALIDADE 1.333,00 0,00 578,00 0,00 952,24 0,00 0,00 0,00 87,29 31/08/2022
947 693400 CAMILA HECKSHER MONTEIRO ASSESSOR PROCURADOR JUSTICA BELO HORIZONTE - COMARCA; GABINETE DE PROCURADOR DE JUSTIÇA - SALA 613 1.333,00 0,00 578,00 0,00 0,00 0,00 0,00 0,00 0,00 31/08/2022
948 696000 CAMILA IMACULADA OLIVEIRA ASSESSOR PROCURADOR JUSTICA BELO HORIZONTE - COMARCA; GABINETE DE PROCURADOR DE JUSTIÇA - SALA 816 1.333,00 0,00 578,00 0,00 0,00 0,00 0,00 0,00 0,00 31/08/2022
949 1486600 CAMILA KELLEN SILVA ALMONDES ESTAGIARIO MANTENA; MANTENA-PJ-03PJ 0,00 0,00 0,00 228,00 0,00 0,00 0,00 0,00 0,00 31/08/2022
950 1493300 CAMILA LIMA SANTANA ESTAGIARIO UBERLANDIA; UBERLANDIA-PJ-11PJ 0,00 0,00 0,00 120,00 0,00 0,00 0,00 0,00 0,00 31/08/2022
951 1456800 CAMILA LOBO SILVA ESTAGIARIO CONGONHAS; CONGONHAS-PJ-01PJ 0,00 0,00 0,00 269,04 0,00 0,00 0,00 0,00 97,43 31/08/2022
952 1478300 CAMILA MARIA DE OLIVEIRA ESTAGIARIO CARATINGA; CARATINGA-PJ-04PJ 0,00 0,00 0,00 269,04 0,00 0,00 0,00 0,00 97,43 31/08/2022
953 1231200 CAMILA MARIZ MACEDO ESTAGIARIO BELO HORIZONTE; GABINETE DE PROCURADOR DE JUSTIÇA - SALA 802 0,00 0,00 0,00 204,00 0,00 0,00 0,00 0,00 0,00 31/08/2022
954 547800 CAMILA MATTARELLI DE ABREU E SILVA ANALISTA DO MP BELO HORIZONTE - COMARCA; CAO-VIOLENCIA DOMESTICA E FAMILIAR 1.333,00 0,00 578,00 0,00 0,00 0,00 0,00 0,00 0,00 31/08/2022
955 1309200 CAMILA MONTALVAO BARBOSA ESTAGIARIO CURVELO; CURVELO-PJ-05PJ 0,00 0,00 0,00 192,00 0,00 0,00 0,00 0,00 0,00 31/08/2022
956 1183500 CAMILA MORAIS FERREIRA ESTAGIARIO BELO HORIZONTE; BH-02PJ FAMILIA-GAB 015PJ
957 1326100 CAMILA MOREIRA DE SOUZA SOBRINHO ESTAGIARIO BELO HORIZONTE; BH-23PJ INFRACIONAL-RECEPCAO 0,00 0,00 0,00 217,56 0,00 0,00 0,00 0,00 293,33 31/08/2022
958 1401400 CAMILA NAYANA SILVA FRANCO ESTAGIARIO PRESIDENTE OLEGARIO; PRESIDENTE OLEGARIO-PJ-UNPJ 0,00 0,00 0,00 252,00 0,00 0,00 0,00 0,00 0,00 31/08/2022
959 1287600 CAMILA NUNES COELHO LAGE ESTAGIARIO BELO HORIZONTE; BH-23PJ INFRACIONAL-RECEPCAO 0,00 0,00 0,00 252,00 0,00 0,00 0,00 0,00 0,00 31/08/2022
960 1345800 CAMILA RABELO SILVA ESTAGIARIO 0,00 0,00 0,00 108,00 362,08 0,00 0,00 0,00 0,00 31/08/2022
961 1386700 CAMILA RODRIGUES COSTA ESTAGIARIO UBERABA; UBERABA-PJ-06PJ 0,00 0,00 0,00 252,00 0,00 0,00 0,00 0,00 0,00 31/08/2022
962 1290600 CAMILA RODRIGUES MAURO ESTAGIARIO CONTAGEM; CONTAGEM-PJ-22PJ 0,00 0,00 0,00 264,00 0,00 0,00 0,00 0,00 0,00 31/08/2022
963 1382700 CAMILA SANTOS SANTIAGO ESTAGIARIO BELO HORIZONTE; COORD ESTADUAL DE DEFESA DOS ANIMAIS 0,00 0,00 0,00 240,00 0,00 0,00 0,00 0,00 0,00 31/08/2022
964 1294800 CAMILA SCHULTZ DE OLIVEIRA LIMA ESTAGIARIO BELO HORIZONTE; BH-18PJ DIREITOS HUMANOS-GAB 126PJ 0,00 0,00 0,00 144,00 0,00 0,00 0,00 0,00 0,00 31/08/2022
965 1373400 CAMILA STEPHANIE SANTOS SILVA ESTAGIARIO VESPASIANO; VESPASIANO-PJ-03PJ 0,00 0,00 0,00 264,00 0,00 0,00 0,00 0,00 0,00 31/08/2022
966 1170200 CAMILA VENANCIO DIAS ESTAGIARIO BELO HORIZONTE; PROC. JUSTICA DIR. DIFUSOS E COLETIVOS
967 1347200 CAMILLA MARTINS DE FREITAS ESTAGIARIO BELO HORIZONTE; CAO-CIVEL 0,00 0,00 0,00 252,00 0,00 0,00 0,00 0,00 0,00 31/08/2022
968 1347600 CAMILLA PRINCE CAETANO DE OLIVEIRA ESTAGIARIO BELO HORIZONTE; CAO-CIVEL 0,00 0,00 0,00 252,00 0,00 0,00 0,00 0,00 0,00 31/08/2022
969 1361700 CAMILLA RABELO E SILVA ESTAGIARIO VARZEA DA PALMA; VARZEA DA PALMA-PJ-02PJ 0,00 0,00 0,00 264,00 0,00 0,00 0,00 0,00 0,00 31/08/2022
970 1334200 CAMILLA RODRIGUES FERREIRA ESTAGIARIO CONSELHEIRO LAFAIETE; CONSELHEIRO LAFAIETE-PJ-01PJ 0,00 0,00 0,00 264,00 0,00 0,00 0,00 0,00 0,00 31/08/2022
971 1409900 CAMILLE DE CARVALHO COELHO ESTAGIARIO GUANHAES; GUANHAES-PJ-02PJ 0,00 0,00 0,00 252,00 0,00 0,00 0,00 0,00 0,00 31/08/2022
972 1340100 CAMILLE MOREIRA CARRILHO SOARES ESTAGIARIO BELO HORIZONTE; GABINETE DE PROCURADOR DE JUSTIÇA - SALA 301 0,00 0,00 0,00 180,00 0,00 0,00 0,00 0,00 0,00 31/08/2022
973 430000 CANDIDA MARINA COSTA ANALISTA DO MP BELO HORIZONTE - COMARCA; DIRET DE INFORMACAO E CONHECIMENTO-DINC/CEAF 1.333,00 0,00 578,00 0,00 0,00 0,00 0,00 0,00 0,00 31/08/2022
974 614300 CARINA CORTIELHA OFICIAL DO MP BELO HORIZONTE - COMARCA; BH-23PJ CIVEL-FISC AC POL PUB I 1.333,00 0,00 578,00 0,00 0,00 0,00 0,00 0,00 4.383,01 31/08/2022
975 380400 CARINA DIAS FACANHA DE SOUZA ANALISTA DO MP SANTA RITA DO SAPUCAÍ - COMARCA; SANTA RITA DO SAPUCAI-PJ-SECRETARIA 1.333,00 0,00 578,00 0,00 0,00 0,00 0,00 0,00 0,00 31/08/2022
976 1402400 CARINA RIBEIRO COELHO ESTAGIARIO BELO HORIZONTE; 18ª PJ DEFESA DOS DIREITOS HUMANOS, IGUALDADE 0,00 0,00 0,00 252,00 0,00 0,00 0,00 0,00 0,00 31/08/2022
977 255000 CARLA ADRIANA DE MENEZES OFICIAL DO MP BELO HORIZONTE - COMARCA; CENT DE APOIO TEC-SETOR DEF,IDOSO E INFANC 1.333,00 0,00 578,00 0,00 0,00 0,00 0,00 0,00 0,00 31/08/2022
978 425100 CARLA ADRIANA DINIZ AMARAL OFICIAL DO MP CONTAGEM - COMARCA; CONTAGEM-PJ-SECRETARIA 1.333,00 0,00 578,00 0,00 0,00 0,00 0,00 0,00 0,00 31/08/2022
979 508100 CARLA ALESSANDRA FONSECA ANALISTA DO MP BELO HORIZONTE - COMARCA; CAO-ORDEM ECONOMICA E TRIBUTARIA-SECRETARIA 1.333,00 0,00 578,00 0,00 0,00 0,00 0,00 0,00 0,00 31/08/2022
980 607100 CARLA ANGELICA DIAS MIRANDA OFICIAL DO MP JABOTICATUBAS - COMARCA; JABOTICATUBAS-PJ-UNPJ 1.333,00 0,00 578,00 0,00 0,00 0,00 0,00 0,00 0,00 31/08/2022
981 351500 CARLA APARECIDA MENDES RAMIRIO OFICIAL DO MP PASSOS - COMARCA; PASSOS-PJ-01PJ 1.333,00 0,00 578,00 0,00 0,00 0,00 0,00 0,00 0,00 31/08/2022
982 713100 CARLA DOS SANTOS SOUZA ASSESSOR PROMOTOR JUSTICA ESPERA FELIZ - COMARCA; ESPERA FELIZ-PJ-UNPJ 1.333,00 0,00 578,00 0,00 0,00 25,56 0,00 0,00 0,00 31/08/2022
983 1498400 CARLA EDUARDA DA SILVA MONCAO ESTAGIARIO MONTES CLAROS; MONTES CLAROS-PJ-17PJ 0,00 0,00 0,00 60,00 0,00 0,00 0,00 0,00 0,00 31/08/2022
984 442800 CARLA GONCALVES COSTA SOALHEIRO ANALISTA DO MP GOVERNADOR VALADARES - COMARCA; GOVERNADOR VALADARES-PJ-11PJ 1.333,00 885,30 578,00 0,00 0,00 0,00 0,00 0,00 0,00 31/08/2022
985 321500 CARLA GONCALVES MASSOTE OFICIAL DO MP CAMPO BELO - COMARCA; CAMPO BELO-PJ-02PJ 1.333,00 0,00 578,00 0,00 0,00 0,00 0,00 0,00 0,00 31/08/2022
986 429200 CARLA HAUTEQUESTT BECHARA ANALISTA DO MP BELO HORIZONTE - COMARCA; DIRET DE INFORMACAO E CONHECIMENTO-DINC/CEAF 1.333,00 0,00 578,00 0,00 0,00 0,00 0,00 0,00 0,00 31/08/2022
987 1214400 CARLA LEOPOLDO DE OLIVEIRA ESTAGIARIO JUIZ DE FORA; GAECO REGIONAL DA ZONA DA MATA-JUIZ DE FORA 0,00 0,00 0,00 264,00 0,00 0,00 0,00 0,00 0,00 31/08/2022
988 157400 CARLA MARIA ALESSI LAFETA DE CARVALHO PROMOT.ENTRANC.ESPECIAL BELO HORIZONTE - COMARCA; BH-02PJ FAMILIA-GAB 029PJ 1.333,00 0,00 2.694,61 0,00 11.229,70 0,00 0,00 0,00 0,00 31/08/2022
989 247500 CARLA MATILDE GUIMARAES DE OLIVEIRA OFICIAL DO MP ITAJUBA - COMARCA; ITAJUBA-PJ-SECRETARIA 1.333,00 0,00 578,00 0,00 0,00 0,00 0,00 0,00 0,00 31/08/2022
990 226100 CARLA MERLI DA CONCEICAO ANALISTA DO MP BELO HORIZONTE - COMARCA; CENTRAL DE APOIO TECNICO-SETOR CONTABIL 1.333,00 0,00 578,00 0,00 0,00 0,00 0,00 0,00 0,00 31/08/2022
991 685700 CARLA PRISCILLA PEREIRA VIANA PROMOTOR SUBSTITUTO GOVERNADOR VALADARES - COMARCA; GOVERNADOR VALADARES-PJ-05PJ 1.333,00 0,00 1.391,24 0,00 15.202,21 0,00 0,00 0,00 464,51 31/08/2022
992 343100 CARLA REGINA GOULART SALARO DUVANEL PROMOT.ENTRANC.ESPECIAL GOVERNADOR VALADARES - COMARCA; GOVERNADOR VALADARES-PJ-06PJ 1.333,00 0,00 2.247,88 0,00 16.844,55 0,00 0,00 0,00 514,69 31/08/2022
993 1402100 CARLA ROBERTA MONTEIRO NASCIMENTO ESTAGIARIO BELO HORIZONTE; BH-13PJ JUIZO DE TOXICOS-COORD PJ 0,00 0,00 0,00 240,00 0,00 0,00 0,00 0,00 0,00 31/08/2022
994 532600 CARLA RODRIGUES FAZUOLI PROMOTOR 2A ENTRANCIA SACRAMENTO - COMARCA; SACRAMENTO-PJ-02PJ 1.333,00 0,00 3.200,47 0,00 0,00 0,00 0,00 0,00 0,00 31/08/2022
995 1474200 CARLEUGENIA ROCHA GOMES ESTAGIARIO OURO PRETO; OURO PRETO-PJ-04PJ 0,00 0,00 0,00 264,00 0,00 0,00 0,00 0,00 0,00 31/08/2022
996 181401 CARLO MICHEL GAUDENSI COELHO ANALISTA DO MP BELO HORIZONTE - COMARCA; BH-08PJ JUIZADO ESPECIAL-SECRETARIA 1.333,00 0,00 578,00 0,00 0,00 0,00 0,00 0,00 0,00 31/08/2022
997 634000 CARLOS ALBERTO AMORMINO TRIGUEIRO ANALISTA DO MP BELO HORIZONTE - COMARCA; DIRET DE APOIO AS PROCURADORIAS DE JUSTICA 1.333,00 885,30 578,00 0,00 0,00 0,00 0,00 0,00 0,00 31/08/2022
998 232300 CARLOS ALBERTO DA SILVEIRA ISOLDI FILHO PROMOT.ENTRANC.ESPECIAL BELO HORIZONTE - COMARCA; CORREGEDORIA-GERAL-ASSESSORIA 1.333,00 0,00 3.368,91 0,00 16.844,55 0,00 0,00 0,00 514,69 31/08/2022
999 637900 CARLOS ALBERTO DE MOURA OFICIAL DO MP SETE LAGOAS - COMARCA; SETE LAGOAS-PJ-07PJ 1.333,00 0,00 578,00 0,00 0,00 0,00 0,00 0,00 0,00 31/08/2022
1000 638700 CARLOS ALBERTO FERREIRA BRAGA ANALISTA DO MP VESPASIANO - COMARCA; VESPASIANO-PJ-06PJ 1.333,00 0,00 578,00 0,00 0,00 0,00 0,00 0,00 0,00 31/08/2022
1001 54400 CARLOS ALBERTO RIBEIRO MOREIRA PROMOTOR 2A ENTRANCIA LAVRAS - COMARCA; LAVRAS-PJ-02PJ 1.333,00 0,00 2.811,76 0,00 10.668,22 0,00 0,00 0,00 488,96 31/08/2022
1002 375801 CARLOS ALBERTO ROCHA ANALISTA DO MP VARGINHA - COMARCA; GAECO REGIONAL DE VARGINHA 1.333,00 885,30 578,00 0,00 0,00 0,00 0,00 0,00 0,00 31/08/2022
1003 110700 CARLOS ALBERTO VALERA PROMOT.ENTRANC.ESPECIAL UBERABA - COMARCA; UBERABA-PJ-08PJ 1.333,00 0,00 1.288,73 0,00 22.459,40 0,00 0,00 0,00 514,69 31/08/2022
1004 94200 CARLOS ANDRE MARIANI BITTENCOURT PROCURADOR DE JUSTICA BELO HORIZONTE - COMARCA; PROCURADORIA-GERAL ADJUNTA INSTITUCIONAL 1.333,00 0,00 3.546,22 0,00 13.002,81 0,00 0,00 0,00 541,78 31/08/2022
1005 462800 CARLOS ANDREI SOARES FAGUNDES ANALISTA DO MP MONTES CLAROS - COMARCA; MONTES CLAROS-PJ-09PJ 1.333,00 0,00 578,00 0,00 0,00 0,00 0,00 0,00 0,00 31/08/2022
1006 370300 CARLOS AUGUSTO BUENO DIAS ASSESSOR ADMINISTRATIVO IV BELO HORIZONTE - COMARCA; SUPERINTENDÊNCIA DE ENGENHARIA E ARQUITETURA 1.333,00 0,00 578,00 0,00 0,00 0,00 0,00 0,00 0,00 31/08/2022
1007 66200 CARLOS AUGUSTO CANEDO GONCALVES DA SILVA PROCURADOR DE JUSTICA BELO HORIZONTE - COMARCA; GABINETE DE PROCURADOR DE JUSTIÇA - SALA 911 1.333,00 0,00 3.546,22 0,00 11.820,74 0,00 0,00 0,00 541,78 31/08/2022
1008 83200 CARLOS AUGUSTO ESTEVES DE CARVALHO PROMOT.ENTRANC.ESPECIAL JUIZ DE FORA - COMARCA; JUIZ DE FORA-PJ-16PJ 1.333,00 0,00 2.108,83 0,00 5.614,85 0,00 0,00 0,00 0,00 31/08/2022
1009 143500 CARLOS AUGUSTO GOMES BRAGA PROMOT.ENTRANC.ESPECIAL BELO HORIZONTE - COMARCA; BH-03PJ EMPRESARIAL-GAB 036PJ 1.333,00 0,00 3.368,91 0,00 22.459,40 0,00 0,00 0,00 514,69 31/08/2022
1010 110800 CARLOS CESAR MARQUES LUZ PROMOTOR 1A ENTRANCIA JACUTINGA - COMARCA; JACUTINGA-PJ-UNPJ 1.333,00 0,00 1.238,16 0,00 20.269,61 0,00 0,00 0,00 464,51 31/08/2022
1011 505100 CARLOS CEZAR CARVALHO ANALISTA DO MP CONTAGEM - COMARCA; CONTAGEM-PJ-02PJ 1.333,00 0,00 578,00 0,00 0,00 0,00 0,00 0,00 0,00 31/08/2022
1012 344300 CARLOS EDUARDO AVANZI DE ALMEIDA PROMOTOR 2A ENTRANCIA CAMPO BELO - COMARCA; CAMPO BELO-PJ-03PJ 1.333,00 0,00 3.200,47 0,00 16.002,33 0,00 0,00 0,00 488,96 31/08/2022
1013 196800 CARLOS EDUARDO DE OLIVEIRA MARINHO OFICIAL DO MP ALPINÓPOLIS - COMARCA; ALPINOPOLIS-PJ-UNPJ 1.333,00 0,00 578,00 0,00 0,00 0,00 0,00 0,00 0,00 31/08/2022
1014 1269100 CARLOS EDUARDO DE SOUZA ESTAGIARIO BOTELHOS; BOTELHOS-PJ-UNPJ 0,00 0,00 0,00 264,00 0,00 0,00 0,00 0,00 0,00 31/08/2022
1015 1485700 CARLOS EDUARDO DOS SANTOS WALTER ESTAGIARIO BETIM; BETIM-PJ-09PJ 0,00 0,00 0,00 228,00 0,00 0,00 0,00 0,00 0,00 31/08/2022
1016 157500 CARLOS EDUARDO DUTRA PIRES PROMOT.ENTRANC.ESPECIAL SETE LAGOAS - COMARCA; SETE LAGOAS-PJ-02PJ 1.333,00 0,00 2.225,98 0,00 22.459,40 0,00 0,00 0,00 514,69 31/08/2022
1017 483200 CARLOS EDUARDO FERNANDES NEVES RIBEIRO PROMOT.ENTRANC.ESPECIAL BARBACENA - COMARCA; BARBACENA-PJ-08PJ 1.333,00 0,00 3.368,91 0,00 16.844,55 0,00 0,00 0,00 514,69 31/08/2022
1018 315400 CARLOS EDUARDO FERREIRA PINTO PROMOT.ENTRANC.ESPECIAL BELO HORIZONTE - COMARCA; CAO-MEIO AMBIENTE 1.333,00 0,00 3.368,91 0,00 16.844,55 0,00 0,00 0,00 514,69 31/08/2022
1019 55300 CARLOS EDUARDO MAFRA CAVALCANTI PROCURADOR DE JUSTICA BELO HORIZONTE - COMARCA; GABINETE DE PROCURADOR DE JUSTIÇA - SALA 503 1.333,00 0,00 2.811,76 0,00 17.731,11 0,00 0,00 0,00 541,78 31/08/2022
1020 650800 CARLOS EDUARDO NIZA DA SILVA OFICIAL DO MP IGARAPÉ - COMARCA; IGARAPE-PJ-01PJ 1.333,00 885,30 578,00 0,00 0,00 0,00 0,00 0,00 0,00 31/08/2022
1021 491800 CARLOS EDUARDO ROMAN OFICIAL DO MP BARBACENA - COMARCA; BARBACENA-PJ-09PJ 1.333,00 0,00 578,00 0,00 0,00 0,00 0,00 0,00 0,00 31/08/2022
1022 1333500 CARLOS EDUARDO SANTOS DIAS ESTAGIARIO ALMENARA; ALMENARA-PJ-COORD PJ 0,00 0,00 0,00 264,00 0,00 0,00 0,00 0,00 0,00 31/08/2022
1023 157600 CARLOS EUGENIO SOUTO MAIOR FILIZOLA JUNIOR PROMOT.ENTRANC.ESPECIAL BELO HORIZONTE - COMARCA; BH-07PJ TRIBUNAL DO JURI 1.333,00 0,00 2.624,34 0,00 11.229,70 0,00 0,00 0,00 0,00 31/08/2022
1024 299300 CARLOS HENRIQUE BICALHO ANALISTA DO MP BELO HORIZONTE - COMARCA; BH-17PJ PATRIMONIO PUBLICO-SECRETARIA 1.333,00 885,30 578,00 0,00 0,00 0,00 0,00 0,00 0,00 31/08/2022
1025 1330100 CARLOS HENRIQUE DE CARVALHO FREIRE ESTAGIARIO CAMPO BELO; CAMPO BELO-PJ-01PJ 0,00 0,00 0,00 264,00 0,00 0,00 0,00 0,00 0,00 31/08/2022
1026 205100 CARLOS HENRIQUE ESTEVES OFICIAL DO MP ITAMBACURI - COMARCA; ITAMBACURI-PJ-01PJ 1.333,00 0,00 578,00 0,00 0,00 0,00 0,00 0,00 0,00 31/08/2022
1027 351600 CARLOS HENRIQUE FELICIO DA FONSECA OFICIAL DO MP JUIZ DE FORA - COMARCA; JUIZ DE FORA-PJ-21PJ 1.333,00 0,00 578,00 0,00 0,00 0,00 0,00 0,00 0,00 31/08/2022
1028 210900 CARLOS HENRIQUE TORRES DE SOUZA PROMOT.ENTRANC.ESPECIAL BELO HORIZONTE - COMARCA; BH-06PJ JUIZO CIVEL-GAB 055PJ 1.333,00 0,00 3.368,91 0,00 22.459,40 0,00 0,00 0,00 514,69 31/08/2022
1029 104600 CARLOS JOSE E SILVA FORTES PROMOT.ENTRANC.ESPECIAL DIVINÓPOLIS - COMARCA; DIVINOPOLIS-PJ-06PJ 1.333,00 0,00 2.624,31 0,00 5.614,85 0,00 0,00 0,00 514,69 31/08/2022
1030 85400 CARLOS JOSE VIEIRA OFICIAL DO MP BELO HORIZONTE - COMARCA; DIRETORIA DO COLEGIO E DA CAMARA DE PJ 1.333,00 0,00 578,00 0,00 0,00 0,00 0,00 0,00 0,00 31/08/2022
1031 1298700 CARLOS MAGNO DE ASSIS DUTRA ESTAGIARIO NOVA SERRANA; NOVA SERRANA-PJ-03PJ 0,00 0,00 0,00 264,00 0,00 0,00 0,00 0,00 0,00 31/08/2022
1032 1142200 CARLOS MARTINS DE OLIVEIRA JUNIOR ESTAGIARIO 0,00 0,00 0,00 12,00 0,00 0,00 0,00 0,00 0,00 31/08/2022
1033 229100 CARLOS MERCES DE OLIVEIRA ANALISTA DO MP BELO HORIZONTE - COMARCA; CENTRAL DE APOIO TECN-SETOR DE MEIO AMBIENTE 1.333,00 0,00 578,00 0,00 0,00 0,00 0,00 0,00 0,00 31/08/2022
1034 538300 CARLOS RANGEL SILVA DE MELO ANALISTA DO MP BELO HORIZONTE - COMARCA; DIVISAO DE CONTROLE IMOBILIARIO 1.333,00 1.770,60 578,00 0,00 0,00 0,00 0,00 0,00 0,00 31/08/2022
1035 265100 CARLOS REIFF MIRANDA ANALISTA DO MP BELO HORIZONTE - COMARCA; BH-19PJ SAUDE-SECRETARIA 150PJ 1.333,00 0,00 578,00 0,00 0,00 0,00 0,00 0,00 0,00 31/08/2022
1036 305400 CARLOS ROCHA DE SOUZA OFICIAL DO MP MONTALVÂNIA - COMARCA; MONTALVANIA-PJ-SECRETARIA 1.333,00 0,00 578,00 0,00 0,00 0,00 0,00 0,00 0,00 31/08/2022
1037 371600 CARLOS SAMUEL BORGES CUNHA PROMOT.ENTRANC.ESPECIAL MANHUAÇU - COMARCA; MANHUACU-PJ-05PJ 1.333,00 0,00 1.757,35 0,00 16.844,55 0,00 0,00 0,00 514,69 31/08/2022
1038 1436300 CARLOS VINICIUS JOTA COSTA ESTAGIARIO BELO HORIZONTE; GABINETE DE PROCURADOR DE JUSTIÇA - SALA 902 0,00 0,00 0,00 240,00 0,00 0,00 0,00 0,00 0,00 31/08/2022
1039 1278600 CARLOS WAGNER VASCONCELOS REGO BARROS ESTAGIARIO SETE LAGOAS; SETE LAGOAS-PJ-SEC CRIMINAIS 0,00 0,00 0,00 240,00 0,00 0,00 0,00 0,00 0,00 31/08/2022
1040 293400 CARLOS WILDE RIBEIRO DE MELLO PROMOT.ENTRANC.ESPECIAL JUIZ DE FORA - COMARCA; JUIZ DE FORA-PJ-09PJ 1.333,00 0,00 2.905,50 0,00 12.352,67 0,00 0,00 0,00 514,69 31/08/2022
1041 1265300 CARMELITA DE ALMEIDA SOUZA ESTAGIARIO PRATAPOLIS; PRATAPOLIS-PJ-UNPJ 0,00 0,00 0,00 252,00 0,00 0,00 0,00 0,00 0,00 31/08/2022
1042 399900 CARMELITA EVANGELISTA DE SOUZA OFICIAL DO MP JOÃO PINHEIRO - COMARCA; JOAO PINHEIRO-PJ-01PJ 1.333,00 0,00 578,00 0,00 0,00 0,00 0,00 0,00 0,00 31/08/2022
1043 202000 CARMEN LUCIA MARIZ DE MACEDO OFICIAL DO MP BELO HORIZONTE - COMARCA; DIRETORIA GESTAO COMPRAS LICITACOES 1.333,00 0,00 578,00 0,00 5.316,74 0,00 0,00 0,00 487,37 31/08/2022
1044 1312300 CAROLINA ABREU DOS SANTOS ESTAGIARIO SETE LAGOAS; SETE LAGOAS-PJ-01PJ 0,00 0,00 0,00 264,00 0,00 0,00 0,00 0,00 0,00 31/08/2022
1045 1462200 CAROLINA AMANDA DA SILVA ESTAGIARIO BAEPENDI; BAEPENDI-PJ-UNPJ 0,00 0,00 0,00 264,00 0,00 0,00 0,00 0,00 0,00 31/08/2022
1046 1315000 CAROLINA AMARAL OLIVEIRA RODRIGUES ESTAGIARIO MONTES CLAROS; COORD REG SAUDE MACRORREGIAO SANITARIA NORTE 0,00 0,00 0,00 264,00 0,00 0,00 0,00 0,00 0,00 31/08/2022
1047 359700 CAROLINA ANDRADE BORGES DE MATTOS PROMOTOR SUBSTITUTO BICAS - COMARCA; BICAS-PJ-UNPJ 1.333,00 0,00 2.436,87 0,00 10.134,81 0,00 0,00 0,00 0,00 31/08/2022
1048 1385900 CAROLINA AQUINO DE SOUSA NUNES ESTAGIARIO CONTAGEM; CONTAGEM-PJ-06PJ 0,00 0,00 0,00 120,00 0,00 0,00 0,00 0,00 0,00 31/08/2022
1049 1404300 CAROLINA BARBOSA GUEDES ESTAGIARIO UBERLANDIA; UBERLANDIA-PJ-05PJ 0,00 0,00 0,00 240,00 0,00 0,00 0,00 0,00 0,00 31/08/2022
1050 1403600 CAROLINA BEDESCHI CALAIS ESTAGIARIO BELO HORIZONTE; GABINETE DE PROCURADOR DE JUSTIÇA - SALA 707 0,00 0,00 0,00 96,00 0,00 0,00 0,00 0,00 0,00 31/08/2022
1051 1454400 CAROLINA CABECO PEREIRA ESTAGIARIO FRUTAL; FRUTAL-PJ-05PJ 0,00 0,00 0,00 264,00 0,00 0,00 0,00 0,00 0,00 31/08/2022
1052 701900 CAROLINA CARVALHO COSTA ASSESSOR PROCURADOR JUSTICA BELO HORIZONTE - COMARCA; GABINETE DE PROCURADOR DE JUSTIÇA - SALA 811 1.333,00 0,00 578,00 0,00 0,00 0,00 0,00 0,00 0,00 31/08/2022
1053 611000 CAROLINA CERIGATTO PROMOT.ENTRANC.ESPECIAL GOVERNADOR VALADARES - COMARCA; GOVERNADOR VALADARES-PJ-11PJ 1.333,00 0,00 0,00 0,00 16.844,55 0,00 0,00 0,00 514,69 31/08/2022
1054 228500 CAROLINA CHIARELLA DOS SANTOS RIBEIRO COORDENADOR I BELO HORIZONTE - COMARCA; DIVISAO TRANSPORTES 1.333,00 0,00 578,00 0,00 0,00 0,00 0,00 0,00 4.712,19 31/08/2022
1055 446500 CAROLINA COSTA VAL RODRIGUES ANALISTA DO MP BELO HORIZONTE - COMARCA; DIVISAO DE MATERIAIS 1.333,00 0,00 578,00 0,00 0,00 0,00 0,00 0,00 0,00 31/08/2022
1056 603501 CAROLINA DOMINGOS BRANDAO RABELLO ANALISTA DO MP BARROSO - COMARCA; BARROSO-PJ-01PJ 1.333,00 885,30 578,00 0,00 0,00 0,00 0,00 0,00 0,00 31/08/2022
1057 404300 CAROLINA DOS SANTOS VIEIRA ANALISTA DO MP BELO HORIZONTE - COMARCA; BH-08PJ JUIZADO ESPECIAL-SECRETARIA 1.333,00 0,00 578,00 0,00 5.432,94 0,00 0,00 0,00 498,02 31/08/2022
1058 634600 CAROLINA FRARE LAMEIRINHA PROMOTOR 2A ENTRANCIA PATOS DE MINAS - COMARCA; COORD REG BACIAS PARACATU,URUCUIA E ABAETE 1.333,00 0,00 2.260,83 0,00 0,00 0,00 0,00 0,00 0,00 31/08/2022
1059 405401 CAROLINA GENTIL MEDEIROS MARQUEZ PROMOTOR 2A ENTRANCIA LAGOA SANTA - COMARCA; LAGOA SANTA - 03ª PJ 1.333,00 0,00 2.811,76 0,00 6.134,23 0,00 0,00 0,00 1.153,50 31/08/2022
1060 551200 CAROLINA LOPES ARANTES MASCARENHAS ANALISTA DO MP CAPINÓPOLIS - COMARCA; CAO-CIVEL 1.333,00 885,30 578,00 0,00 0,00 0,00 0,00 0,00 0,00 31/08/2022
1061 622600 CAROLINA LOREDO LOPES CATIZANI OFICIAL DO MP RIBEIRÃO DAS NEVES - COMARCA; RIBEIRAO DAS NEVES-PJ-12PJ 1.333,00 0,00 578,00 0,00 0,00 0,00 0,00 0,00 0,00 31/08/2022
1062 1244000 CAROLINA MARIA DE ANDRADE RAMOS ESTAGIARIO GUARANI; GUARANI-PJ-UNPJ 0,00 0,00 0,00 228,00 0,00 0,00 0,00 0,00 0,00 31/08/2022
1063 362900 CAROLINA MARQUES ANDRADE PROMOT.ENTRANC.ESPECIAL UBERABA - COMARCA; UBERABA-PJ-16PJ 1.333,00 0,00 2.905,50 0,00 16.844,55 0,00 0,00 0,00 514,69 31/08/2022
1064 457400 CAROLINA MELO CAMPOS PROMOTOR SUBSTITUTO RIBEIRÃO DAS NEVES - COMARCA; RIBEIRAO DAS NEVES-PJ-10PJ 1.333,00 0,00 937,25 0,00 15.202,21 0,00 0,00 0,00 464,51 31/08/2022
1065 382200 CAROLINA MENDES CHAVES LIN ANALISTA DO MP BELO HORIZONTE - COMARCA; BH-12PJ JUIZO CRIMINAL-GAB 088PJ 1.333,00 885,30 578,00 0,00 0,00 0,00 0,00 0,00 0,00 31/08/2022
1066 313600 CAROLINA MENDONCA DE SIQUEIRA PROMOT.ENTRANC.ESPECIAL BETIM - COMARCA; BETIM-PJ-08PJ 1.333,00 0,00 1.405,88 0,00 11.229,70 0,00 0,00 0,00 514,69 31/08/2022
1067 461900 CAROLINA MURTA TEIXEIRA DIAS ANALISTA DO MP BELO HORIZONTE - COMARCA; CENTRO AUTOCOMPOSICAO DE CONFLITOS 1.333,00 0,00 578,00 0,00 0,00 0,00 0,00 0,00 0,00 31/08/2022
1068 1279400 CAROLINA OLIVEIRA SARDINHA ESTAGIARIO BELO HORIZONTE; DIRETORIA DE PAGAMENTO DE PESSOAL-DPAG 0,00 0,00 0,00 252,00 0,00 0,00 0,00 0,00 0,00 31/08/2022
1069 1193900 CAROLINA PEREIRA VIEIRA ESTAGIARIO BELO HORIZONTE; GABINETE DE PROCURADOR DE JUSTIÇA - SALA 406 0,00 0,00 0,00 252,00 0,00 0,00 0,00 0,00 0,00 31/08/2022
1070 509600 CAROLINA PINTO DE OLIVEIRA SOUZA ANALISTA DO MP MURIAÉ - COMARCA; MURIAE-PJ-01PJ 1.333,00 885,30 578,00 0,00 0,00 0,00 0,00 0,00 0,00 31/08/2022
1071 526400 CAROLINA QUEIROZ DE CARVALHO PROMOT.ENTRANC.ESPECIAL CONSELHEIRO LAFAIETE - COMARCA; CONSELHEIRO LAFAIETE-PJ-02PJ 1.333,00 0,00 1.373,82 0,00 0,00 0,00 0,00 0,00 0,00 31/08/2022
1072 1412700 CAROLINA REIS SILVA ESTAGIARIO PATOS DE MINAS; PATOS DE MINAS-PJ-04PJ 0,00 0,00 0,00 228,00 0,00 0,00 0,00 0,00 0,00 31/08/2022
1073 1420000 CAROLINA RIBEIROS DOS SANTOS ESTAGIARIO BELO HORIZONTE; BH-09PJ AUDITORIA MILITAR-GAB 075PJ
1074 667000 CAROLINA RITA TORRES GRUBER PROMOTOR 2A ENTRANCIA SÃO FRANCISCO - COMARCA; SAO FRANCISCO-PJ-01PJ 1.333,00 0,00 1.593,34 0,00 16.002,33 0,00 0,00 0,00 488,96 31/08/2022
1075 629100 CAROLINA RODRIGUES AMARAL ANALISTA DO MP BELO HORIZONTE - COMARCA; PROC. JUSTICA DIR. DIFUSOS E COLETIVOS-SEC 1.333,00 0,00 578,00 0,00 0,00 0,00 0,00 0,00 0,00 31/08/2022
1076 502600 CAROLINA RODRIGUES RUBEN ANALISTA DO MP BELO HORIZONTE - COMARCA; BH-18PJ VIOLENCIA DOMESTICA-GAB 007PJ 1.333,00 1.770,60 578,00 0,00 0,00 0,00 0,00 0,00 0,00 31/08/2022
1077 1176700 CAROLINA SOUZA ALVES ESTAGIARIO SABARA; SABARA-PJ-03PJ 0,00 0,00 0,00 108,00 0,00 0,00 0,00 0,00 0,00 31/08/2022
1078 529600 CAROLINA VAZ DE MELO MAMBRINI ANALISTA DO MP BELO HORIZONTE - COMARCA; BH-14PJ DEFESA CONSUMIDOR-GAB 005PJ 1.333,00 0,00 578,00 0,00 0,00 0,00 0,00 0,00 0,00 31/08/2022
1079 619100 CAROLINA ZAKHIA NARDELLI RODRIGUES ANALISTA DO MP NEPOMUCENO - COMARCA; NEPOMUCENO-PJ-UNPJ 1.333,00 885,30 578,00 0,00 0,00 0,00 0,00 0,00 0,00 31/08/2022
1080 517600 CAROLINE ALVES DE OLIVEIRA MULLER ANALISTA DO MP VISCONDE DO RIO BRANCO - COMARCA; VISCONDE DO RIO BRANCO-PJ-01PJ 1.333,00 0,00 578,00 0,00 0,00 0,00 0,00 0,00 0,00 31/08/2022
1081 373200 CAROLINE ANTUNES RIBEIRO OFICIAL DO MP JACUI - COMARCA; JACUI-PJ-UNPJ 1.333,00 0,00 578,00 0,00 0,00 0,00 0,00 0,00 0,00 31/08/2022
1082 1201600 CAROLINE APARECIDA SOARES FERREIRA ESTAGIARIO ITAJUBA; ITAJUBA-PJ-01PJ 0,00 0,00 0,00 252,00 0,00 0,00 0,00 0,00 0,00 31/08/2022
1083 723500 CAROLINE CORDEIRO FERNANDES MACHADO ASSESSOR PROMOTOR JUSTICA BELO HORIZONTE - COMARCA; COORD DE INCLUSAO E MOBILIZACAO SOCIAIS 1.333,00 0,00 578,00 0,00 0,00 0,00 0,00 0,00 0,00 31/08/2022
1084 556800 CAROLINE DE SOUZA CARDOSO DOMINGUES OFICIAL DO MP BRASÍLIA DE MINAS - COMARCA; BRASILIA DE MINAS-PJ-02PJ 1.333,00 0,00 578,00 0,00 0,00 0,00 0,00 0,00 0,00 31/08/2022
1085 1448200 CAROLINE GONCALVES CARVALHO ESTAGIARIO PAINS; ALFENAS-PJ-06PJ 0,00 0,00 0,00 264,00 0,00 0,00 0,00 0,00 0,00 31/08/2022
1086 1428300 CAROLINE GUIMARAES DAMASCENO ESTAGIARIO SANTA LUZIA; SANTA LUZIA-PJ-01PJ 0,00 0,00 0,00 252,00 0,00 0,00 0,00 0,00 0,00 31/08/2022
1087 1498300 CAROLINE LIMA LOIOLA ESTAGIARIO GOVERNADOR VALADARES; GOVERNADOR VALADARES-PJ-08PJ 0,00 0,00 0,00 60,00 0,00 0,00 0,00 0,00 0,00 31/08/2022
1088 499400 CAROLINE MARQUES DE LOURDES MARZULLO OFICIAL DO MP JUIZ DE FORA - COMARCA; JUIZ DE FORA-PJ-08PJ 1.333,00 1.327,95 578,00 0,00 0,00 0,00 0,00 0,00 0,00 31/08/2022
1089 616800 CAROLINE MONTEIRO DE BARROS ANALISTA DO MP CONTAGEM - COMARCA; CONTAGEM-PJ-11PJ 1.333,00 0,00 578,00 0,00 0,00 0,00 0,00 0,00 0,00 31/08/2022
1090 1458900 CAROLINE NOGUEIRA SPINDOLA ESTAGIARIO GRAO MOGOL; GRAO MOGOL-PJ-UNPJ 0,00 0,00 0,00 264,00 0,00 0,00 0,00 0,00 0,00 31/08/2022
1091 1395700 CAROLINE OLIVEIRA MOREIRA DOS SANTOS ESTAGIARIO IBIRITE; IBIRITE-PJ-03PJ 0,00 0,00 0,00 216,00 0,00 0,00 0,00 0,00 0,00 31/08/2022
1092 1401200 CAROLINE ORLETTI GUARISE ESTAGIARIO GOVERNADOR VALADARES; GOVERNADOR VALADARES-PJ-01PJ 0,00 0,00 0,00 264,00 0,00 0,00 0,00 0,00 0,00 31/08/2022
1093 342500 CAROLINE PESTANA GOMES PROMOT.ENTRANC.ESPECIAL VESPASIANO - COMARCA; VESPASIANO-PJ-06PJ 1.333,00 0,00 3.368,91 0,00 16.844,55 0,00 0,00 0,00 514,69 31/08/2022
1094 1368000 CAROLINE SILVA LOPES ESTAGIARIO BELO HORIZONTE; PROC. JUSTICA DIR. DIFUSOS E COLETIVOS 0,00 0,00 0,00 72,00 0,00 0,00 0,00 0,00 0,00 31/08/2022
1095 1310800 CAROLINE STHEFANE TEIXEIRA MIRANDA ESTAGIARIO LAGOA DA PRATA; LAGOA DA PRATA-PJ-01PJ 0,00 0,00 0,00 264,00 0,00 0,00 0,00 0,00 0,00 31/08/2022
1096 618100 CAROLINE VASCONCELOS COSTA LANZA ANALISTA DO MP PARAOPEBA - COMARCA; PARAOPEBA-PJ-UNPJ 1.333,00 2.655,90 578,00 0,00 0,00 0,00 0,00 0,00 0,00 31/08/2022
1097 699000 CAROLLINA RODRIGUES SOUTO AMARAL ASSESSOR PROCURADOR JUSTICA BELO HORIZONTE - COMARCA; GABINETE DE PROCURADOR DE JUSTIÇA - SALA 405 1.333,00 0,00 578,00 0,00 0,00 0,00 0,00 0,00 0,00 31/08/2022
1098 210600 CASSANDRA DA CONCEICAO DANTAS SERRAO PROMOT.ENTRANC.ESPECIAL BELO HORIZONTE - COMARCA; BH-02PJ FAMILIA-GAB 026PJ 1.333,00 0,00 2.015,10 0,00 16.844,55 0,00 0,00 0,00 514,69 31/08/2022
1099 604000 CASSIA APARECIDA DA SILVA OFICIAL DO MP PARACATU - COMARCA; PARACATU-PJ-01PJ 1.333,00 0,00 578,00 0,00 0,00 0,00 0,00 0,00 0,00 31/08/2022
1100 268800 CASSIA BEATRIZ TEIXEIRA OFICIAL DO MP BELO HORIZONTE - COMARCA; PROC JUST ESP ACOES COMP ORIG CRIMINAL-SEC 1.333,00 0,00 578,00 0,00 0,00 0,00 0,00 0,00 0,00 31/08/2022
1101 500000 CASSIA DE OLIVEIRA COSTA VIANA ANALISTA DO MP SETE LAGOAS - COMARCA; SETE LAGOAS-PJ-09PJ 1.333,00 0,00 578,00 0,00 0,00 0,00 0,00 0,00 0,00 31/08/2022
1102 368800 CASSIA LUISA BATISTA MENDONCA WEBER COORDENADOR II BELO HORIZONTE - COMARCA; DIVISÃO DE EDUCAÇÃO PARA O CONSUMO 1.333,00 0,00 578,00 0,00 0,00 0,00 0,00 0,00 6.648,33 31/08/2022
1103 622200 CASSIA VAZ DE AZEVEDO LISBOA MARZANO ASSESSOR ADMINISTRATIVO III BELO HORIZONTE - COMARCA; CGMP-SECRETARIA DA CORREGEDORIA-GERAL DO MP 1.333,00 0,00 578,00 0,00 0,00 0,00 0,00 0,00 0,00 31/08/2022
1104 156100 CASSIA VIRGINIA SERRA TEIXEIRA GONTIJO PROCURADOR DE JUSTICA BELO HORIZONTE - COMARCA; GABINETE DE PROCURADOR DE JUSTIÇA - SALA 804 1.333,00 0,00 2.694,61 0,00 11.820,74 0,00 0,00 0,00 541,78 31/08/2022
1105 121000 CASSIO HENRIQUE AFONSO DA SILVA OFICIAL DO MP BELO HORIZONTE - COMARCA; CGMP-ASSESSORIA JURIDICA 1.333,00 0,00 578,00 0,00 0,00 0,00 0,00 0,00 0,00 31/08/2022
1106 1374800 CASSIO LUCAS RIBAS NUNES ESTAGIARIO SAO LOURENCO; SAO LOURENCO-PJ-03PJ 0,00 0,00 0,00 252,00 0,00 0,00 0,00 0,00 0,00 31/08/2022
1107 512001 CATARINA NATALINO CALIXTO COORDENADOR II BELO HORIZONTE - COMARCA; DIRETORIA GESTAO TRANSPORTES 1.333,00 0,00 578,00 0,00 0,00 0,00 0,00 0,00 0,00 31/08/2022
1108 606200 CATARINE DE SIQUEIRA DE QUADROS ANALISTA DO MP CONTAGEM - COMARCA; CONTAGEM-PJ-08PJ 1.333,00 885,30 578,00 0,00 0,00 0,00 0,00 0,00 0,00 31/08/2022
1109 622300 CECILIA APARECIDA PEREIRA ASSUNCAO OFICIAL DO MP TRÊS PONTAS - COMARCA; TRES PONTAS-PJ-SECRETARIA 1.333,00 885,30 578,00 0,00 0,00 0,00 0,00 0,00 0,00 31/08/2022
1110 538000 CECILIA FONTES DE MATOS PIMENTEL ANALISTA DO MP PALMA - COMARCA; PALMA-PJ-UNPJ 1.333,00 885,30 578,00 0,00 0,00 0,00 0,00 0,00 0,00 31/08/2022
1111 261300 CECILIO ANTONIO CAMPOS DOS REIS ANALISTA DO MP BELO HORIZONTE - COMARCA; AUDITORIA INTERNA 1.333,00 0,00 578,00 0,00 0,00 0,00 0,00 0,00 0,00 31/08/2022
1112 386400 CEFAS AMORELI DE FIGUEIREDO OFICIAL DO MP CABO VERDE - COMARCA; CABO VERDE-PJ-SECRETARIA 1.333,00 0,00 578,00 0,00 0,00 0,00 0,00 0,00 0,00 31/08/2022
1113 105600 CELIA BEATRIZ GOMES DOS SANTOS PROCURADOR DE JUSTICA BELO HORIZONTE - COMARCA; PROC JUSTICA DIR DIFUSOS E COLETIVOS-GAB006 1.333,00 0,00 1.851,08 0,00 17.731,11 0,00 0,00 0,00 541,78 31/08/2022
1114 149000 CELIA MAGALHAES CLAROS SOSSI OFICIAL DO MP GOVERNADOR VALADARES - COMARCA; GAECO REGIONAL DE GOVERNADOR VALADARES 1.333,00 0,00 578,00 0,00 0,00 0,00 0,00 0,00 0,00 31/08/2022
1115 421000 CELINA BENEDITA DE SOUZA ALMEIDA OFICIAL DO MP CAMBUÍ - COMARCA; CAMBUI-PJ-01PJ 1.333,00 0,00 578,00 0,00 0,00 0,00 0,00 0,00 0,00 31/08/2022
1116 1365700 CELIO AUGUSTO SANTOS RODRIGUES ESTAGIARIO PEDRA AZUL; PEDRA AZUL-PJ-01PJ 0,00 0,00 0,00 240,00 0,00 0,00 0,00 0,00 0,00 31/08/2022
1117 252900 CELIO DE MELO CASTOR ANALISTA DO MP BELO HORIZONTE - COMARCA; DIVISAO FROTA 1.333,00 0,00 578,00 0,00 0,00 0,00 0,00 0,00 0,00 31/08/2022
1118 486300 CELIO DIMAS ESTEVES RUAS PROMOT.ENTRANC.ESPECIAL CORONEL FABRICIANO - COMARCA; CORONEL FABRICIANO-PJ-02PJ 1.333,00 0,00 3.368,91 0,00 5.614,85 0,00 0,00 0,00 514,69 31/08/2022
1119 395700 CELIO FERREIRA LIMA OFICIAL DO MP CONTAGEM - COMARCA; CONTAGEM-PJ-SECRETARIA 1.333,00 0,00 578,00 0,00 0,00 0,00 0,00 0,00 0,00 31/08/2022
1120 281300 CELMA REGINA PEREIRA SANTOS ANALISTA DO MP BELO HORIZONTE - COMARCA; PROMOT ESTADUAL DE DEF PATRI CULT E TUR DE MG 1.333,00 0,00 578,00 0,00 0,00 0,00 0,00 0,00 0,00 31/08/2022
1121 535600 CELSO MEDEIROS DE PAIVA OFICIAL DO MP RIO PRETO - COMARCA; RIO PRETO-PJ-SECRETARIA 1.333,00 0,00 578,00 0,00 0,00 285,42 0,00 0,00 0,00 31/08/2022
1122 157700 CELSO PENNA FERNANDES JUNIOR PROMOT.ENTRANC.ESPECIAL BELO HORIZONTE - COMARCA; BH-23PJ CIVEL-GAB 162PJ 1.333,00 0,00 2.694,61 0,00 22.459,40 0,00 0,00 0,00 514,69 31/08/2022
1123 93700 CESAR ANTONIO COSSI PROCURADOR DE JUSTICA BELO HORIZONTE - COMARCA; GABINETE DE PROCURADOR DE JUSTIÇA - SALA 805 1.333,00 0,00 2.858,63 0,00 5.910,37 0,00 0,00 0,00 541,78 31/08/2022
1124 293100 CESAR ANTONIO DE LIMA PROMOT.ENTRANC.ESPECIAL POÇOS DE CALDAS - COMARCA; POCOS DE CALDAS-PJ-03PJ 1.333,00 0,00 2.858,63 0,00 16.844,55 0,00 0,00 0,00 514,69 31/08/2022
1125 293800 CESAR AUGUSTO DOS SANTOS PROMOT.ENTRANC.ESPECIAL BELO HORIZONTE - COMARCA; BH-12PJ JUIZO CRIMINAL-GAB 091PJ 1.333,00 0,00 984,12 0,00 22.459,40 0,00 0,00 0,00 514,69 31/08/2022
1126 367000 CESAR NARVAES DE AVELAR OFICIAL DO MP BELO HORIZONTE - COMARCA; DIRET DE INFORMACAO E CONHECIMENTO-DINC/CEAF 1.333,00 0,00 578,00 0,00 0,00 0,00 0,00 0,00 0,00 31/08/2022
1127 1492600 CESAR OTAVIO VIEIRA DA SILVA ESTAGIARIO PERDOES; PERDOES-PJ-UNPJ 0,00 0,00 0,00 144,00 0,00 0,00 0,00 0,00 0,00 31/08/2022
1128 226500 CESAR SILVEIRA BARROUIN OFICIAL DO MP BELO HORIZONTE - COMARCA; DIRETORIA DE ADMINISTRACAO FINANCEIRA 1.333,00 0,00 578,00 0,00 0,00 0,00 0,00 0,00 0,00 31/08/2022
1129 293500 CESAR YOSHIKAWA PROMOT.ENTRANC.ESPECIAL BELO HORIZONTE - COMARCA; BH-12PJ JUIZO CRIMINAL-GAB 083PJ 1.333,00 0,00 2.530,59 0,00 11.229,70 0,00 0,00 0,00 514,69 31/08/2022
1130 121400 CEZAR MORENO CONCEICAO TAVARES OFICIAL DO MP BELO HORIZONTE - COMARCA; COORD DE INCLUSAO E MOBILIZACAO SOCIAIS 1.333,00 885,30 578,00 0,00 0,00 0,00 0,00 0,00 0,00 31/08/2022
1131 1175900 CHARLENE MARISE DA SILVA ESTAGIARIO ESMERALDAS; ESMERALDAS-PJ-02PJ 0,00 0,00 0,00 156,00 0,00 0,00 0,00 0,00 0,00 31/08/2022
1132 664100 CHARLES BARBOSA DA SILVA 3O. SARGENTO BELO HORIZONTE - COMARCA; NUCLEO DE OPERACOES DE SEGURANCA DE PESSOAL 1.333,00 0,00 0,00 0,00 0,00 0,00 0,00 0,00 0,00 31/08/2022
1133 210400 CHARLES DANIEL FRANCA SALOMAO PROMOT.ENTRANC.ESPECIAL PARÁ DE MINAS - COMARCA; PARA DE MINAS-PJ-02PJ 1.333,00 0,00 2.015,10 0,00 0,00 0,00 0,00 0,00 0,00 31/08/2022
1134 669200 CHARLES HENRIQUE SQUARCIO CABO BELO HORIZONTE - COMARCA; GAECO - SETOR POLICIAL MILITAR 1.333,00 0,00 0,00 0,00 0,00 0,00 0,00 0,00 0,00 31/08/2022
1135 243800 CHARLES MARTINS MUNIZ OFICIAL DO MP BELO HORIZONTE - COMARCA; LAB TECNOLOGIA CONTRA LAVAGEM DINHEIRO 1.333,00 0,00 0,00 0,00 0,00 0,00 0,00 0,00 0,00 31/08/2022
1136 193500 CHARLIN CESAR KOURLY OFICIAL DO MP ARAGUARI - COMARCA; ARAGUARI-PJ-07PJ 1.333,00 0,00 578,00 0,00 0,00 0,00 0,00 0,00 0,00 31/08/2022
1137 385500 CHILLEN PEIXOTO DE MOURA OFICIAL DO MP BELO HORIZONTE - COMARCA; DIVISAO DE MATERIAIS 1.333,00 885,30 578,00 0,00 0,00 0,00 0,00 0,00 0,00 31/08/2022
1138 1387400 CHISTOFER MACHADO ROSA ESTAGIARIO DIVINOPOLIS; DIVINOPOLIS-PJ-12PJ 0,00 0,00 0,00 48,00 542,92 0,00 0,00 0,00 0,00 31/08/2022
1139 1467000 CHRISTIAN DOMINGOS NEVES DE ALMEIDA ESTAGIARIO PIRAPORA; PIRAPORA-PJ-03PJ 0,00 0,00 0,00 252,00 0,00 0,00 0,00 0,00 0,00 31/08/2022
1140 534500 CHRISTIAN DOUGLAS BRITO RUAS OFICIAL DO MP SÃO JOÃO DA PONTE - COMARCA; SAO JOAO DA PONTE-PJ-SECRETARIA 1.333,00 0,00 578,00 0,00 0,00 417,48 0,00 0,00 0,00 31/08/2022
1141 370600 CHRISTIAN KARINE FELIX PRATES ASSESSOR ADMINISTRATIVO IV BELO HORIZONTE - COMARCA; SUPRIN DE PLANEJAMENTO E COORDENACAO 1.333,00 0,00 578,00 0,00 0,00 0,00 0,00 0,00 0,00 31/08/2022
1142 1486200 CHRISTIAN OLIVEIRA DUTRA ESTAGIARIO CORONEL FABRICIANO; CORONEL FABRICIANO-PJ-01PJ 0,00 0,00 0,00 216,00 0,00 0,00 0,00 0,00 0,00 31/08/2022
1143 435800 CHRISTIANA BAHIA ANDRADE PINA ANALISTA DO MP BELO HORIZONTE - COMARCA; LABORATORIO TECNOLOGIA INTELIGENCIA 1.333,00 0,00 578,00 0,00 0,00 0,00 0,00 0,00 0,00 31/08/2022
1144 516800 CHRISTIANE FERREIRA DO NASCIMENTO ANALISTA DO MP POUSO ALEGRE - COMARCA; POUSO ALEGRE-PJ-08PJ 1.333,00 0,00 578,00 0,00 0,00 0,00 0,00 0,00 0,00 31/08/2022
1145 176000 CHRISTIANE JUNQUEIRA PULITI ANDRADE DE BARROS ASSESSOR ADM. ESPECIAL BELO HORIZONTE - COMARCA; PROCURADORIA-GERAL ADJUNTA INSTITUCIONAL 1.333,00 0,00 578,00 0,00 0,00 0,00 0,00 0,00 0,00 31/08/2022
1146 319200 CHRISTIANE MARIA DE ASSIS RUSSO OFICIAL DO MP BELO HORIZONTE - COMARCA; CAO-ORDEM ECONOMICA E TRIBUTARIA-SECRETARIA 1.333,00 885,30 578,00 0,00 0,00 0,00 0,00 0,00 0,00 31/08/2022
1147 510300 CHRISTIANE MARY DE CARVALHO FERREIRA ANALISTA DO MP BELO HORIZONTE - COMARCA; DIRETORIA DE SISTEMAS DE INFORMACAO 1.333,00 0,00 578,00 0,00 0,00 0,00 0,00 0,00 0,00 31/08/2022
1148 424900 CHRISTIANE PEREIRA TURNER DE ARAUJO OFICIAL DO MP BELO HORIZONTE - COMARCA; CAO-PATRIMONIO PUBLICO 1.333,00 885,30 578,00 0,00 0,00 0,00 0,00 0,00 0,00 31/08/2022
1149 513700 CHRISTIANE VIEIRA SOARES PEDERSOLI COORDENADOR II BELO HORIZONTE - COMARCA; ASSESSORIA JURIDICA DO PROCON-MG 1.333,00 973,83 578,00 0,00 0,00 0,00 0,00 0,00 0,00 31/08/2022
1150 163300 CHRISTIANNE COTRIM ASSAD BENSOUSSAN PROMOT.ENTRANC.ESPECIAL BELO HORIZONTE - COMARCA; BH-12PJ JUIZO CRIMINAL-GAB 087PJ 1.333,00 0,00 3.186,66 0,00 7.860,79 0,00 0,00 0,00 514,69 31/08/2022
1151 371400 CHRISTIANO LEONARDO GONZAGA GOMES PROMOTOR 2A ENTRANCIA SABARÁ - COMARCA; SABARA-PJ-01PJ 1.333,00 0,00 1.405,88 0,00 16.002,33 0,00 0,00 0,00 488,96 31/08/2022
1152 1478800 CHRISTOPHER LUCAS SEOLDO ESTAGIARIO CATAGUASES; CATAGUASES-PJ-01PJ 0,00 0,00 0,00 264,00 0,00 0,00 0,00 0,00 0,00 31/08/2022
1153 412300 CHRYSTIAN MACHADO RIBEIRO ANALISTA DO MP VARGINHA - COMARCA; VARGINHA-PJ-04PJ 1.333,00 0,00 578,00 0,00 0,00 0,00 0,00 0,00 0,00 31/08/2022
1154 513800 CHRYSTIANE DO NASCIMENTO DE MAGALHAES OFICIAL DO MP UBERLÂNDIA - COMARCA; UBERLANDIA-PJ-10PJ 1.333,00 0,00 578,00 0,00 0,00 0,00 0,00 0,00 0,00 31/08/2022
1155 497900 CIBELE DE FREITAS SANCHES DIAS ANALISTA DO MP SABARÁ - COMARCA; SABARA-PJ-03PJ 1.333,00 0,00 578,00 0,00 0,00 0,00 0,00 0,00 0,00 31/08/2022
1156 500900 CIBELLE SILVA PRADO ALVARENGA ANALISTA DO MP ITANHANDU - COMARCA; ITANHANDU-PJ-UNPJ 1.333,00 885,30 578,00 0,00 0,00 0,00 0,00 0,00 0,00 31/08/2022
1157 1364400 CIBELLY OLIVEIRA SOARES ESTAGIARIO TEOFILO OTONI; TEOFILO OTONI-PJ-07PJ 0,00 0,00 0,00 264,00 0,00 0,00 0,00 0,00 0,00 31/08/2022
1158 1271700 CINARA DE CAMPOS ESTEVES ESTAGIARIO CURVELO; CURVELO-PJ-03PJ 0,00 0,00 0,00 240,00 0,00 0,00 0,00 0,00 0,00 31/08/2022
1159 296400 CINTIA APARECIDA MOREIRA NAVES E RODRIGUES ANALISTA DO MP CAMPO BELO - COMARCA; CAMPO BELO-PJ-01PJ 1.333,00 0,00 578,00 0,00 0,00 0,00 0,00 0,00 0,00 31/08/2022
1160 171200 CINTIA MARIA OLIVEIRA DE LUCENA PROMOT.ENTRANC.ESPECIAL BELO HORIZONTE - COMARCA; BH-23PJ INFRACIONAL-GAB 144PJ 1.333,00 0,00 1.452,75 0,00 16.844,55 0,00 0,00 0,00 514,69 31/08/2022
1161 407900 CINTIA NETO COMELLI ANALISTA DO MP BELO HORIZONTE - COMARCA; CENTRAL DE APOIO TECNICO-SETOR CONTABIL 1.333,00 0,00 578,00 0,00 0,00 0,00 0,00 0,00 0,00 31/08/2022
1162 304700 CINTIA QUEIROZ OFICIAL DO MP BELO HORIZONTE - COMARCA; OUVIDORIA DO MPMG 1.333,00 0,00 578,00 0,00 0,00 0,00 0,00 0,00 0,00 31/08/2022
1163 163000 CINTIA ROBERTA GOMES DE LIMA PROMOTOR 2A ENTRANCIA VARGINHA - COMARCA; COORD REG PJ DEF EDUC DIR CRIANCA ADOL SUL 1.333,00 0,00 2.108,82 0,00 0,00 0,00 0,00 0,00 0,00 31/08/2022
1164 286100 CIRO CANGUSSU CORDEIRO OFICIAL DO MP IPATINGA - COMARCA; IPATINGA-PJ-09PJ 1.333,00 885,30 578,00 0,00 0,00 0,00 0,00 0,00 0,00 31/08/2022
1165 1345100 CIRO SILVA PERES ESTAGIARIO 0,00 0,00 0,00 240,00 0,00 0,00 0,00 0,00 0,00 31/08/2022
1166 689900 CISSA NOGUEIRA COLEN ASSESSOR PROCURADOR JUSTICA BELO HORIZONTE - COMARCA; GABINETE DE PROCURADOR DE JUSTIÇA - SALA 608 1.333,00 0,00 578,00 0,00 0,00 0,00 0,00 0,00 0,00 31/08/2022
1167 1384800 CLARA ALICE COSTA GONTIJO ESTAGIARIO SANTA RITA DO SAPUCAI; SANTA RITA DO SAPUCAI-PJ-01PJ 0,00 0,00 0,00 252,00 0,00 0,00 0,00 0,00 0,00 31/08/2022
1168 1404100 CLARA COSTA MATTEDI ESTAGIARIO OURO PRETO; OURO PRETO-PJ-03PJ 0,00 0,00 0,00 264,00 0,00 0,00 0,00 0,00 0,00 31/08/2022
1169 1381300 CLARA DE SALES DUARTE ESTAGIARIO BELO HORIZONTE; GABINETE DE PROCURADOR DE JUSTIÇA - SALA 305 0,00 0,00 0,00 252,00 0,00 0,00 0,00 0,00 0,00 31/08/2022
1170 681700 CLARA FERREIRA ALKIMIM ASSESSOR PROMOTOR JUSTICA PEDRA AZUL - COMARCA; PEDRA AZUL-PJ-02PJ 1.333,00 0,00 578,00 0,00 0,00 0,00 0,00 0,00 0,00 31/08/2022
1171 1485300 CLARA GABRIELA GOUVEIA MONTEIRO ESTAGIARIO BELO HORIZONTE; BH-07PJ 03 TRIBUNAL DO JURI-GAB 064PJ 0,00 0,00 0,00 216,00 0,00 0,00 0,00 0,00 0,00 31/08/2022
1172 715500 CLARA ISABELLE SOUSA FARIA ASSESSOR PROCURADOR JUSTICA BELO HORIZONTE - COMARCA; GABINETE DE PROCURADOR DE JUSTIÇA - SALA 712 1.333,00 0,00 578,00 0,00 0,00 0,00 0,00 0,00 0,00 31/08/2022
1173 1261100 CLARA LIMA LIPOVETSKY ESTAGIARIO BELO HORIZONTE; CORREGEDORIA-GERAL-ASSESSORIA 0,00 0,00 0,00 240,00 0,00 0,00 0,00 0,00 0,00 31/08/2022
1174 484900 CLARA MARIA HOEHNE SEPULVEDA PROMOT.ENTRANC.ESPECIAL SETE LAGOAS - COMARCA; SETE LAGOAS-PJ-09PJ 1.333,00 0,00 3.368,91 0,00 16.844,55 0,00 0,00 0,00 514,69 31/08/2022
1175 723100 CLARA PRADO CAMPOS ASSESSOR PROCURADOR JUSTICA BELO HORIZONTE - COMARCA; GABINETE DE PROCURADOR DE JUSTIÇA - SALA 1006 1.333,00 0,00 578,00 0,00 0,00 0,00 0,00 0,00 0,00 31/08/2022
1176 695500 CLARA RODRIGUES BLACH ASSESSOR PROCURADOR JUSTICA BELO HORIZONTE - COMARCA; GABINETE DE PROCURADOR DE JUSTIÇA - SALA 1003 1.333,00 0,00 578,00 0,00 0,00 0,00 0,00 0,00 0,00 31/08/2022
1177 1332500 CLARA RODRIGUES DE SALLES ESTAGIARIO BELO HORIZONTE; BH-12PJ JUIZO CRIMINAL-GAB 085PJ 0,00 0,00 0,00 252,00 0,00 0,00 0,00 0,00 0,00 31/08/2022
1178 1324500 CLARA VIEIRA DE REZENDE ESTAGIARIO BELO HORIZONTE; PROC. JUSTICA DIR. DIFUSOS E COLETIVOS
1179 412500 CLARICE GOMES MAROTTA ANALISTA DO MP BELO HORIZONTE - COMARCA; COORD ESTADUAL DE DEFESA DOS ANIMAIS 1.333,00 0,00 578,00 0,00 0,00 0,00 0,00 0,00 0,00 31/08/2022
1180 1367400 CLARICE SOUZA CARVALHO ESTAGIARIO BARBACENA; BARBACENA-PJ-06PJ 0,00 0,00 0,00 240,00 0,00 0,00 0,00 0,00 0,00 31/08/2022
1181 1435500 CLARISSA ALVES DA SILVA ESTAGIARIO TEOFILO OTONI; TEOFILO OTONI-PJ-05PJ 0,00 0,00 0,00 264,00 0,00 0,00 0,00 0,00 0,00 31/08/2022
1182 605300 CLARISSA AZEVEDO ROCHA OFICIAL DO MP BELO HORIZONTE - COMARCA; BH-17PJ PATRIMONIO PUBLICO-SECRETARIA 1.333,00 0,00 578,00 0,00 0,00 0,00 0,00 0,00 0,00 31/08/2022
1183 1387500 CLARISSA DE CARVALHO PATARO ESTAGIARIO PONTE NOVA; PONTE NOVA-PJ-05PJ 0,00 0,00 0,00 264,00 0,00 0,00 0,00 0,00 0,00 31/08/2022
1184 308100 CLARISSA DUARTE BELLONI DIRETOR-GERAL BELO HORIZONTE - COMARCA; DIRETORIA-GERAL 1.333,00 2.655,90 578,00 0,00 0,00 0,00 0,00 0,00 0,00 31/08/2022
1185 402100 CLARISSA GOBBO DOS SANTOS PROMOT.ENTRANC.ESPECIAL BELO HORIZONTE - COMARCA; GRUPO ESP PROM JUST DEF PROB ADM PAT PUB 1.333,00 0,00 3.368,91 0,00 16.844,55 0,00 0,00 0,00 514,69 31/08/2022
1186 497100 CLARISSA ROCHA GUIDI ANALISTA DO MP BELO HORIZONTE - COMARCA; BH-02PJ FAMILIA-SECRETARIA 1.333,00 1.770,60 578,00 0,00 0,00 0,00 0,00 0,00 0,00 31/08/2022
1187 661600 CLARISSE PEREZ DO NASCIMENTO NASCIF MENDES PROMOTOR 1A ENTRANCIA PIRANGA - COMARCA; PIRANGA-PJ-UNPJ 1.333,00 0,00 3.040,44 0,00 15.202,21 0,00 0,00 0,00 464,51 31/08/2022
1188 641800 CLARISSE TAVARES GONCALVES OFICIAL DO MP BELO HORIZONTE - COMARCA; BH-07PJ 01 TRIBUNAL JURI-SECRETARIA 1.333,00 0,00 578,00 0,00 0,00 0,00 0,00 0,00 0,00 31/08/2022
1189 463700 CLAUDIA ADRIANA FERRAO DIAS ANALISTA DO MP SETE LAGOAS - COMARCA; SETE LAGOAS-PJ-06PJ 1.333,00 0,00 578,00 0,00 0,00 0,00 0,00 0,00 0,00 31/08/2022
1190 415400 CLAUDIA ALMEIDA DE VASCONCELLOS BARROS OFICIAL DO MP BELO HORIZONTE - COMARCA; DIVISAO DE SERVICOS 1.333,00 0,00 578,00 0,00 0,00 0,00 0,00 0,00 464,14 31/08/2022
1191 207000 CLAUDIA APARECIDA VILELA MACHADO ANALISTA DO MP BELO HORIZONTE - COMARCA; CENTRAL DE APOIO TECNICO-SETOR CONTABIL 1.333,00 0,00 578,00 0,00 0,00 0,00 0,00 0,00 0,00 31/08/2022
1192 314400 CLAUDIA AUGUSTA LOPES DE MENDONCA PROMOT.ENTRANC.ESPECIAL BELO HORIZONTE - COMARCA; BH-09PJ AUDITORIA MILITAR-GAB 074PJ 1.333,00 0,00 3.368,91 0,00 16.844,55 0,00 0,00 0,00 514,69 31/08/2022
1193 365700 CLAUDIA BREGUEZ CUNHA ANALISTA DO MP VARGINHA - COMARCA; VARGINHA-PJ-07PJ 1.333,00 885,30 578,00 0,00 0,00 0,00 0,00 0,00 0,00 31/08/2022
1194 430500 CLAUDIA CECILIA SANTANA VENCESLAU OFICIAL DO MP BELO HORIZONTE - COMARCA; LAB TECNOLOGIA CONTRA LAVAGEM DINHEIRO 1.333,00 0,00 578,00 0,00 0,00 0,00 0,00 0,00 0,00 31/08/2022
1195 1480200 CLAUDIA DE AQUINO ESTAGIARIO BUENOPOLIS; BUENOPOLIS-PJ-UNPJ 0,00 0,00 0,00 252,00 0,00 0,00 0,00 0,00 0,00 31/08/2022
1196 98300 CLAUDIA DE OLIVEIRA IGNEZ PROMOTOR 2A ENTRANCIA NOVA LIMA - COMARCA; NOVA LIMA-PJ-01PJ 1.333,00 0,00 1.757,36 0,00 10.668,22 0,00 0,00 0,00 488,96 31/08/2022
1197 167300 CLAUDIA DO AMARAL XAVIER PROMOT.ENTRANC.ESPECIAL BELO HORIZONTE - COMARCA; BH-18PJ DIREITOS HUMANOS-GAB 125PJ 1.333,00 0,00 2.015,10 0,00 16.844,55 0,00 0,00 0,00 514,69 31/08/2022
1198 163100 CLAUDIA FERREIRA DE SOUZA PROMOT.ENTRANC.ESPECIAL BELO HORIZONTE - COMARCA; BH-02PJ FAMILIA-GAB 035PJ 1.333,00 0,00 1.968,23 0,00 16.844,55 0,00 0,00 0,00 514,69 31/08/2022
1199 174500 CLAUDIA FERREIRA PACHECO DE FREITAS PROMOT.ENTRANC.ESPECIAL BELO HORIZONTE - COMARCA; SECRETARIA-GERAL-GABINETE 1.333,00 0,00 3.368,91 0,00 16.844,55 0,00 0,00 0,00 514,69 31/08/2022
1200 213601 CLAUDIA GONCALVES CALIXTO ASSESSOR PROCURADOR JUSTICA BELO HORIZONTE - COMARCA; PROC. JUSTICA DIR. DIFUSOS E COLETIVOS-SEC 1.333,00 0,00 578,00 0,00 0,00 0,00 0,00 0,00 0,00 31/08/2022
1201 480400 CLAUDIA GOULART DE SOUZA OFICIAL DO MP PASSOS - COMARCA; PASSOS-PJ-06PJ 1.333,00 0,00 578,00 0,00 0,00 0,00 0,00 0,00 0,00 31/08/2022
1202 519800 CLAUDIA HELENA CORREA DE ALMEIDA ANALISTA DO MP BELO HORIZONTE - COMARCA; BH-12PJ JUIZO CRIMINAL-GAB 096PJ 1.333,00 0,00 578,00 0,00 0,00 0,00 0,00 0,00 0,00 31/08/2022
1203 422100 CLAUDIA IACOMINI CABRAL ANALISTA DO MP BELO HORIZONTE - COMARCA; CENT DE APOIO TEC-SETOR DEF,IDOSO E INFANC 1.333,00 0,00 578,00 0,00 0,00 0,00 0,00 0,00 0,00 31/08/2022
1204 258200 CLAUDIA LAGE MICHALAROS ANALISTA DO MP BELO HORIZONTE - COMARCA; CENTRAL DE APOIO TECN-SETOR DE MEIO AMBIENTE 1.333,00 0,00 578,00 0,00 0,00 0,00 0,00 0,00 0,00 31/08/2022
1205 284600 CLAUDIA LENI DE FREITAS OFICIAL DO MP CONTAGEM - COMARCA; CONTAGEM-PJ-SECRETARIA 1.333,00 0,00 578,00 0,00 0,00 0,00 0,00 0,00 0,00 31/08/2022
1206 175200 CLAUDIA LOPES SILVA SCIOLI PROMOT.ENTRANC.ESPECIAL POUSO ALEGRE - COMARCA; POUSO ALEGRE-PJ-07PJ 1.333,00 0,00 3.368,91 0,00 16.844,55 0,00 0,00 0,00 514,69 31/08/2022
1207 433600 CLAUDIA LUIZA SANTIAGO FELICIO ANALISTA DO MP BELO HORIZONTE - COMARCA; CENT DE APOIO TEC-SETOR DEF,IDOSO E INFANC 1.333,00 0,00 578,00 0,00 0,00 0,00 0,00 0,00 0,00 31/08/2022
1208 317000 CLAUDIA MACHADO ALVES OFICIAL DO MP BELO HORIZONTE - COMARCA; DIR GOVERNANCA TECNOLOGIA INFORMACAO 1.333,00 0,00 578,00 0,00 0,00 0,00 0,00 0,00 0,00 31/08/2022
1209 155300 CLAUDIA MACIEL MIRANDA OFICIAL DO MP CONGONHAS - COMARCA; CONGONHAS-PJ-02PJ 1.333,00 0,00 578,00 0,00 0,00 0,00 0,00 0,00 0,00 31/08/2022
1210 242200 CLAUDIA MICHELLE DIAS MUNIZ BALEEIRO OFICIAL DO MP MONTE AZUL - COMARCA; MONTE AZUL-PJ-SECRETARIA 1.333,00 0,00 578,00 0,00 0,00 0,00 0,00 0,00 0,00 31/08/2022
1211 236500 CLAUDIA NETO COMELLI PROMOT.ENTRANC.ESPECIAL BELO HORIZONTE - COMARCA; BH-23PJ INFRACIONAL-GAB 039PJ 1.333,00 0,00 1.952,75 0,00 21.336,43 0,00 0,00 0,00 514,69 31/08/2022
1212 623000 CLAUDIA PATRICIA SILVA RODRIGUES RAPOSEIRAS OFICIAL DO MP BELO HORIZONTE - COMARCA; DIVISÃO DE EDUCAÇÃO PARA O CONSUMO 1.333,00 885,30 578,00 0,00 0,00 0,00 0,00 0,00 0,00 31/08/2022
1213 418400 CLAUDIA REGINA MARTINS BONIFACIO OFICIAL DO MP ITUIUTABA - COMARCA; ITUIUTABA-PJ-06PJ 1.333,00 0,00 578,00 0,00 0,00 0,00 0,00 0,00 0,00 31/08/2022
1214 498300 CLAUDIA SOUTO FARIAS BRAUN OFICIAL DO MP TEÓFILO OTONI - COMARCA; TEOFILO OTONI-PJ-SECRETARIA 1.333,00 0,00 578,00 0,00 0,00 0,00 0,00 0,00 0,00 31/08/2022
1215 79600 CLAUDIA SPRANGER E SILVA LUIZ MOTTA PROCURADOR DE JUSTICA BELO HORIZONTE - COMARCA; GABINETE DE PROCURADOR DE JUSTIÇA - SALA 706 1.333,00 0,00 1.288,73 0,00 5.910,37 0,00 0,00 0,00 541,78 31/08/2022
1216 206500 CLAUDIA VALERIA FONSECA ANDRADE ANALISTA DO MP BELO HORIZONTE - COMARCA; BH-23PJ INF-FISC MED SOC FEC 1.333,00 0,00 578,00 0,00 4.937,90 0,00 0,00 0,00 452,64 31/08/2022
1217 1499800 CLAUDIELLE COSTA DE ARAUJO ESTAGIARIO JEQUITINHONHA; JEQUITINHONHA-PJ-COORD PJ 0,00 0,00 0,00 12,00 0,00 0,00 0,00 0,00 0,00 31/08/2022
1218 277500 CLAUDIO ANTONIO BORGES BRUNSWICK ALVARES OFICIAL DO MP BELO HORIZONTE - COMARCA; BH-15PJ M AMB PAT HIST CULT-GAB 116PJ 1.333,00 0,00 578,00 0,00 0,00 0,00 0,00 0,00 0,00 31/08/2022
1219 444800 CLAUDIO ARESIO DO CARMO ANALISTA DO MP SETE LAGOAS - COMARCA; SETE LAGOAS-PJ-01PJ 1.333,00 0,00 578,00 0,00 0,00 0,00 0,00 0,00 0,00 31/08/2022
1220 532100 CLAUDIO DANIEL FONSECA DE ALMEIDA PROMOTOR 2A ENTRANCIA MARIANA - COMARCA; MARIANA-PJ-02PJ 1.333,00 0,00 2.225,98 0,00 16.002,33 0,00 0,00 0,00 488,96 31/08/2022
1221 76700 CLAUDIO EMANUEL DA CUNHA PROCURADOR DE JUSTICA BELO HORIZONTE - COMARCA; GABINETE DE PROCURADOR DE JUSTIÇA - SALA 305 1.333,00 0,00 1.405,88 0,00 17.731,11 0,00 0,00 0,00 541,78 31/08/2022
1222 100500 CLAUDIO FERREIRA DE OLIVEIRA FILHO PROMOTOR 2A ENTRANCIA LAMBARI - COMARCA; LAMBARI-PJ-UNPJ 1.333,00 0,00 2.694,61 0,00 21.336,44 0,00 0,00 0,00 488,96 31/08/2022
1223 545100 CLAUDIO HENRIQUE MACEDO DE SOUZA FRANSOZO ANALISTA DO MP OURO PRETO - COMARCA; OURO PRETO-PJ-03PJ 1.333,00 885,30 578,00 0,00 0,00 0,00 0,00 0,00 0,00 31/08/2022
1224 353500 CLAUDIO HENRIQUE PEDRO DA ROCHA OFICIAL DO MP BELO HORIZONTE - COMARCA; DIVISAO TRANSPORTES 1.333,00 0,00 578,00 0,00 0,00 0,00 0,00 0,00 0,00 31/08/2022
1225 265800 CLAUDIO KUPIDLOWSKY FERNANDES OFICIAL DO MP BELO HORIZONTE - COMARCA; SECRETARIA DO PROCON-MG 1.333,00 0,00 578,00 0,00 0,00 0,00 0,00 0,00 0,00 31/08/2022
1226 193600 CLAUDIO LEITE FONTES OFICIAL DO MP ITUIUTABA - COMARCA; ITUIUTABA-PJ-02PJ 1.333,00 0,00 578,00 0,00 0,00 0,00 0,00 0,00 0,00 31/08/2022
1227 102000 CLAUDIO LUIZ GONCALVES MARINS PROMOTOR 2A ENTRANCIA GUAXUPÉ - COMARCA; GUAXUPE-PJ-03PJ 1.333,00 0,00 3.200,47 0,00 10.668,22 0,00 0,00 0,00 488,96 31/08/2022
1228 163200 CLAUDIO MAIA DE BARROS PROMOT.ENTRANC.ESPECIAL BELO HORIZONTE - COMARCA; COORD EST PJ TRIBUNAL JURI 1.333,00 0,00 2.952,35 0,00 16.844,55 0,00 0,00 0,00 514,69 31/08/2022
1229 329400 CLAUDIO MARCIO BERNARDES OFICIAL DO MP ITAÚNA - COMARCA; ITAUNA-PJ-03PJ 1.333,00 885,30 578,00 0,00 0,00 0,00 0,00 0,00 0,00 31/08/2022
1230 1495800 CLAUDIO MATEUS DE CAMARGOS JUNIOR ESTAGIARIO BELO HORIZONTE; BH-13PJ JUIZO DE TOXICOS-GAB 006PJ 0,00 0,00 0,00 96,00 0,00 0,00 0,00 0,00 0,00 31/08/2022
1231 1221400 CLAUDIO ODARHA NASCIMENTO ESTAGIARIO CURVELO; CURVELO-PJ-02PJ 0,00 0,00 0,00 264,00 0,00 0,00 0,00 0,00 0,00 31/08/2022
1232 270200 CLAUDIO RABELO ALVES OFICIAL DO MP FORMIGA - COMARCA; FORMIGA-PJ-03PJ 1.333,00 0,00 578,00 0,00 0,00 0,00 0,00 0,00 0,00 31/08/2022
1233 264700 CLAUDIO ROBERTO KFURI DE ARAUJO ANALISTA DO MP BELO HORIZONTE - COMARCA; CENTRAL DE APOIO TECNICO-SETOR DE INFORMATICA 1.333,00 0,00 578,00 0,00 0,00 0,00 0,00 0,00 0,00 31/08/2022
1234 188600 CLAUDIO SALES OFICIAL DO MP NEPOMUCENO - COMARCA; NEPOMUCENO-PJ-SECRETARIA 1.333,00 885,30 578,00 0,00 0,00 0,00 0,00 0,00 0,00 31/08/2022
1235 543300 CLAUDIO SILVA DE CARVALHO ANALISTA DO MP CAMPO BELO - COMARCA; CAMPO BELO-PJ-03PJ 1.333,00 0,00 578,00 0,00 0,00 0,00 0,00 0,00 0,00 31/08/2022
1236 144300 CLAUDIO VARELLA DE SOUZA PROCURADOR DE JUSTICA BELO HORIZONTE - COMARCA; GABINETE DE PROCURADOR DE JUSTIÇA - SALA 712 1.333,00 0,00 1.288,73 0,00 17.731,11 0,00 0,00 0,00 541,78 31/08/2022
1237 160700 CLAUDIO VICENTE HESS ASSESSOR DE GABINETE I BELO HORIZONTE - COMARCA; CENTRAL DE APOIO TECNICO-SETOR DE INFORMATICA 1.333,00 0,00 578,00 0,00 0,00 0,00 0,00 0,00 0,00 31/08/2022
1238 312900 CLAUDIO VIEIRA FIRPE OFICIAL DO MP BELO HORIZONTE - COMARCA; DIR RELACOES INSTITUCIONAIS 1.333,00 0,00 578,00 0,00 0,00 0,00 0,00 0,00 0,00 31/08/2022
1239 634100 CLEA CRISTINA GUERRA DE FREITAS COSTA OFICIAL DO MP BELO HORIZONTE - COMARCA; BH-18PJ VIOLENCIA DOMESTICA-SECRETARIA 1.333,00 0,00 578,00 0,00 0,00 0,00 0,00 0,00 0,00 31/08/2022
1240 244800 CLEBER AUGUSTO DO NASCIMENTO PROMOTOR 2A ENTRANCIA CAMPO BELO - COMARCA; CAMPO BELO-PJ-04PJ 1.333,00 0,00 3.200,47 0,00 21.336,44 0,00 0,00 0,00 488,96 31/08/2022
1241 439000 CLEBER COUTO PROMOT.ENTRANC.ESPECIAL PATOS DE MINAS - COMARCA; GAECO REGIONAL DE PATOS DE MINAS 1.333,00 0,00 3.244,01 0,00 16.844,55 0,00 0,00 0,00 514,69 31/08/2022
1242 459200 CLEIA ZILLE PEREIRA ANALISTA DO MP BELO HORIZONTE - COMARCA; BH-07PJ 01 TRIBUNAL DO JURI-GAB 059PJ 1.333,00 0,00 578,00 0,00 0,00 0,00 0,00 0,00 0,00 31/08/2022
1243 481800 CLEIDE CARDOSO DA SILVA ANALISTA DO MP MANHUAÇU - COMARCA; MANHUACU-PJ-04PJ 1.333,00 0,00 578,00 0,00 0,00 0,00 0,00 0,00 0,00 31/08/2022
1244 225000 CLEIDE PEREIRA DA SILVA PROMOT.ENTRANC.ESPECIAL BELO HORIZONTE - COMARCA; BH-09PJ AUDITORIA MILITAR-GAB 161PJ 1.333,00 0,00 1.077,84 0,00 0,00 0,00 0,00 0,00 0,00 31/08/2022
1245 347600 CLEIDIMAR DE OLIVEIRA SILVA OFICIAL DO MP PATOS DE MINAS - COMARCA; PATOS DE MINAS-PJ-03PJ 1.333,00 0,00 578,00 0,00 0,00 0,00 0,00 0,00 0,00 31/08/2022
1246 396500 CLEIDISON BATISTA DE ANDRADE OFICIAL DO MP RESPLENDOR - COMARCA; RESPLENDOR-PJ-UNPJ 1.333,00 0,00 578,00 0,00 0,00 0,00 0,00 0,00 0,00 31/08/2022
1247 535100 CLEISON ALVES DA SILVA ANALISTA DO MP BOA ESPERANÇA - COMARCA; BOA ESPERANCA-PJ-01PJ 1.333,00 0,00 578,00 0,00 0,00 0,00 0,00 0,00 0,00 31/08/2022
1248 298100 CLEONICE AUGUSTA BARROS DE OLIVEIRA ANALISTA DO MP JUIZ DE FORA - COMARCA; JUIZ DE FORA-PJ-08PJ 1.333,00 0,00 578,00 0,00 0,00 0,00 0,00 0,00 0,00 31/08/2022
1249 264100 CLETO HENRIQUE ANDRADE SILVA ANALISTA DO MP BELO HORIZONTE - COMARCA; DIRETORIA DE SISTEMAS DE INFORMACAO 1.333,00 0,00 578,00 0,00 0,00 0,00 0,00 0,00 0,00 31/08/2022
1250 334400 CLEUBA DE OLIVEIRA BARCELOS GONCALVES OFICIAL DO MP DIVINÓPOLIS - COMARCA; COORD REG SAUDE MACRORREGIAO SANITARIA OESTE 1.333,00 0,00 578,00 0,00 0,00 0,00 0,00 0,00 0,00 31/08/2022
1251 347500 CLEUSA CORDEIRO DA MATA PIMENTA OFICIAL DO MP CAMPO BELO - COMARCA; CAMPO BELO-PJ-01PJ 1.333,00 0,00 578,00 0,00 0,00 0,00 0,00 0,00 0,00 31/08/2022
1252 92400 CLEVERSON RAYMUNDO SBARZI GUEDES PROMOT.ENTRANC.ESPECIAL JUIZ DE FORA - COMARCA; JUIZ DE FORA-PJ-07PJ 1.333,00 0,00 3.368,91 0,00 22.459,40 0,00 0,00 0,00 514,69 31/08/2022
1253 675000 CLEVERTON FRANCISCO GONCALVES DA SILVA CAPITAO 1.333,00 0,00 0,00 0,00 0,00 0,00 0,00 0,00 0,00 31/08/2022
1254 1231400 CLEYSON THIAGO PEREIRA COELHO ESTAGIARIO VICOSA; VICOSA-PJ-03PJ 0,00 0,00 0,00 252,00 0,00 0,00 0,00 0,00 0,00 31/08/2022
1255 510200 CLEZIO SALES SILVA OFICIAL DO MP BRASÓPOLIS - COMARCA; BRASOPOLIS-PJ-UNPJ 1.333,00 885,30 578,00 0,00 0,00 996,84 0,00 0,00 0,00 31/08/2022
1256 323000 CLOTILDE DE PADUA VIEIRA OFICIAL DO MP BELO HORIZONTE - COMARCA; BH-19PJ SAUDE-SECRETARIA 129PJ 1.333,00 0,00 578,00 0,00 0,00 0,00 0,00 0,00 0,00 31/08/2022
1257 285200 CLOVIS ANDRE LUDTKE OFICIAL DO MP BELO HORIZONTE - COMARCA; DIVISAO DE MANUTENCAO PREDIAL 1.333,00 0,00 578,00 0,00 0,00 0,00 0,00 0,00 0,00 31/08/2022
1258 381100 CONCEICAO APARECIDA TEIXEIRA ARANTES ANALISTA DO MP BELO HORIZONTE - COMARCA; BH-23PJ INFRACIONAL-ASS JURIDICA 1.333,00 885,30 578,00 0,00 0,00 0,00 0,00 0,00 2.899,26 31/08/2022
1259 249900 CONSTANTINO CEZAR GOMES MOTA OFICIAL DO MP MONTES CLAROS - COMARCA; COORD REG BACIA RIOS VERDE GRANDE E PARDO 1.333,00 1.770,60 578,00 0,00 0,00 0,00 0,00 0,00 0,00 31/08/2022
1260 594800 COSME COELHO TEIXEIRA 2O. SARGENTO BELO HORIZONTE - COMARCA; NUCLEO DE CONTRAINTELIGENCIA 1.333,00 0,00 0,00 0,00 0,00 0,00 0,00 0,00 0,00 31/08/2022
1261 481000 CRISHMA ANALIA LOMBELLO ANALISTA DO MP JUIZ DE FORA - COMARCA; JUIZ DE FORA-PJ-13PJ 1.333,00 0,00 578,00 0,00 0,00 0,00 0,00 0,00 0,00 31/08/2022
1262 1399300 CRISLAYNE SOUZA MELO ESTAGIARIO ARAGUARI; ARAGUARI-PJ-07PJ 0,00 0,00 0,00 240,00 0,00 0,00 0,00 0,00 0,00 31/08/2022
1263 523900 CRISTHYANE BAZOLI COSTA GUEDES COUTO OFICIAL DO MP BELO HORIZONTE - COMARCA; BH-04PJ JUIZO REG PÚBLICOS-SECRETARIA 1.333,00 0,00 578,00 0,00 0,00 0,00 0,00 0,00 0,00 31/08/2022
1264 187000 CRISTIAN DAYVSON EVANGELISTA OFICIAL DO MP JUIZ DE FORA - COMARCA; JUIZ DE FORA-PJ-13PJ 1.333,00 0,00 578,00 0,00 0,00 0,00 3.160,00 0,00 0,00 31/08/2022
1265 245000 CRISTIAN LUCIO DA SILVA PROMOT.ENTRANC.ESPECIAL BELO HORIZONTE - COMARCA; BH-07PJ 03 TRIBUNAL DO JURI-GAB 064PJ 1.333,00 0,00 3.368,91 0,00 16.844,55 0,00 0,00 0,00 514,69 31/08/2022
1266 682100 CRISTIAN TRISTAO DE ANDRADE ASSESSOR PROMOTOR JUSTICA TRÊS CORACOES - COMARCA; TRES CORACOES-PJ-04PJ 1.333,00 0,00 578,00 0,00 0,00 0,00 0,00 0,00 0,00 31/08/2022
1267 319800 CRISTIANA GONCALVES DOS SANTOS GUSMAO OFICIAL DO MP PARAOPEBA - COMARCA; PARAOPEBA-PJ-UNPJ 1.333,00 0,00 578,00 0,00 0,00 0,00 0,00 0,00 0,00 31/08/2022
1268 520600 CRISTIANA JANAINA BARBOZA JUVENCIO DOS SANTOS ANALISTA DO MP BELO HORIZONTE - COMARCA; BH-02PJ FAMILIA-SECRETARIA 1.333,00 0,00 578,00 0,00 0,00 0,00 0,00 0,00 0,00 31/08/2022
1269 195600 CRISTIANA SOARES HALABI OFICIAL DO MP UBERABA - COMARCA; UBERABA-PJ-01PJ 1.333,00 0,00 578,00 0,00 0,00 0,00 0,00 0,00 0,00 31/08/2022
1270 218900 CRISTIANE ALVES BELLES OFICIAL DO MP JUIZ DE FORA - COMARCA; JUIZ DE FORA-PJ-10PJ 1.333,00 1.327,95 578,00 0,00 0,00 0,00 0,00 0,00 0,00 31/08/2022
1271 1449100 CRISTIANE APARECIDA CALDEIRA SILVA ESTAGIARIO CONTAGEM; CONTAGEM-PJ-09PJ 0,00 0,00 0,00 264,00 0,00 0,00 0,00 0,00 0,00 31/08/2022
1272 291600 CRISTIANE CAMPOS AMORIM BARONY PROMOTOR 2A ENTRANCIA CARANGOLA - COMARCA; CARANGOLA-PJ-03PJ 1.333,00 0,00 3.200,47 0,00 16.002,33 0,00 0,00 0,00 488,96 31/08/2022
1273 263600 CRISTIANE CARVALHO COUTINHO OFICIAL DO MP BELO HORIZONTE - COMARCA; BH-23PJ INFRACIONAL-SEC EXP 1.333,00 0,00 578,00 0,00 0,00 0,00 0,00 0,00 0,00 31/08/2022
1274 541000 CRISTIANE COELHO ALVES OFICIAL DO MP ITABIRA - COMARCA; ITABIRA-PJ-03PJ 1.333,00 0,00 578,00 0,00 0,00 0,00 0,00 0,00 0,00 31/08/2022
1275 441700 CRISTIANE CORRADO DE ANDRADE ANALISTA DO MP BELO HORIZONTE - COMARCA; DIRETORIA DE SISTEMAS DE INFORMACAO 1.333,00 0,00 578,00 0,00 0,00 0,00 0,00 0,00 0,00 31/08/2022
1276 1304100 CRISTIANE DA CONCEICAO FERREIRA ESTAGIARIO JABOTICATUBAS; JABOTICATUBAS-PJ-UNPJ 0,00 0,00 0,00 264,00 0,00 0,00 0,00 0,00 0,00 31/08/2022
1277 375100 CRISTIANE DAS DORES ERCIO DE LIMA OFICIAL DO MP GOVERNADOR VALADARES - COMARCA; GOVERNADOR VALADARES-PJ-12PJ 1.333,00 0,00 578,00 0,00 0,00 0,00 0,00 0,00 0,00 31/08/2022
1278 178800 CRISTIANE DE LIMA HOSKEN OFICIAL DO MP BELO HORIZONTE - COMARCA; BH-14PJ DEFESA CONSUMIDOR-GAB 110PJ 1.333,00 0,00 578,00 0,00 0,00 0,00 0,00 0,00 0,00 31/08/2022
1279 494000 CRISTIANE DE MELO MARQUEZ OLIVEIRA ANALISTA DO MP UBERLÂNDIA - COMARCA; UBERLANDIA-PJ-06PJ 1.333,00 885,30 578,00 0,00 0,00 0,00 0,00 0,00 0,00 31/08/2022
1280 266100 CRISTIANE DE OLIVEIRA CASTRO OFICIAL DO MP BELO HORIZONTE - COMARCA; BH-14PJ DEFESA CONSUMIDOR-SECRETARIA 1.333,00 0,00 578,00 0,00 0,00 0,00 1.580,00 0,00 0,00 31/08/2022
1281 329500 CRISTIANE DOS REIS SILVA OFICIAL DO MP ARAXÁ - COMARCA; ARAXA-PJ-04PJ 1.333,00 0,00 578,00 0,00 0,00 0,00 0,00 0,00 0,00 31/08/2022
1282 301600 CRISTIANE GODINHO PIRES ANALISTA DO MP BETIM - COMARCA; BETIM-PJ-06PJ 1.333,00 0,00 578,00 0,00 0,00 0,00 0,00 0,00 0,00 31/08/2022
1283 406100 CRISTIANE GONCALVES CHAVES ANALISTA DO MP BELO HORIZONTE - COMARCA; BH-14PJ DEFESA CONSUMIDOR-GAB 112PJ 1.333,00 0,00 578,00 0,00 0,00 0,00 0,00 0,00 0,00 31/08/2022
1284 487600 CRISTIANE LOPES DE OLIVEIRA OFICIAL DO MP DIVINÓPOLIS - COMARCA; DIVINOPOLIS-PJ-03PJ 1.333,00 0,00 578,00 0,00 0,00 0,00 0,00 0,00 0,00 31/08/2022
1285 502500 CRISTIANE MACIEL DE OLIVEIRA GOMES ANALISTA DO MP JUIZ DE FORA - COMARCA; JUIZ DE FORA-PJ-02PJ 1.333,00 885,30 578,00 0,00 0,00 0,00 0,00 0,00 0,00 31/08/2022
1286 285500 CRISTIANE MAGALHAES LOURENCO ANALISTA DO MP BELO HORIZONTE - COMARCA; CENTRAL DE APOIO TECNICO-SETOR CONTABIL 1.333,00 0,00 578,00 0,00 0,00 0,00 0,00 0,00 0,00 31/08/2022
1287 536500 CRISTIANE MICHELE DE SOUZA ANALISTA DO MP BARÃO DE COCAIS - COMARCA; BARAO DE COCAIS-PJ-UNPJ 1.333,00 0,00 578,00 0,00 0,00 0,00 0,00 0,00 0,00 31/08/2022
1288 346600 CRISTIANE NOGUEIRA ANDRADE ANALISTA DO MP BELO HORIZONTE - COMARCA; CENTRAL DE APOIO TECNICO-SETOR CONTABIL 1.333,00 0,00 578,00 0,00 0,00 0,00 0,00 0,00 0,00 31/08/2022
1289 234000 CRISTIANE OLIVEIRA TOSTES OFICIAL DO MP JUIZ DE FORA - COMARCA; JUIZ DE FORA-PJ-08PJ 1.333,00 885,30 578,00 0,00 0,00 0,00 0,00 0,00 0,00 31/08/2022
1290 445800 CRISTIANE ORZIL COSTA OFICIAL DO MP SANTA LUZIA - COMARCA; SANTA LUZIA-PJ-05PJ 1.333,00 885,30 578,00 0,00 0,00 0,00 0,00 0,00 0,00 31/08/2022
1291 616100 CRISTIANE PAES RODRIGUES MARCICANO ANALISTA DO MP CATAGUASES - COMARCA; CATAGUASES-PJ-05PJ 1.333,00 885,30 578,00 0,00 0,00 0,00 0,00 0,00 0,00 31/08/2022
1292 612300 CRISTIANE RIBEIRO DOS REIS ARCANJO OFICIAL DO MP BELO HORIZONTE - COMARCA; DIRETORIA DE PAGAMENTO DE PESSOAL-DPAG
1293 257700 CRISTIANE RODRIGUES PAES NUNES ANALISTA DO MP BELO HORIZONTE - COMARCA; BH-22PJ PES COM DEF E IDOSOS-ORIENTACAO PSIC 1.333,00 885,30 578,00 0,00 0,00 0,00 0,00 0,00 0,00 31/08/2022
1294 1372000 CRISTIANE SALES RODRIGUES ESTAGIARIO ARAXA; ARAXA-PJ-02PJ 0,00 0,00 0,00 204,00 0,00 0,00 0,00 0,00 0,00 31/08/2022
1295 510800 CRISTIANE SANTOS FERNANDES ORNELES ANALISTA DO MP BELO HORIZONTE - COMARCA; BH-03PJ EMPRESARIAL-SECRETARIA 1.333,00 0,00 578,00 0,00 0,00 0,00 0,00 0,00 0,00 31/08/2022
1296 535701 CRISTIANE SANTOS MIRANDA ANALISTA DO MP CONTAGEM - COMARCA; CONTAGEM-PJ-03PJ 1.333,00 0,00 578,00 0,00 0,00 0,00 0,00 0,00 0,00 31/08/2022
1297 163400 CRISTIANO CASSIOLATO PROMOTOR 1A ENTRANCIA CARMO DO RIO CLARO - COMARCA; CARMO DO RIO CLARO-PJ-UNPJ 1.333,00 0,00 3.040,44 0,00 20.269,61 0,00 0,00 0,00 464,51 31/08/2022
1298 484000 CRISTIANO CESAR PIMENTA DAYRELL DA CUNHA PROMOT.ENTRANC.ESPECIAL SETE LAGOAS - COMARCA; SETE LAGOAS-PJ-01PJ 1.333,00 0,00 3.368,91 0,00 16.844,55 0,00 0,00 0,00 514,69 31/08/2022
1299 299901 CRISTIANO DA COSTA MATA PROMOT.ENTRANC.ESPECIAL IPATINGA - COMARCA; COORD REG SAUDE MACRORREGIAO SANIT VALE ACO 1.333,00 0,00 3.093,61 0,00 22.459,40 0,00 0,00 0,00 514,69 31/08/2022
1300 536200 CRISTIANO DE OLIVEIRA ANALISTA DO MP CONCEIÇÃO DO MATO DENTRO - COMARCA; CONCEICAO DO MATO DENTRO-PJ-UNPJ 1.333,00 885,30 578,00 0,00 0,00 0,00 0,00 0,00 0,00 31/08/2022
1301 675100 CRISTIANO GERALDO CUNHA CABO BELO HORIZONTE - COMARCA; GAECO - SETOR POLICIAL MILITAR 1.333,00 0,00 0,00 0,00 0,00 0,00 0,00 0,00 0,00 31/08/2022
1302 1399200 CRISTIANO MORAIS COSTA ESTAGIARIO BELO HORIZONTE; DIVISAO DE MANUTENCAO PREDIAL 0,00 0,00 0,00 252,00 0,00 0,00 0,00 0,00 0,00 31/08/2022
1303 440000 CRISTIANO MOREIRA SILVA PROMOTOR 2A ENTRANCIA CAPELINHA - COMARCA; CAPELINHA-PJ-02PJ 1.333,00 0,00 1.405,88 0,00 16.002,33 0,00 0,00 0,00 488,96 31/08/2022
1304 167400 CRISTIANO ROCHA GAZAL PROMOTOR 1A ENTRANCIA CAMBUQUIRA - COMARCA; CAMBUQUIRA-PJ-UNPJ 1.333,00 0,00 2.108,83 0,00 20.269,61 0,00 0,00 0,00 464,51 31/08/2022
1305 477400 CRISTIANO SOARES ELEUTERIO ANALISTA DO MP BELO HORIZONTE - COMARCA; GABINETE DE PROCURADOR DE JUSTIÇA - SALA 812 1.333,00 0,00 578,00 0,00 0,00 0,00 0,00 0,00 0,00 31/08/2022
1306 449400 CRISTIANO TEIXEIRA RODRIGUES LANA ANALISTA DO MP BELO HORIZONTE - COMARCA; BH-18PJ VIOLENCIA DOMESTICA-SECRETARIA 1.333,00 0,00 578,00 0,00 0,00 0,00 0,00 0,00 0,00 31/08/2022
1307 106600 CRISTINA BECHARA KALLAS PROMOTOR 2A ENTRANCIA PASSOS - COMARCA; PASSOS-PJ-03PJ 1.333,00 0,00 2.694,61 0,00 16.002,33 0,00 0,00 0,00 488,96 31/08/2022
1308 239400 CRISTINA DE FATIMA CRUZ E SILVA OFICIAL DO MP MONTE SANTO DE MINAS - COMARCA; MONTE SANTO DE MINAS-PJ-SECRETARIA 1.333,00 0,00 578,00 0,00 0,00 0,00 0,00 0,00 0,00 31/08/2022
1309 544000 CRISTINA DE OLIVEIRA TERRA ANALISTA DO MP BELO HORIZONTE - COMARCA; BH-18PJ VIOLENCIA DOMESTICA-SECRETARIA 1.333,00 0,00 578,00 0,00 0,00 0,00 0,00 0,00 0,00 31/08/2022
1310 356800 CRISTINA DE PINHO BARROSO OFICIAL DO MP SABINÓPOLIS - COMARCA; SABINOPOLIS-PJ-UNPJ 1.333,00 885,30 578,00 0,00 0,00 0,00 0,00 0,00 0,00 31/08/2022
1311 649500 CRISTINA DO DIVINO ESPIRITO SANTOS OFICIAL DO MP DIVINÓPOLIS - COMARCA; DIVINOPOLIS-PJ-12PJ 1.333,00 0,00 578,00 0,00 0,00 0,00 0,00 0,00 0,00 31/08/2022
1312 727100 CRISTINA DORNELLES CLARET ASSESSOR ADMINISTRATIVO III BELO HORIZONTE - COMARCA; CAO-MEIO AMBIENTE 1.333,00 0,00 578,00 0,00 0,00 0,00 0,00 0,00 0,00 31/08/2022
1313 218500 CRISTINA FAGUNDES SIQUEIRA PROMOTOR 2A ENTRANCIA ARAGUARI - COMARCA; ARAGUARI-PJ-04PJ 1.333,00 0,00 3.200,47 0,00 16.002,33 0,00 0,00 0,00 488,96 31/08/2022
1314 484500 CRISTINA FERREIRA LABARRERE NASCIMENTO PROMOTOR SUBSTITUTO RIBEIRÃO DAS NEVES - COMARCA; RIBEIRAO DAS NEVES-PJ-09PJ 1.333,00 0,00 1.921,37 0,00